[[{"header":{"parameterUnit":"m.s-1","parameterCategory":1,"la1":30.6,"la2":28.766,"lo1":-90.7593,"lo2":-88.6598,"dy":0.0162,"dx":0.0183,"nx":116,"ny":114,"refTime":"2024-03-26T12:00:00:Z","depth":0,"parameterNumber":2,"parameterNumberName":"U-component_of_WINDS"},"data":[0.0,0.0,0.0,0.0,0.0,0.0,0.0,0.0,0.0,0.0,0.0,0.0,0.0,0.0,0.0,0.0,0.0,0.0,0.0,0.0,0.0,0.0,0.0,0.0,0.0,0.0,0.0,0.0,0.0,0.0,0.0,0.0,0.0,0.0,0.0,0.0,0.0,0.0,0.0,0.0,0.0,0.0,0.0,0.0,0.0,0.0,0.0,0.0,0.0,0.0,0.0,0.0,0.0,0.0,0.0,0.0,0.0,0.0,0.0,0.0,0.0,0.0,0.0,0.0,0.0,0.0,0.0,0.0,0.0,0.0,0.0,0.0,0.0,0.0,0.0,0.0,0.0,0.0,0.0,0.0,0.0,0.0,0.0,0.0,0.0,0.0,0.0,0.0,0.0,0.0,0.0,0.0,0.0,0.0,0.0,0.0,0.0,0.0,0.0,0.0,0.0,0.0,0.0,0.0,0.0,0.0,0.0,0.0,0.0,0.0,0.0,0.0,0.0,0.0,0.0,0.0,0.0,0.0,0.0,0.0,0.0,0.0,0.0,0.0,0.0,0.0,0.0,0.0,0.0,0.0,0.0,0.0,0.0,0.0,0.0,0.0,0.0,0.0,0.0,0.0,0.0,0.0,0.0,0.0,0.0,0.0,0.0,0.0,0.0,0.0,0.0,0.0,0.0,0.0,0.0,0.0,0.0,0.0,0.0,0.0,0.0,0.0,0.0,0.0,0.0,0.0,0.0,0.0,0.0,0.0,0.0,0.0,0.0,0.0,0.0,0.0,0.0,0.0,0.0,0.0,0.0,0.0,0.0,0.0,0.0,0.0,0.0,0.0,0.0,0.0,0.0,0.0,0.0,0.0,0.0,0.0,0.0,0.0,0.0,0.0,0.0,0.0,0.0,0.0,0.0,0.0,0.0,0.0,0.0,0.0,0.0,0.0,0.0,0.0,0.0,0.0,0.0,0.0,0.0,0.0,0.0,0.0,0.0,0.0,0.0,0.0,0.0,0.0,0.0,0.0,0.0,0.0,0.0,0.0,0.0,0.0,0.0,0.0,0.0,0.0,0.0,0.0,0.0,0.0,0.0,0.0,0.0,0.0,0.0,0.0,0.0,0.0,0.0,0.0,0.0,0.0,0.0,0.0,0.0,0.0,0.0,0.0,0.0,0.0,0.0,0.0,0.0,0.0,0.0,0.0,0.0,0.0,0.0,0.0,0.0,0.0,0.0,0.0,0.0,0.0,0.0,0.0,0.0,0.0,0.0,0.0,0.0,0.0,0.0,0.0,0.0,0.0,0.0,0.0,0.0,0.0,0.0,0.0,0.0,0.0,0.0,0.0,0.0,0.0,0.0,0.0,0.0,0.0,0.0,0.0,0.0,0.0,0.0,0.0,0.0,0.0,0.0,0.0,0.0,0.0,0.0,0.0,0.0,0.0,0.0,0.0,0.0,0.0,0.0,0.0,0.0,0.0,0.0,0.0,0.0,0.0,0.0,0.0,0.0,0.0,0.0,0.0,0.0,0.0,0.0,0.0,0.0,0.0,0.0,0.0,0.0,0.0,0.0,0.0,0.0,0.0,0.0,0.0,0.0,0.0,0.0,0.0,0.0,0.0,0.0,0.0,0.0,0.0,0.0,0.0,0.0,0.0,0.0,0.0,0.0,0.0,0.0,0.0,0.0,0.0,0.0,0.0,0.0,0.0,0.0,0.0,0.0,0.0,0.0,0.0,0.0,0.0,0.0,0.0,0.0,0.0,0.0,0.0,0.0,0.0,0.0,0.0,0.0,0.0,0.0,0.0,0.0,0.0,0.0,0.0,0.0,0.0,0.0,0.0,0.0,0.0,0.0,0.0,0.0,0.0,0.0,0.0,0.0,0.0,0.0,0.0,0.0,0.0,0.0,0.0,0.0,0.0,0.0,0.0,0.0,0.0,0.0,0.0,0.0,0.0,0.0,0.0,0.0,0.0,0.0,0.0,0.0,0.0,0.0,0.0,0.0,0.0,0.0,0.0,0.0,0.0,0.0,0.0,0.0,0.0,0.0,0.0,0.0,0.0,0.0,0.0,0.0,0.0,0.0,0.0,0.0,0.0,0.0,0.0,0.0,0.0,0.0,0.0,0.0,0.0,0.0,0.0,0.0,0.0,0.0,0.0,0.0,0.0,0.0,0.0,0.0,0.0,0.0,0.0,0.0,0.0,0.0,0.0,0.0,0.0,0.0,0.0,0.0,0.0,0.0,0.0,0.0,0.0,0.0,0.0,0.0,0.0,0.0,0.0,0.0,0.0,0.0,0.0,0.0,0.0,0.0,0.0,0.0,0.0,0.0,0.0,0.0,0.0,0.0,0.0,0.0,0.0,0.0,0.0,0.0,0.0,0.0,0.0,0.0,0.0,0.0,0.0,0.0,0.0,0.0,0.0,0.0,0.0,0.0,0.0,0.0,0.0,0.0,0.0,0.0,0.0,0.0,0.0,0.0,0.0,0.0,0.0,0.0,0.0,0.0,0.0,0.0,0.0,0.0,0.0,0.0,0.0,0.0,0.0,0.0,0.0,0.0,0.0,0.0,0.0,0.0,0.0,0.0,0.0,0.0,0.0,0.0,0.0,0.0,0.0,0.0,0.0,0.0,0.0,0.0,0.0,0.0,0.0,0.0,0.0,0.0,0.0,0.0,0.0,0.0,0.0,0.0,0.0,0.0,0.0,0.0,0.0,0.0,0.0,0.0,0.0,0.0,0.0,0.0,0.0,0.0,0.0,0.0,0.0,0.0,0.0,0.0,0.0,0.0,0.0,0.0,0.0,0.0,0.0,0.0,0.0,0.0,0.0,0.0,0.0,0.0,0.0,0.0,0.0,0.0,0.0,0.0,0.0,0.0,0.0,0.0,0.0,0.0,0.0,0.0,0.0,0.0,0.0,0.0,0.0,0.0,0.0,0.0,0.0,0.0,0.0,0.0,0.0,0.0,0.0,0.0,0.0,0.0,0.0,0.0,0.0,0.0,0.0,0.0,0.0,0.0,0.0,0.0,0.0,0.0,0.0,0.0,0.0,0.0,0.0,0.0,0.0,0.0,0.0,0.0,0.0,0.0,0.0,0.0,0.0,0.0,0.0,0.0,0.0,0.0,0.0,0.0,0.0,0.0,0.0,0.0,0.0,0.0,0.0,0.0,0.0,0.0,0.0,0.0,0.0,0.0,0.0,0.0,0.0,0.0,0.0,0.0,0.0,0.0,0.0,0.0,0.0,0.0,0.0,0.0,0.0,0.0,0.0,0.0,0.0,0.0,0.0,0.0,0.0,0.0,0.0,0.0,0.0,0.0,0.0,0.0,0.0,0.0,0.0,0.0,0.0,0.0,0.0,0.0,0.0,0.0,0.0,0.0,0.0,0.0,0.0,0.0,0.0,0.0,0.0,0.0,0.0,0.0,0.0,0.0,0.0,0.0,0.0,0.0,0.0,0.0,0.0,0.0,0.0,0.0,0.0,0.0,0.0,0.0,0.0,0.0,0.0,0.0,0.0,0.0,0.0,0.0,0.0,0.0,0.0,0.0,0.0,0.0,0.0,0.0,0.0,0.0,0.0,0.0,0.0,0.0,0.0,0.0,0.0,0.0,0.0,0.0,0.0,0.0,0.0,0.0,0.0,0.0,0.0,0.0,0.0,0.0,0.0,0.0,0.0,0.0,0.0,0.0,0.0,0.0,0.0,0.0,0.0,0.0,0.0,0.0,0.0,0.0,0.0,0.0,0.0,0.0,0.0,0.0,0.0,0.0,0.0,0.0,0.0,0.0,0.0,0.0,0.0,0.0,0.0,0.0,0.0,0.0,0.0,0.0,0.0,0.0,0.0,0.0,0.0,0.0,0.0,0.0,0.0,0.0,0.0,0.0,0.0,0.0,0.0,0.0,0.0,0.0,0.0,0.0,0.0,0.0,0.0,0.0,0.0,0.0,0.0,0.0,0.0,0.0,0.0,0.0,0.0,0.0,0.0,0.0,0.0,0.0,0.0,0.0,0.0,0.0,0.0,0.0,0.0,0.0,0.0,0.0,0.0,0.0,0.0,0.0,0.0,0.0,0.0,0.0,0.0,0.0,0.0,0.0,0.0,0.0,0.0,0.0,0.0,0.0,0.0,0.0,0.0,0.0,0.0,0.0,0.0,0.0,0.0,0.0,0.0,0.0,0.0,0.0,0.0,0.0,0.0,0.0,0.0,0.0,0.0,0.0,0.0,0.0,0.0,0.0,0.0,0.0,0.0,0.0,0.0,0.0,0.0,0.0,0.0,0.0,0.0,0.0,0.0,0.0,0.0,0.0,0.0,0.0,0.0,0.0,0.0,0.0,0.0,0.0,0.0,0.0,0.0,0.0,0.0,0.0,0.0,0.0,0.0,0.0,0.0,0.0,0.0,0.0,0.0,0.0,0.0,0.0,0.0,0.0,0.0,0.0,0.0,0.0,0.0,0.0,0.0,0.0,0.0,0.0,0.0,0.0,0.0,0.0,0.0,0.0,0.0,0.0,0.0,0.0,0.0,0.0,0.0,0.0,0.0,0.0,0.0,0.0,0.0,0.0,0.0,0.0,0.0,0.0,0.0,0.0,0.0,0.0,0.0,0.0,0.0,0.0,0.0,0.0,0.0,0.0,0.0,0.0,0.0,0.0,0.0,0.0,0.0,0.0,0.0,0.0,0.0,0.0,0.0,0.0,0.0,0.0,0.0,0.0,0.0,0.0,0.0,0.0,0.0,0.0,0.0,0.0,0.0,0.0,0.0,0.0,0.0,0.0,0.0,0.0,0.0,0.0,0.0,0.0,0.0,0.0,0.0,0.0,0.0,0.0,0.0,0.0,0.0,0.0,0.0,0.0,0.0,0.0,0.0,0.0,0.0,0.0,0.0,0.0,0.0,0.0,0.0,0.0,0.0,0.0,0.0,0.0,0.0,0.0,0.0,0.0,0.0,0.0,0.0,0.0,0.0,0.0,0.0,0.0,0.0,0.0,0.0,0.0,0.0,0.0,0.0,0.0,0.0,0.0,0.0,0.0,0.0,0.0,0.0,0.0,0.0,0.0,0.0,0.0,0.0,0.0,0.0,0.0,0.0,0.0,0.0,0.0,0.0,0.0,0.0,0.0,0.0,0.0,0.0,0.0,0.0,0.0,0.0,0.0,0.0,0.0,0.0,0.0,0.0,0.0,0.0,0.0,0.0,0.0,0.0,0.0,0.0,0.0,0.0,0.0,0.0,0.0,0.0,0.0,0.0,0.0,0.0,0.0,0.0,0.0,0.0,0.0,0.0,0.0,0.0,0.0,0.0,0.0,0.0,0.0,0.0,0.0,0.0,0.0,0.0,0.0,0.0,0.0,0.0,0.0,0.0,0.0,0.0,0.0,0.0,0.0,0.0,0.0,0.0,0.0,0.0,0.0,0.0,0.0,0.0,0.0,0.0,0.0,0.0,0.0,0.0,0.0,0.0,0.0,0.0,0.0,0.0,0.0,0.0,0.0,0.0,0.0,0.0,0.0,0.0,0.0,0.0,0.0,0.0,0.0,0.0,0.0,0.0,0.0,0.0,0.0,0.0,0.0,0.0,0.0,0.0,0.0,0.0,0.0,0.0,0.0,0.0,0.0,0.0,0.0,0.0,0.0,0.0,0.0,0.0,0.0,0.0,0.0,0.0,0.0,0.0,0.0,0.0,0.0,0.0,0.0,0.0,0.0,0.0,0.0,0.0,0.0,0.0,0.0,0.0,0.0,0.0,0.0,0.0,0.0,0.0,0.0,0.0,0.0,0.0,0.0,0.0,0.0,0.0,0.0,0.0,0.0,0.0,0.0,0.0,0.0,0.0,0.0,0.0,0.0,0.0,0.0,0.0,0.0,0.0,0.0,0.0,0.0,0.0,0.0,0.0,0.0,0.0,0.0,0.0,0.0,0.0,0.0,0.0,0.0,0.0,0.0,0.0,0.0,0.0,0.0,0.0,0.0,0.0,0.0,0.0,0.0,0.0,0.0,0.0,0.0,0.0,0.0,0.0,0.0,0.0,0.0,0.0,0.0,0.0,0.0,0.0,0.0,0.0,0.0,0.0,0.0,0.0,0.0,0.0,0.0,0.0,0.0,0.0,2.1159,0.0,0.0,0.0,0.0,0.0,0.0,0.0,0.0,0.0,0.0,0.0,0.0,0.0,0.0,0.0,0.0,0.0,0.0,0.0,0.0,0.0,0.0,0.0,0.0,1.568,1.5892,1.5869,1.586,1.5893,1.5878,0.0,0.0,0.0,0.0,0.0,1.5385,1.5817,1.646,1.7301,1.6893,1.6662,1.6692,1.7985,1.8141,1.7394,0.0,0.0,0.0,0.0,0.0,0.0,0.0,0.0,0.0,0.0,0.0,0.0,0.0,0.0,0.0,0.0,0.0,0.0,0.0,0.0,0.0,0.0,0.0,0.0,0.0,0.0,0.0,0.0,0.0,0.0,0.0,0.0,0.0,0.0,0.0,0.0,0.0,0.0,0.0,0.0,0.0,0.0,0.0,0.0,0.0,0.0,0.0,0.0,0.0,0.0,0.0,0.0,0.0,0.0,0.0,0.0,0.0,0.0,0.0,0.0,0.0,0.0,0.0,0.0,0.0,0.0,0.0,0.0,0.0,0.0,0.0,2.2661,0.0,0.0,0.0,0.0,0.0,0.0,0.0,0.0,0.0,0.0,0.0,0.0,0.0,0.0,0.0,0.0,0.0,0.0,0.0,0.0,0.0,1.5525,1.5525,1.6284,1.6803,1.6734,1.6723,1.6679,1.6519,1.5868,0.0,0.0,0.0,0.0,1.5617,1.632,1.7112,1.8003,1.727,1.7433,1.8494,2.0064,1.9669,1.766,1.8954,0.0,0.0,0.0,0.0,0.0,0.0,0.0,0.0,0.0,0.0,0.0,0.0,0.0,0.0,0.0,0.0,0.0,0.0,0.0,0.0,0.0,0.0,0.0,0.0,0.0,0.0,0.0,0.0,0.0,0.0,0.0,0.0,0.0,0.0,0.0,0.0,0.0,0.0,0.0,0.0,0.0,0.0,0.0,0.0,0.0,0.0,0.0,0.0,0.0,0.0,0.0,0.0,0.0,0.0,0.0,0.0,0.0,0.0,0.0,0.0,0.0,0.0,0.0,0.0,2.6271,2.553,2.5746,2.5476,2.4873,2.4857,2.4192,2.3226,0.0,0.0,0.0,0.0,0.0,0.0,0.0,0.0,0.0,0.0,0.0,0.0,0.0,0.0,0.0,0.0,0.0,0.0,0.0,0.0,1.6435,1.6435,1.7152,1.7644,1.765,1.765,1.7335,1.661,1.643,1.6038,0.0,0.0,1.5651,1.6415,1.6596,1.7148,1.8011,1.7896,1.8644,2.0293,2.1276,2.1505,2.1099,2.064,2.033,2.0098,0.0,0.0,0.0,0.0,0.0,0.0,0.0,0.0,0.0,0.0,0.0,0.0,0.0,0.0,0.0,0.0,0.0,0.0,0.0,0.0,0.0,0.0,0.0,0.0,0.0,0.0,0.0,0.0,0.0,0.0,0.0,0.0,0.0,0.0,0.0,0.0,0.0,0.0,0.0,0.0,0.0,1.7525,1.9081,0.0,0.0,0.0,0.0,0.0,0.0,0.0,0.0,0.0,0.0,0.0,0.0,0.0,0.0,2.2848,2.3922,2.4025,2.3198,2.5631,2.632,2.5569,2.7,2.758,2.7503,2.7503,0.0,2.406,2.4285,0.0,0.0,0.0,0.0,0.0,0.0,0.0,0.0,0.0,0.0,0.0,0.0,0.0,0.0,0.0,0.0,0.0,0.0,0.0,0.0,0.0,1.7882,1.7993,1.8479,1.8074,1.7644,1.7313,1.7263,1.7081,1.6701,1.6736,1.6963,1.7363,1.7419,1.7868,1.8732,2.0155,2.1015,2.131,2.2172,2.2561,2.2515,2.2162,2.1702,2.1206,2.0847,0.0,0.0,0.0,0.0,0.0,0.0,0.0,0.0,0.0,0.0,0.0,0.0,0.0,0.0,0.0,0.0,0.0,0.0,0.0,0.0,0.0,0.0,0.0,0.0,0.0,0.0,0.0,0.0,0.0,0.0,0.0,0.0,0.0,0.0,0.0,0.0,0.0,0.0,0.0,1.9962,2.0255,2.2456,2.183,2.2449,0.0,0.0,0.0,0.0,0.0,0.0,0.0,0.0,0.0,2.4633,2.6216,2.6481,2.5163,2.696,2.7457,2.6629,2.8683,2.9218,2.8396,2.9124,2.9464,2.9464,2.9446,2.8818,2.7735,2.6729,2.5762,2.4904,0.0,0.0,0.0,0.0,0.0,2.6141,0.0,0.0,0.0,0.0,0.0,0.0,0.0,0.0,0.0,0.0,0.0,0.0,1.8927,1.8739,1.8728,1.9368,1.9014,1.8776,1.8814,1.8377,1.8247,1.845,1.8107,1.8114,1.8618,1.8865,1.9321,1.9947,2.2071,2.289,2.2483,2.3341,2.3773,2.3771,2.3764,2.3265,2.2458,2.2021,2.1207,2.0154,0.0,0.0,0.0,0.0,0.0,0.0,0.0,0.0,0.0,0.0,0.0,0.0,0.0,0.0,0.0,0.0,0.0,0.0,0.0,0.0,0.0,0.0,0.0,0.0,0.0,0.0,0.0,0.0,0.0,0.0,0.0,0.0,0.0,0.0,0.0,0.0,0.0,2.17,2.2385,2.4292,2.3966,2.4522,0.0,0.0,0.0,0.0,0.0,0.0,2.6442,2.8745,2.9256,2.751,2.8953,2.9218,2.8155,2.9846,3.0389,2.9753,3.1219,3.1568,3.0948,3.1164,3.1263,3.1254,3.1274,3.1149,3.0791,2.9282,2.7706,2.6321,2.7528,2.7776,2.7478,2.7884,2.8006,2.8083,0.0,0.0,0.0,0.0,0.0,0.0,0.0,0.0,0.0,0.0,0.0,1.8174,1.9004,1.9784,2.0294,2.0326,2.0978,2.1449,2.1518,1.996,1.94,2.0243,1.8683,1.8629,2.0321,2.1247,2.1691,2.1652,2.2635,2.3497,2.428,2.518,2.557,2.557,2.5562,2.5088,2.4154,2.2563,2.2298,2.2693,2.0265,0.0,0.0,0.0,0.0,0.0,0.0,0.0,0.0,0.0,0.0,0.0,0.0,0.0,0.0,0.0,0.0,0.0,0.0,0.0,0.0,0.0,0.0,0.0,0.0,0.0,0.0,0.0,0.0,0.0,0.0,0.0,0.0,0.0,0.0,0.0,0.0,0.0,0.0,2.1869,2.4018,0.0,0.0,0.0,0.0,2.6854,2.9016,2.8985,2.5737,2.9528,3.101,2.9334,3.0171,3.1001,3.1732,3.104,3.0683,3.063,3.1484,3.1895,3.187,3.2693,3.3063,3.3083,3.3083,3.2561,3.1681,3.083,3.083,3.141,3.1526,3.2029,3.2609,3.1903,3.1584,3.1449,0.0,0.0,0.0,0.0,0.0,1.5305,1.5388,1.6066,1.6801,1.7287,1.814,1.9414,2.1378,2.0892,2.0864,2.1995,2.133,2.082,2.0864,2.0282,2.0585,2.2016,2.143,2.1418,2.2168,2.1991,2.2129,2.2632,2.3497,2.4365,2.5232,2.5545,2.5701,2.5701,2.57,2.5542,2.5148,2.4016,2.3354,2.2963,2.1484,2.0935,0.0,0.0,0.0,0.0,0.0,0.0,0.0,0.0,0.0,0.0,0.0,0.0,0.0,0.0,0.0,0.0,0.0,0.0,0.0,0.0,0.0,0.0,0.0,0.0,0.0,0.0,0.0,0.0,0.0,0.0,0.0,0.0,0.0,0.0,0.0,0.0,0.0,2.5699,2.6139,0.0,2.7453,2.7427,2.7666,2.8489,2.8884,2.9039,2.8864,3.0839,3.1918,3.1864,3.2167,3.2469,3.277,3.3012,3.3119,3.3102,3.3934,3.436,3.4351,3.4681,3.4827,3.4817,3.4817,3.4923,3.5007,3.4216,3.2745,3.0984,3.0423,3.0732,3.141,3.053,3.0568,3.1062,0.0,0.0,0.0,0.0,1.5485,1.5293,1.5351,1.6308,1.7125,1.737,1.8401,1.9879,2.1945,2.1374,2.1424,2.286,2.1934,2.1623,2.2499,2.1494,2.1875,2.42,2.3695,2.3154,2.2685,2.3006,2.3306,2.3536,2.4404,2.5114,2.5703,2.5703,2.5703,2.5703,2.5703,2.5703,2.5662,2.5077,2.4334,2.3473,2.2578,2.2264,2.2187,0.0,0.0,0.0,0.0,0.0,0.0,0.0,0.0,0.0,0.0,0.0,0.0,0.0,0.0,0.0,0.0,0.0,0.0,0.0,0.0,0.0,0.0,0.0,0.0,0.0,0.0,0.0,0.0,0.0,0.0,0.0,0.0,0.0,0.0,0.0,2.6212,2.7918,2.7885,2.8168,2.9341,2.9219,2.9413,3.0269,3.0069,3.0406,3.1499,3.2384,3.3067,3.3585,3.3886,3.4032,3.4023,3.4923,3.5156,3.4836,3.5737,3.598,3.5708,3.5999,3.6144,3.6133,3.6443,3.6848,3.729,3.6482,3.4817,3.2658,3.1787,3.1816,3.2261,3.1652,3.1816,3.2397,0.0,0.0,0.0,1.6455,1.5909,1.534,1.5351,1.6788,1.7582,1.674,1.8096,1.953,2.0464,2.1274,2.2084,2.2976,2.3032,2.4042,2.6553,2.3567,2.3198,2.6621,2.5174,2.3575,2.199,2.4409,2.5258,2.444,2.5272,2.5703,2.5703,2.5703,2.5703,2.5703,2.5703,2.5703,2.5703,2.5703,2.5195,2.4375,2.3474,2.3125,2.3122,0.0,0.0,0.0,0.0,0.0,0.0,0.0,0.0,0.0,0.0,0.0,0.0,0.0,0.0,0.0,0.0,0.0,0.0,0.0,0.0,0.0,0.0,0.0,0.0,0.0,0.0,0.0,0.0,0.0,0.0,0.0,0.0,0.0,2.5496,2.5649,2.6251,2.7896,2.8909,2.9472,2.9464,3.1748,3.2855,3.1975,3.2771,3.3278,3.3248,3.4071,3.4536,3.4517,3.535,3.5786,3.5786,3.6629,3.659,3.5786,3.6629,3.659,3.5825,3.6629,3.7045,3.7102,3.7865,3.8202,3.8179,3.7383,3.7045,3.6975,3.6024,3.5676,3.5715,3.5658,3.5707,3.5746,0.0,0.0,1.6189,1.6532,1.64,1.6246,1.6237,1.7186,1.7792,1.7566,1.8983,2.0626,2.2154,2.2527,2.2982,2.3881,2.3348,2.3581,2.4896,2.2926,2.292,2.5751,2.4875,2.469,2.5499,2.4998,2.4948,2.5336,2.5584,2.5703,2.5703,2.5703,2.5703,2.5703,2.5699,2.5694,2.5696,2.5703,2.5547,2.5273,2.4375,2.4023,2.3984,0.0,0.0,0.0,0.0,0.0,0.0,0.0,0.0,0.0,0.0,0.0,0.0,0.0,0.0,0.0,0.0,0.0,0.0,0.0,0.0,0.0,0.0,0.0,0.0,0.0,0.0,0.0,0.0,0.0,0.0,0.0,2.6221,2.6123,2.5714,2.6736,2.7441,2.7316,2.8614,2.9242,2.8602,3.0292,3.1059,3.0247,3.213,3.3534,3.4124,3.4978,3.5978,3.7172,3.7422,3.7489,3.7489,3.7749,3.7788,3.7577,3.7788,3.7788,3.7577,3.7788,3.7881,3.7881,3.8086,3.8551,3.9081,3.8214,3.8225,3.8535,3.5863,3.5204,3.565,3.504,3.5582,3.6629,0.0,1.6073,1.6445,1.66,1.659,1.6588,1.6612,1.7344,1.7914,1.7909,1.9359,2.0792,2.1857,2.2265,2.2793,2.3686,2.3614,2.3925,2.4774,2.42,2.4024,2.4412,2.4716,2.5176,2.5859,2.527,2.5185,2.5687,2.5697,2.5702,2.5703,2.5703,2.5703,2.5703,2.57,2.5694,2.5687,2.5698,2.5702,2.5664,2.5156,2.4922,2.4883,2.4375,2.418,2.418,2.4179,2.3945,2.3789,2.4803,0.0,0.0,0.0,0.0,0.0,0.0,0.0,0.0,0.0,0.0,0.0,0.0,0.0,0.0,0.0,0.0,0.0,0.0,0.0,0.0,0.0,0.0,0.0,0.0,2.7558,2.7881,2.7374,2.8115,2.8973,2.9593,3.0221,3.0689,3.0919,3.1481,3.1782,3.1631,3.3362,3.4736,3.5562,3.6393,3.7298,3.8267,3.8225,3.8202,3.8202,3.8578,3.8578,3.8241,3.8578,3.8578,3.828,3.8617,3.8721,0.0,3.912,3.9584,3.9971,3.9104,3.9038,0.0,0.0,0.0,0.0,0.0,3.6435,3.7065,0.0,1.6321,1.6425,1.6574,1.658,1.6623,1.6748,1.7382,1.788,1.777,1.9312,2.0381,2.0352,2.1152,2.2022,2.2788,2.3725,2.4657,2.5538,2.6171,2.5556,2.3403,2.4695,2.5188,2.4557,2.5306,2.5697,2.5687,2.5689,2.5697,2.5703,2.5703,2.5703,2.5703,2.5703,2.57,2.5687,2.5687,2.5696,2.5703,2.5703,2.5703,2.5703,2.5703,2.5703,2.5703,2.5703,2.5193,2.4599,2.4765,0.0,0.0,0.0,0.0,0.0,0.0,0.0,0.0,0.0,0.0,0.0,0.0,0.0,0.0,0.0,0.0,0.0,0.0,0.0,0.0,0.0,0.0,0.0,0.0,2.8731,2.9702,2.9913,3.003,3.0888,3.2985,3.2678,3.2838,3.4285,3.3808,3.3678,3.4408,3.5326,3.6274,3.7218,0.0,0.0,0.0,0.0,3.8489,3.8501,3.9274,3.9262,3.8489,3.9262,3.9224,3.8528,3.9301,3.9661,3.97,4.0462,4.081,4.0745,3.9956,3.9658,3.953,3.8578,3.8241,3.8274,3.8225,3.781,0.0,0.0,1.5842,1.6352,1.642,1.6535,1.6822,1.7551,1.7799,1.7656,1.703,1.899,2.0223,1.9523,2.078,2.177,2.192,2.3387,2.4657,2.5538,2.5098,2.488,2.5091,2.4744,2.4841,2.5455,2.5619,2.5697,2.5687,2.57,2.5701,2.5693,2.5702,2.5702,2.5693,2.5693,2.5691,2.5687,2.5687,2.5689,2.5693,2.5699,2.5703,2.5703,2.5703,2.5703,2.5703,2.5703,2.5586,2.5663,2.707,2.6484,2.5272,2.5824,2.5125,0.0,0.0,0.0,0.0,0.0,0.0,0.0,0.0,0.0,0.0,0.0,0.0,0.0,0.0,0.0,0.0,0.0,0.0,0.0,3.0619,3.0754,3.1036,3.2469,3.3254,3.3371,3.2469,3.2825,3.2985,3.2625,3.3028,3.3362,3.3535,3.4951,3.6487,3.8066,3.8257,0.0,4.0345,4.0328,4.0293,4.0311,4.0447,4.0474,4.0304,0.0,0.0,4.0304,4.0474,4.0539,4.0539,4.0732,4.081,4.0771,4.0629,4.0551,4.0397,3.8855,3.8296,3.8296,3.8296,3.8644,3.911,0.0,1.5705,1.622,1.5831,1.659,1.7383,1.7814,1.8267,1.8554,1.859,2.0098,2.0982,2.0539,2.1259,2.1744,2.1692,2.2516,2.374,2.5447,2.4736,2.4447,2.4932,2.4968,2.5187,2.5689,2.5693,2.5693,2.5687,2.5696,2.5698,2.5694,2.5698,2.5696,2.5687,2.5687,2.5687,2.5687,2.5687,2.5961,2.6314,2.5888,2.597,2.6285,2.5858,2.5703,2.5703,2.5703,2.5703,2.582,2.6719,2.6406,2.5703,2.5693,2.541,2.4893,0.0,0.0,0.0,0.0,0.0,0.0,0.0,0.0,0.0,0.0,0.0,0.0,0.0,0.0,2.7978,2.9273,0.0,3.0438,3.1256,3.2119,3.302,3.3912,3.4769,3.4998,3.4096,3.3989,3.3989,3.3985,3.3963,3.4308,3.5176,3.645,3.7721,3.9045,3.9435,4.0041,4.0904,4.0868,4.0826,4.0787,4.0804,4.0808,4.0796,4.0784,4.0784,4.0796,4.0784,4.081,4.081,4.081,4.081,4.081,4.081,4.081,4.0706,3.9879,3.9331,3.9004,3.9392,3.9557,3.9635,0.0,1.5537,1.5933,1.521,1.6493,1.7719,1.7858,1.8657,1.9375,1.9917,2.0887,2.1432,2.1084,2.1344,2.1675,2.1925,2.164,2.2624,2.5331,2.4536,2.4125,2.4542,2.5233,2.5611,2.5691,2.5691,2.5691,2.5693,2.5689,2.5691,2.5698,2.5691,2.5687,2.5687,2.5691,2.5808,2.5963,2.5961,2.647,2.7177,2.6509,2.6626,2.7178,2.6285,2.5858,2.5703,2.5703,2.5703,2.5703,2.5703,2.5703,2.5586,2.4883,2.5144,2.5574,2.4872,2.4631,0.0,0.0,0.0,0.0,0.0,0.0,0.0,0.0,2.4868,2.5644,2.8236,2.9745,3.036,2.9831,3.1616,3.2781,3.1703,3.3249,3.4686,3.4886,3.5505,3.5889,3.5889,3.5109,3.4954,3.5811,3.5265,3.5577,3.7331,3.8266,3.9123,4.0019,4.0648,4.1015,4.1023,4.0935,4.0888,4.0819,4.0798,4.0804,4.0796,4.0784,4.081,4.081,4.081,4.081,4.081,4.081,4.081,4.081,4.081,4.081,4.081,4.0784,4.0382,3.9924,4.0583,4.04,3.9906,0.0,1.4971,1.5223,1.5127,1.6004,1.7016,1.778,1.8632,1.8974,1.8274,1.9608,2.0098,1.8598,1.9744,2.1243,2.2746,2.144,2.1965,2.5356,2.4057,2.3835,2.5371,2.5566,2.5619,2.5699,2.5699,2.5701,2.5703,2.5696,2.5687,2.5689,2.5687,2.5687,2.5687,2.5701,2.6131,2.6869,2.6861,2.7372,2.8161,2.8036,2.8078,2.8045,2.7186,2.6362,2.5693,2.5703,2.5703,2.5703,2.5703,2.5703,2.5664,2.5586,2.5621,2.5679,2.5574,2.557,2.4872,2.1798,2.0282,2.009,2.2257,2.3465,2.5343,0.0,2.8766,2.7355,2.9975,3.0057,2.9862,3.0516,3.1534,3.2669,3.3946,3.4413,3.4876,3.5655,3.585,3.5889,3.5889,3.5109,3.4954,3.5811,3.5811,3.6473,3.8227,3.9162,4.0058,4.0916,4.0999,4.103,4.1104,4.0952,4.0926,4.096,4.0878,4.0787,4.0815,4.0808,4.081,4.081,4.081,4.081,4.081,4.081,4.081,4.081,4.081,4.081,4.0822,4.0808,4.0742,4.0665,4.0757,4.0745,4.068,0.0,0.0,1.5127,1.5159,1.6387,1.7465,1.7827,1.9063,1.9836,1.9447,2.0507,2.1004,2.028,2.0841,2.1519,2.2192,2.1103,2.1667,2.46,2.3657,2.3781,2.5535,2.5598,2.5622,2.5694,2.5701,2.5703,2.5703,2.5696,2.5691,2.5696,2.5691,2.5687,2.5726,2.6239,2.6397,2.6317,2.7329,2.7954,2.8311,2.8305,2.8317,2.8201,2.7333,2.6459,2.5839,2.6835,2.6871,0.0,2.6961,2.6805,2.6256,2.5736,2.5944,2.6378,2.635,2.6354,2.5882,2.3433,2.289,2.3046,2.3079,2.4128,2.5726,2.787,2.7593,2.7511,2.962,2.9736,2.9931,3.1291,3.227,3.3244,0.0,3.5032,3.546,3.585,3.5889,3.5889,3.5889,3.5577,3.5889,3.7292,3.7409,3.8149,3.9864,4.037,4.0721,4.1071,4.1059,4.1052,4.111,4.1038,4.1023,4.1015,4.0935,4.0907,4.0878,4.0848,4.0826,4.0792,4.0792,4.0808,4.0822,4.082,4.0808,4.0822,4.082,4.0808,4.081,4.0784,4.1105,4.1454,4.0974,4.1141,4.1567,0.0,0.0,0.0,1.5521,1.6844,1.7907,1.7913,1.9375,2.0498,2.0503,2.1055,2.1437,2.1441,2.1425,2.1407,2.1381,2.1007,2.1529,2.3391,2.343,2.3931,2.5195,2.5467,2.562,2.5687,2.5699,2.5703,2.5703,2.5699,2.5698,2.5702,2.5697,2.5574,2.5369,2.6233,2.6268,2.5788,2.7261,2.8044,2.8252,2.8254,2.8237,2.8163,2.727,2.6697,2.6523,2.7532,2.7492,2.7,2.7634,2.7537,2.7016,2.6142,2.645,2.7089,2.6572,2.5945,2.5342,2.4845,2.4818,2.4709,2.3702,2.4748,2.6108,2.6342,2.7043,2.8056,2.9533,3.0044,3.0589,3.188,3.301,3.3902,3.4525,3.5343,3.5889,3.5889,3.5889,3.5889,3.5889,3.5889,3.6473,3.7993,3.8344,3.9123,4.0643,4.0955,4.111,4.111,4.111,4.111,4.111,4.111,4.1098,4.103,4.1023,4.0999,4.0926,4.0917,4.0888,4.0809,4.0798,4.0792,4.0822,4.0804,4.0792,4.0784,4.0804,4.0792,4.081,4.1042,4.1506,4.197,4.1633,4.1889,4.2419,0.0,0.0,0.0,0.0,1.7249,1.791,1.7913,1.9393,2.0519,2.0502,2.0508,2.0537,2.0558,2.0546,2.055,2.0522,2.1234,2.1682,2.175,2.3337,2.4296,2.4358,2.5138,2.5646,2.5689,2.5687,2.5697,2.5703,2.5703,2.5703,2.5703,2.5703,2.5269,2.4485,2.5267,2.5646,2.5678,2.6476,2.7317,2.8121,2.81,2.8093,2.7995,2.7156,2.7362,2.8004,2.7228,2.6914,2.6905,2.6934,2.7456,2.7916,2.7063,2.727,2.7536,2.5938,2.369,2.2287,2.48,2.4286,2.327,2.4156,2.5601,2.7082,2.794,2.8792,2.9688,3.0585,3.1447,3.2036,3.2075,3.3434,3.4564,3.4603,3.5343,3.5889,3.5889,3.5889,3.5889,3.5889,3.5889,3.624,0.0,3.7993,3.8889,3.9786,4.0604,4.111,4.111,4.111,4.111,4.111,4.111,4.111,4.1104,4.103,4.1015,4.1015,4.0926,4.0907,4.0907,4.0809,4.0792,4.0822,4.0804,4.0792,4.0784,4.0804,4.0792,4.0887,4.1661,4.197,4.2086,4.2937,4.3247,4.3247,0.0,0.0,0.0,0.0,0.0,1.8776,1.876,1.975,2.0516,2.0502,2.0504,0.0,0.0,0.0,0.0,0.0,2.0741,2.1364,2.2477,2.2586,2.3086,2.4269,2.4581,2.4764,2.4829,2.5386,2.5702,2.5703,2.5703,2.5382,2.4849,2.4849,2.4339,2.3513,2.4943,2.5292,2.4851,2.685,2.7498,2.7304,2.7867,2.774,2.7337,2.8184,2.7634,2.6512,0.0,2.7639,2.7732,2.8288,2.7845,2.6983,2.663,2.7121,2.7652,2.6571,2.5677,2.4994,2.4785,2.4744,2.4849,2.5169,2.6537,2.7823,2.8134,2.9299,3.0273,3.0,3.1096,3.227,3.2854,3.3434,3.4369,3.6045,3.5616,3.5226,3.5811,3.5889,3.5889,3.5889,3.5889,0.0,0.0,0.0,0.0,3.9708,4.0058,4.0487,4.1071,4.111,4.111,4.111,4.111,4.111,4.111,4.1098,4.1052,4.1052,4.1015,4.0952,4.0952,4.0907,4.0868,4.0858,4.0878,4.0848,4.0843,4.1479,4.1369,4.0938,4.2369,4.2898,4.2976,4.3827,4.4485,4.4871,0.0,0.0,0.0,0.0,0.0,0.0,0.0,0.0,0.0,0.0,0.0,0.0,0.0,0.0,0.0,0.0,0.0,2.1273,2.2076,2.2123,2.2678,2.384,2.3837,2.4179,2.4868,2.5117,2.5546,2.6172,2.5547,2.5091,2.48,2.4225,2.3618,2.3054,2.4465,2.462,2.3947,2.6184,2.697,2.6776,2.7373,2.7427,2.7272,2.8104,2.7387,0.0,2.6776,2.7257,2.7535,2.7806,2.7305,2.6469,2.6117,2.5998,2.6128,2.719,2.6253,2.488,2.5064,2.5117,2.5323,2.5921,2.7147,2.829,2.8602,2.9533,3.0195,2.9611,3.0628,3.1797,3.2382,3.2732,3.3668,3.5928,3.5071,3.4564,3.5733,3.5889,3.5889,3.5889,3.6162,3.6356,0.0,0.0,0.0,3.924,3.9902,4.0526,4.1071,4.111,4.111,4.111,4.111,4.111,4.1117,4.111,4.111,4.111,4.1045,4.103,4.1015,4.0943,4.0926,4.0907,4.0926,4.0907,4.0897,4.1481,4.1362,4.0963,4.2691,4.3324,4.344,4.4601,4.5374,4.5722,0.0,0.0,0.0,0.0,0.0,0.0,0.0,0.0,0.0,0.0,0.0,0.0,0.0,0.0,0.0,0.0,0.0,0.0,2.0605,2.2006,2.2913,2.3021,2.303,2.3824,2.5531,2.4843,2.5267,2.6914,2.5272,2.4843,2.5507,2.3881,2.31,2.304,2.3852,2.3728,2.3064,2.4701,2.5831,2.6535,2.6612,2.7094,2.7708,2.7036,2.666,2.6448,2.573,2.5936,2.6448,2.5772,2.6023,2.6491,2.5576,2.4136,2.3575,2.7536,2.5371,2.2354,2.5513,2.5387,2.4747,2.6405,2.7551,2.8481,2.926,2.9455,2.9455,2.9377,3.0156,3.0857,3.0857,0.0,3.2815,3.4564,3.4096,3.4057,3.5772,3.6006,3.5967,0.0,0.0,0.0,0.0,0.0,0.0,3.8578,0.0,4.1065,4.1104,4.1104,4.1104,4.1104,4.1104,4.1078,4.1095,4.1117,4.111,4.111,4.111,4.1052,4.1023,4.1023,4.096,4.0917,4.1038,4.103,4.0985,4.1063,4.1034,4.1086,4.277,4.3401,4.3556,4.5181,4.58,4.58,0.0,0.0,0.0,0.0,0.0,0.0,0.0,0.0,0.0,0.0,0.0,0.0,0.0,0.0,0.0,0.0,0.0,0.0,2.1438,2.1274,2.1442,2.209,2.2732,2.3278,2.3759,2.4801,2.5585,2.6046,2.5579,2.5155,2.4709,2.4161,2.3573,2.2978,2.3753,2.4014,2.3869,2.4908,2.5428,2.5639,2.5716,2.5822,2.6082,2.7239,2.6871,2.5763,2.6102,2.5956,2.5793,2.688,2.7323,2.7141,2.5626,2.5271,2.5538,2.602,2.5707,2.5129,2.4736,2.5348,2.6173,2.6676,2.7945,2.9018,2.8632,2.9026,2.9143,2.7823,2.981,3.1758,3.1758,3.2966,0.0,3.7993,3.6123,0.0,3.7487,3.7292,0.0,3.6863,0.0,3.8188,3.8188,3.8967,0.0,0.0,3.9864,4.0383,4.0904,4.0943,4.0943,4.0943,4.0943,4.1015,4.1117,4.111,4.1117,4.1089,4.1089,4.1089,4.105,4.105,4.1089,4.1078,4.1714,4.1918,4.1972,4.3219,4.3352,4.2884,4.4563,4.4847,4.4407,4.5413,4.58,4.58,0.0,0.0,0.0,0.0,0.0,0.0,0.0,0.0,0.0,0.0,0.0,0.0,0.0,0.0,0.0,0.0,0.0,0.0,0.0,2.0777,2.0895,2.1765,2.1896,2.2308,2.3085,2.4051,2.4765,2.5112,2.4763,2.4296,2.3827,2.2909,2.2449,2.2354,2.2756,2.2957,2.3043,2.4254,2.4783,0.0,0.0,2.5322,2.5311,2.5996,2.562,2.4812,2.5224,2.5795,2.6347,2.6205,2.6343,2.6378,2.5399,2.4953,2.4851,2.5523,2.58,2.5757,2.522,2.6051,2.7258,2.7661,2.8288,2.8974,2.9674,2.9669,2.9459,2.9225,3.1057,3.2659,3.2659,3.3434,3.4954,0.0,0.0,0.0,3.7058,3.6941,3.6785,0.0,3.7954,0.0,3.9045,3.9864,4.037,0.0,4.0298,4.0454,4.0869,4.0907,4.0907,4.0907,4.0907,4.0917,4.0935,4.0984,4.1013,4.1026,4.105,4.1301,4.1652,4.1652,4.1847,4.2237,0.0,4.2836,4.2868,4.3763,4.3857,4.359,4.4834,4.5028,4.4692,4.5504,4.58,4.58,0.0,0.0,0.0,0.0,0.0,0.0,0.0,0.0,0.0,0.0,2.0575,0.0,0.0,0.0,0.0,0.0,0.0,0.0,0.0,0.0,2.0845,2.1589,2.1017,2.1385,2.2877,2.3027,2.3472,2.4218,2.3472,2.3085,2.3069,2.139,2.1043,2.1752,2.1683,2.1671,2.1765,2.327,2.3869,2.389,2.4736,2.4975,2.4788,0.0,2.3976,2.3927,2.4011,2.5573,2.7153,2.4828,2.4676,2.5387,2.5056,2.4011,2.3384,2.56,2.569,2.5284,2.6047,2.6873,2.7699,2.8502,2.8319,2.8613,3.0995,3.0361,2.9747,3.1387,3.2483,3.319,3.319,3.3312,3.4057,3.6084,0.0,3.4213,3.6162,3.6317,3.6473,3.7136,3.8071,3.8967,3.9747,4.0604,4.1104,4.1059,4.0943,4.0888,4.0888,4.0878,4.0868,4.0868,4.084,4.0819,4.0703,4.083,4.0882,4.0882,4.1117,4.1646,4.2382,4.2504,4.2933,4.3602,0.0,0.0,4.3753,4.3763,4.3751,4.3878,4.4537,4.4782,4.4847,4.5543,4.5814,4.5814,0.0,0.0,0.0,0.0,0.0,0.0,0.0,0.0,0.0,0.0,2.0898,2.0502,0.0,0.0,0.0,0.0,0.0,0.0,0.0,0.0,0.0,2.0709,2.1269,2.1722,2.2002,2.274,2.3187,2.3314,2.3114,2.3046,2.3103,2.2594,2.2477,2.2681,2.2537,2.2489,2.2489,2.2796,2.294,2.2949,2.317,2.3189,2.3179,2.3725,0.0,0.0,2.4651,2.5602,2.6376,2.5273,2.592,2.6886,2.4762,2.4393,2.4847,2.5268,2.5294,2.5218,2.5371,2.5994,2.668,2.6956,2.7431,2.8164,2.9389,2.8913,2.8449,2.9437,3.0986,3.2166,3.2166,3.2849,3.4642,3.85,3.6473,3.5499,3.8694,3.85,3.7837,0.0,3.8617,3.963,3.9786,4.0604,0.0,0.0,0.0,4.073,4.073,4.0629,4.0559,4.0559,4.0694,4.0715,4.0703,4.0787,4.0829,4.082,4.163,4.2103,4.2325,4.3105,4.3552,4.3716,0.0,0.0,4.4727,4.5298,4.5537,4.5491,4.5635,4.5661,4.5699,4.5775,4.5827,4.588,0.0,0.0,0.0,0.0,0.0,0.0,0.0,2.1017,2.1346,2.2243,2.2422,2.2142,2.126,2.0835,2.0607,0.0,0.0,0.0,0.0,0.0,0.0,2.0497,2.089,2.1126,2.1118,2.1952,2.2172,2.1733,0.0,2.2119,2.1747,2.1563,2.1521,2.1538,2.1445,2.1388,2.1436,2.1838,2.1742,2.1397,2.1876,2.1742,2.1387,0.0,0.0,0.0,2.4789,2.592,2.6784,2.5488,2.6491,2.7992,2.6365,2.555,2.5382,2.6249,2.6161,2.5805,2.5805,2.6708,2.7649,2.7714,2.7762,2.8214,2.994,2.9427,2.9052,3.0791,3.1845,3.2463,3.2463,3.2555,3.3583,3.6494,3.5281,3.4876,3.7409,3.7409,3.7175,3.7214,3.7954,3.8811,3.9708,4.0175,0.0,0.0,0.0,4.0668,4.0588,4.0515,4.0508,4.0508,4.0549,4.0563,4.0545,4.0617,4.0912,4.14,4.1898,4.2606,4.35,4.3973,4.4425,4.4869,4.5172,0.0,4.5315,4.5543,4.5665,4.5703,4.5742,4.5757,4.581,4.5727,4.5673,4.5712,0.0,0.0,0.0,0.0,0.0,0.0,2.1714,2.1876,2.232,2.3669,2.4073,2.3787,2.2481,2.1622,2.1003,0.0,0.0,0.0,0.0,0.0,0.0,0.0,0.0,2.0478,2.0512,0.0,0.0,2.0483,2.1113,0.0,0.0,0.0,0.0,0.0,2.0202,2.0184,2.0202,2.0862,2.0709,0.0,0.0,2.0927,0.0,0.0,0.0,0.0,0.0,2.5971,2.6835,2.5475,2.6464,2.8241,2.8006,2.7039,2.6173,2.7154,2.7065,2.6581,2.6238,2.7064,2.8027,2.8037,2.7574,2.7826,3.0291,2.9817,2.9571,3.2127,3.2662,3.2712,3.2673,3.2249,3.2516,3.4365,3.4088,3.4174,3.5694,3.6045,3.6279,3.659,3.698,0.0,3.9357,3.9708,0.0,0.0,0.0,0.0,4.046,4.046,4.046,4.046,4.0469,4.0438,4.0415,4.0708,4.1166,4.1875,4.2381,4.3269,4.4601,4.4793,4.5254,4.5886,4.575,0.0,0.0,4.5432,4.5399,4.547,4.5526,4.556,4.5632,4.5543,4.5509,4.5491,0.0,0.0,0.0,0.0,0.0,0.0,2.2516,2.2717,2.3628,2.6198,2.5174,2.4199,2.4178,2.339,2.2213,0.0,0.0,0.0,0.0,0.0,0.0,0.0,0.0,0.0,0.0,0.0,0.0,2.0497,0.0,0.0,0.0,0.0,0.0,0.0,0.0,0.0,2.0098,2.0174,0.0,0.0,0.0,0.0,0.0,0.0,0.0,0.0,0.0,2.5184,2.5311,2.5082,2.5703,2.6795,2.8322,2.8679,2.8297,2.6924,2.7014,2.7243,2.5715,2.5409,2.5523,2.5523,2.5497,2.607,2.8553,2.8401,2.8452,3.0929,3.1621,3.1725,3.1648,3.1797,3.271,3.5189,3.499,3.4837,3.5772,3.659,3.6512,3.5032,0.0,0.0,3.8539,3.9357,0.0,0.0,0.0,0.0,0.0,4.0329,4.0329,4.0329,4.0381,4.0415,4.0398,4.1195,4.1668,4.1832,4.3428,4.4288,4.4537,4.5374,4.582,4.5869,0.0,0.0,0.0,4.5539,4.5435,4.5399,4.5361,4.538,4.5417,4.5362,4.5381,4.5399,0.0,0.0,0.0,0.0,0.0,0.0,2.1907,2.2092,2.2863,2.5001,2.5118,2.5021,2.5155,2.4414,2.3004,2.0765,0.0,0.0,0.0,0.0,0.0,0.0,0.0,0.0,0.0,0.0,2.0459,2.0517,2.042,0.0,0.0,0.0,0.0,0.0,0.0,0.0,0.0,0.0,0.0,0.0,0.0,0.0,0.0,0.0,0.0,0.0,0.0,0.0,2.5793,2.5209,2.5891,2.7001,2.7167,2.8297,2.933,2.8221,2.742,2.6619,2.5485,2.5562,2.5919,2.5919,2.5932,2.6428,2.8408,2.8193,2.8183,3.016,3.0638,3.0696,3.0643,3.0355,3.0963,3.3596,3.3425,3.331,3.4247,3.4681,3.4642,3.394,3.4413,0.0,0.0,0.0,0.0,0.0,0.0,0.0,0.0,4.031,4.031,4.031,4.0327,4.0611,4.1182,4.1541,4.2249,4.3321,4.4003,4.4614,4.5115,4.5542,4.5703,4.5718,0.0,0.0,0.0,4.5263,4.5137,4.5049,4.5142,4.5222,4.5201,4.5159,4.5099,4.5099,0.0,0.0,0.0,0.0,0.0,2.0479,2.1775,2.196,2.267,2.4702,2.5024,2.5347,2.6009,2.4646,2.3047,2.1474,2.0887,0.0,0.0,0.0,0.0,0.0,0.0,0.0,0.0,0.0,2.0575,2.0841,2.0823,2.0914,0.0,0.0,0.0,0.0,0.0,0.0,0.0,0.0,0.0,0.0,0.0,0.0,0.0,0.0,0.0,0.0,0.0,0.0,0.0,0.0,0.0,2.6942,2.6321,2.7729,2.9421,2.8384,2.7597,2.6797,2.5562,2.56,2.6034,2.606,2.6428,2.7065,2.8189,2.8422,2.8679,2.984,3.0083,3.0083,3.0068,3.007,3.0676,3.2567,3.2542,3.2602,3.3524,3.3459,3.3394,3.3685,0.0,3.4481,0.0,0.0,0.0,0.0,0.0,0.0,0.0,4.031,4.031,4.031,4.0309,4.0746,4.1681,4.1946,4.2825,4.4303,4.4551,4.4935,4.555,4.5586,4.5586,4.5586,0.0,0.0,0.0,4.5125,4.4986,4.4914,4.4995,4.5019,4.5033,4.4957,4.4934,4.4887,0.0,0.0,0.0,0.0,0.0,0.0,2.2593,2.2838,2.3736,2.6423,2.5212,2.4859,2.6789,2.3975,2.2221,2.3,2.1551,0.0,0.0,0.0,0.0,0.0,0.0,0.0,0.0,0.0,2.0896,2.1677,2.1677,2.2105,2.2847,2.1922,2.1466,0.0,0.0,0.0,0.0,0.0,0.0,0.0,0.0,0.0,2.4902,0.0,0.0,0.0,0.0,0.0,0.0,0.0,0.0,0.0,0.0,2.735,2.8404,2.6726,2.7456,2.8338,2.5879,2.5191,2.5229,2.5229,2.644,2.7675,2.7608,2.8946,3.0157,3.0038,3.003,3.006,3.0022,3.1513,3.2762,3.2787,3.2949,3.3354,3.4195,3.3625,3.3451,0.0,0.0,3.501,0.0,0.0,0.0,0.0,0.0,0.0,0.0,4.031,4.031,4.031,4.0309,4.0746,4.1681,4.2486,4.3345,4.4316,4.5127,4.555,4.5586,4.5586,4.5586,0.0,0.0,0.0,0.0,4.5175,4.5103,4.508,4.4889,4.4815,4.4815,4.4889,4.4865,4.4815,0.0,0.0,0.0,0.0,0.0,0.0,2.1073,2.1143,2.166,2.3165,2.2797,2.312,2.5026,2.3234,2.1991,2.2257,2.124,0.0,0.0,0.0,0.0,0.0,0.0,0.0,0.0,2.1002,2.175,2.2605,2.3187,2.3896,2.4672,2.3681,2.2889,2.2249,2.1318,0.0,0.0,0.0,0.0,0.0,0.0,2.3992,2.4953,0.0,0.0,0.0,0.0,0.0,0.0,0.0,0.0,0.0,0.0,0.0,0.0,2.6275,2.7789,2.933,2.7961,2.7646,2.7521,2.6974,2.7687,2.8488,2.8441,2.9351,3.0171,3.0068,3.0083,3.0083,3.0068,3.0487,3.0867,3.0996,3.1571,3.1962,3.1806,3.2551,0.0,3.5069,3.6184,3.6794,0.0,0.0,0.0,0.0,0.0,0.0,0.0,4.031,4.031,4.031,4.0291,4.1016,4.2524,4.2718,4.3598,4.5109,4.5378,4.5532,4.555,4.5586,0.0,0.0,0.0,0.0,0.0,4.5341,4.5239,4.517,4.5103,4.501,4.4889,4.4914,4.4815,4.4685,0.0,0.0,0.0,0.0,0.0,0.0,2.0353,2.0332,2.0532,2.1186,2.1201,2.1835,2.37,2.2418,2.1641,2.2296,2.1279,0.0,0.0,0.0,0.0,0.0,0.0,0.0,2.0365,2.0931,2.1962,2.3481,2.403,2.5059,2.6451,2.5434,2.4514,2.3631,2.2321,2.1293,0.0,0.0,0.0,0.0,2.355,2.427,2.4991,0.0,0.0,0.0,0.0,0.0,0.0,0.0,0.0,0.0,0.0,0.0,0.0,0.0,2.8153,2.9801,2.895,2.8928,2.9034,2.8198,2.8912,2.9612,2.8935,2.9755,3.0538,3.0175,2.9588,2.9345,2.9939,2.9741,2.9848,3.0925,3.0776,3.1072,3.262,3.2914,0.0,3.5714,0.0,0.0,0.0,0.0,0.0,0.0,0.0,0.0,0.0,0.0,4.031,4.031,4.031,4.1112,4.2851,4.2814,4.3675,4.5457,4.5475,4.5475,4.5475,4.5568,0.0,0.0,0.0,0.0,0.0,4.5419,4.5341,4.5256,4.5235,4.5125,4.4986,4.5033,4.4914,4.4738,0.0,0.0,0.0,0.0,0.0,0.0,0.0,2.0341,2.0294,2.0327,2.0379,2.1003,2.2653,2.1484,2.1249,2.2803,2.1512,0.0,0.0,0.0,0.0,0.0,0.0,0.0,2.0314,2.0489,2.1836,2.4394,2.451,2.5842,2.8255,2.7237,2.6266,2.5303,2.3476,2.2205,0.0,0.0,0.0,0.0,2.3763,2.4269,0.0,0.0,0.0,0.0,0.0,0.0,0.0,0.0,0.0,0.0,0.0,0.0,0.0,0.0,0.0,0.0,0.0,2.9336,2.9813,2.8973,3.0013,3.0788,2.9254,3.0175,0.0,3.0289,2.8751,2.8089,2.9794,2.9376,2.9635,3.2086,3.0532,3.0729,3.5649,3.4503,0.0,0.0,0.0,0.0,0.0,0.0,0.0,0.0,0.0,0.0,0.0,0.0,4.031,4.031,4.031,4.1093,4.268,4.2757,4.3618,4.5323,4.5457,4.5475,4.5514,4.5568,0.0,0.0,0.0,0.0,0.0,4.5457,4.5419,4.5418,4.5319,4.5235,4.5125,4.5235,4.5125,4.4914,0.0,0.0,0.0,0.0,0.0,0.0,0.0,0.0,0.0,0.0,2.0005,2.0341,2.0192,2.0429,2.0777,0.0,0.0,0.0,0.0,0.0,0.0,0.0,0.0,0.0,2.0376,2.1661,2.3276,2.5226,2.6558,2.8209,3.0062,2.8946,2.7621,2.614,2.4905,2.3511,0.0,0.0,0.0,0.0,2.446,2.4826,0.0,0.0,0.0,0.0,2.5031,2.5356,0.0,0.0,0.0,0.0,0.0,0.0,0.0,0.0,2.7027,2.7947,2.8433,0.0,3.0734,2.9829,3.0468,3.101,0.0,3.0647,3.1172,3.0348,2.8807,2.8322,3.0647,2.9884,2.9503,3.1386,3.0667,3.0978,3.4129,3.631,0.0,3.6654,0.0,0.0,0.0,0.0,0.0,0.0,0.0,0.0,0.0,0.0,4.031,4.031,4.031,4.0788,4.1895,4.2489,4.333,4.4422,4.5093,4.5419,4.5419,4.5475,0.0,0.0,0.0,0.0,4.5532,4.5475,4.5495,4.5477,4.5381,4.5301,4.5197,4.5277,4.5103,4.484,0.0,0.0,0.0,0.0,0.0,0.0,0.0,0.0,0.0,0.0,1.9945,2.016,1.9375,2.0076,2.0619,0.0,0.0,0.0,0.0,0.0,0.0,0.0,0.0,2.0409,2.0342,2.1636,2.3357,2.5468,2.6839,2.8574,3.0661,2.9886,2.8641,2.7016,2.5133,2.3798,0.0,0.0,0.0,2.4269,2.4331,0.0,0.0,0.0,0.0,0.0,2.4826,2.5201,0.0,2.5899,2.6601,2.7156,0.0,0.0,0.0,0.0,2.6016,2.6731,2.7215,2.9485,3.152,3.0671,3.1121,3.159,3.0836,3.0715,3.0632,3.0285,2.8821,2.8387,3.092,3.0028,2.9723,3.218,3.1851,3.221,0.0,0.0,3.9315,3.8393,0.0,0.0,0.0,0.0,0.0,0.0,0.0,0.0,0.0,0.0,4.031,4.031,4.031,4.0711,4.1552,4.2393,4.3234,4.4057,4.4977,4.54,4.54,4.5457,0.0,0.0,0.0,0.0,4.5457,4.5475,4.5475,4.5438,4.5438,4.54,4.5321,4.5339,4.5148,4.4952,0.0,0.0,0.0,0.0,0.0,0.0,0.0,0.0,0.0,0.0,0.0,0.0,0.0,0.0,0.0,0.0,0.0,0.0,0.0,0.0,0.0,0.0,2.0445,2.0515,2.0725,2.1403,2.3033,2.5592,2.6652,2.8341,3.0582,3.0405,2.9423,2.7643,2.5094,2.3832,2.3606,0.0,0.0,2.436,2.3846,0.0,0.0,0.0,0.0,0.0,0.0,0.0,0.0,2.6472,2.7188,2.7436,2.6956,0.0,0.0,0.0,0.0,0.0,2.6123,2.8964,3.1695,3.1053,3.1656,3.2239,3.1606,3.0902,3.0402,3.0509,2.9188,2.8755,3.1302,3.0515,3.0476,3.3509,3.3341,0.0,3.5458,3.7941,3.9526,0.0,0.0,0.0,0.0,0.0,0.0,0.0,0.0,0.0,0.0,0.0,0.0,4.031,4.031,4.0616,4.1304,4.2297,4.3138,4.3825,4.486,4.538,4.54,4.5477,4.5457,0.0,0.0,0.0,4.54,4.5438,4.5438,4.54,4.5438,4.5438,4.5381,4.538,4.529,4.5314,0.0,0.0,0.0,0.0,0.0,0.0,0.0,0.0,0.0,0.0,0.0,0.0,0.0,0.0,0.0,0.0,0.0,0.0,0.0,0.0,0.0,2.0579,2.0456,2.1078,2.2551,2.2604,2.3882,2.652,2.8104,2.9485,3.0621,3.1174,3.0112,2.7587,2.6242,2.487,2.3661,2.4264,0.0,2.2803,2.3369,0.0,0.0,0.0,0.0,0.0,0.0,0.0,0.0,2.5326,2.6616,2.8029,2.5838,0.0,0.0,0.0,0.0,0.0,2.6688,2.8621,3.0147,3.0034,3.1202,3.2372,3.2275,3.2068,3.1992,3.2134,3.0798,3.0411,3.2978,3.2768,3.2598,0.0,0.0,3.344,0.0,0.0,0.0,0.0,0.0,0.0,0.0,0.0,0.0,0.0,0.0,0.0,0.0,0.0,0.0,4.0272,4.031,4.0348,4.0501,4.203,4.287,4.2985,4.4572,4.5357,4.5418,4.5418,4.5419,0.0,0.0,4.5419,4.5418,4.5418,4.5418,4.5418,4.5418,4.5418,4.5418,4.5418,4.5671,4.6215,0.0,0.0,0.0,0.0,0.0,0.0,0.0,0.0,0.0,0.0,0.0,0.0,0.0,0.0,0.0,0.0,0.0,0.0,0.0,0.0,2.1003,2.1901,2.1872,2.2232,2.2991,2.3779,2.5473,2.8096,2.938,3.0675,3.1942,3.0837,2.932,2.7376,2.5466,2.4473,2.4143,2.3521,2.3131,2.2905,0.0,0.0,0.0,0.0,0.0,0.0,0.0,0.0,0.0,0.0,2.6563,2.7619,2.5988,0.0,0.0,0.0,0.0,0.0,2.5678,2.7796,2.979,2.981,3.1467,3.309,3.3108,3.2711,3.2389,3.2514,3.1939,3.1933,3.3549,0.0,3.3142,3.4426,0.0,0.0,0.0,0.0,0.0,0.0,0.0,0.0,0.0,0.0,0.0,0.0,0.0,0.0,0.0,0.0,0.0,0.0,4.031,4.031,4.031,4.1953,4.2794,4.2832,4.4513,4.5357,4.5398,4.5398,4.5418,4.54,0.0,4.538,4.5357,4.5398,4.5398,4.5398,4.5398,4.5398,4.5416,4.5687,4.6187,4.6895,0.0,0.0,0.0,0.0,0.0,0.0,0.0,0.0,0.0,0.0,0.0,0.0,0.0,0.0,0.0,0.0,0.0,0.0,0.0,2.0612,2.1276,2.276,2.3163,2.3649,2.4167,2.5181,2.6987,2.9612,3.0463,3.1632,3.3063,3.0616,2.8779,2.7342,2.4912,2.3945,2.4076,2.2622,2.2188,2.2421,0.0,0.0,0.0,0.0,0.0,0.0,0.0,0.0,0.0,0.0,0.0,0.0,0.0,0.0,0.0,2.5979,2.5458,2.5383,2.5775,2.78,2.983,3.0036,3.2033,3.3942,3.3942,3.3412,3.2996,3.3316,3.339,3.3615,0.0,3.3451,0.0,3.5157,0.0,0.0,0.0,0.0,0.0,0.0,0.0,0.0,0.0,0.0,0.0,0.0,0.0,0.0,0.0,0.0,0.0,0.0,4.031,4.031,4.031,4.1953,4.2794,4.2832,4.4513,4.5337,4.5378,4.5378,4.5378,4.5378,4.5378,4.5357,4.5277,4.5378,4.5378,4.5378,4.5378,4.5378,4.543,4.6149,4.6743,4.7325,0.0,0.0,0.0,0.0,0.0,0.0,0.0,0.0,0.0,0.0,0.0,0.0,0.0,0.0,0.0,0.0,0.0,0.0,0.0,2.0612,2.1003,2.1938,2.3435,2.5322,2.7683,2.7009,2.7904,3.052,3.1321,3.2171,3.3063,3.1264,2.9496,2.7778,2.5716,2.3967,2.2526,2.2173,2.1154,1.9921,2.1479,0.0,0.0,0.0,0.0,0.0,0.0,0.0,0.0,0.0,0.0,0.0,0.0,0.0,2.8382,2.8269,2.7633,2.739,2.8984,2.9604,2.9999,3.0804,3.2826,3.4614,3.4614,3.4534,3.468,3.5469,3.5706,0.0,0.0,3.4055,3.3346,3.5889,0.0,0.0,0.0,0.0,0.0,0.0,0.0,0.0,0.0,0.0,0.0,0.0,0.0,0.0,0.0,0.0,0.0,0.0,0.0,4.031,4.031,4.1953,4.2794,4.2832,4.4513,4.5277,4.5337,4.5337,4.5337,4.5337,4.5337,4.5277,4.5277,4.5337,4.5337,4.5337,4.5337,4.5213,4.5293,4.6784,4.7273,4.7401,0.0,0.0,0.0,0.0,0.0,0.0,0.0,0.0,0.0,0.0,0.0,2.0539,2.0578,0.0,0.0,0.0,0.0,0.0,0.0,2.0612,2.1198,2.2603,2.3747,2.5036,2.6523,2.7706,2.9293,3.1352,3.2182,3.2491,3.2241,3.053,2.9081,2.7798,2.5351,2.441,2.4478,2.2253,2.1481,2.1676,2.0893,2.0206,0.0,0.0,0.0,0.0,0.0,0.0,0.0,0.0,2.5567,2.6767,2.6019,2.7792,2.981,2.8177,2.7466,2.7336,2.8009,2.8967,2.9886,3.022,3.2543,3.4353,3.2808,3.328,3.3827,3.309,3.4187,0.0,0.0,0.0,3.3577,0.0,0.0,0.0,0.0,0.0,0.0,0.0,0.0,0.0,0.0,0.0,0.0,0.0,0.0,0.0,0.0,0.0,0.0,0.0,0.0,4.031,4.031,4.1953,4.2794,4.2832,4.4513,4.5277,4.5277,4.5277,4.5277,4.5277,4.5277,4.5277,4.5277,4.5277,4.5277,4.5277,4.5277,4.5475,4.5859,4.6999,4.7597,4.8002,0.0,0.0,0.0,0.0,0.0,0.0,0.0,0.0,2.0443,0.0,0.0,0.0,0.0,2.0612,0.0,0.0,0.0,0.0,2.0612,2.0612,2.1237,2.2642,2.3542,2.4491,2.5566,2.7795,2.9627,3.1004,3.2153,3.2231,3.137,2.9931,2.8792,2.7846,2.5663,2.5197,2.5846,2.2948,2.207,2.2535,2.1248,2.0284,0.0,0.0,0.0,0.0,0.0,0.0,0.0,0.0,2.4844,2.6424,2.6101,2.8341,3.0696,2.8911,2.8555,2.865,2.8107,2.9213,3.0471,3.0243,3.2524,3.4091,3.1334,3.2239,3.3223,3.1731,3.2864,3.4434,3.5514,0.0,0.0,0.0,0.0,0.0,0.0,0.0,0.0,0.0,0.0,0.0,0.0,0.0,0.0,0.0,0.0,0.0,0.0,0.0,0.0,0.0,0.0,4.031,4.031,4.1686,4.2526,4.2832,4.4208,4.501,4.5277,4.5277,4.5277,4.5277,4.5277,4.5277,4.5277,4.5277,4.5277,4.5277,4.5277,4.562,4.6203,4.7087,4.7758,4.8326,0.0,0.0,0.0,0.0,0.0,0.0,0.0,0.0,2.0495,2.0511,2.0484,0.0,0.0,0.0,0.0,0.0,0.0,0.0,2.0612,2.0612,2.1003,2.186,2.2644,2.3864,2.5544,2.7288,2.8549,2.9282,3.0965,3.1332,3.0472,2.961,2.8772,2.7961,2.6891,2.6288,2.601,2.4247,2.2815,2.1788,2.2734,2.1655,1.9722,0.0,0.0,0.0,0.0,0.0,0.0,0.0,2.3986,2.4974,2.7721,2.9642,3.0922,3.096,3.1505,3.1709,3.0038,3.0787,3.1894,3.1186,3.2901,3.3883,3.0542,3.1694,3.326,3.2372,3.2298,3.3412,3.6637,3.4622,0.0,0.0,0.0,0.0,0.0,0.0,0.0,0.0,0.0,0.0,0.0,0.0,0.0,0.0,0.0,0.0,0.0,0.0,0.0,0.0,0.0,0.0,4.031,4.1113,4.1915,4.2794,4.3634,4.4475,4.5277,4.5277,4.5277,4.5277,4.5277,4.5277,4.5277,4.5277,4.5277,4.5277,4.5277,4.562,4.6203,4.7087,4.7758,4.8326,0.0,0.0,0.0,0.0,0.0,0.0,0.0,0.0,2.0494,2.05,2.0503,0.0,0.0,0.0,0.0,0.0,0.0,0.0,2.0612,2.0609,2.0726,2.0964,2.1784,2.2456,2.2929,2.5155,2.7301,2.9319,2.9737,2.9844,2.9564,2.8705,2.8502,2.88,2.7862,2.7268,2.6813,2.5135,2.4083,2.3456,2.257,2.1791,2.1189,0.0,0.0,0.0,0.0,0.0,0.0,0.0,0.0,0.0,2.6047,2.8614,3.0732,3.0171,3.0545,3.0747,2.9139,2.9083,2.9439,2.9232,3.1562,3.3014,2.9639,3.0882,3.2656,0.0,3.226,3.275,3.4393,0.0,0.0,0.0,0.0,0.0,0.0,0.0,0.0,0.0,0.0,0.0,0.0,0.0,0.0,0.0,0.0,0.0,0.0,0.0,0.0,0.0,0.0,0.0,4.031,4.0936,4.1736,4.2794,4.3634,4.4475,4.5277,4.5277,4.5277,4.5277,4.5277,4.5277,4.5277,4.5277,4.5277,4.5277,4.5277,4.562,4.6203,4.7087,4.7758,4.8326,0.0,0.0,0.0,0.0,0.0,0.0,2.0461,2.0509,2.049,2.0468,2.0467,2.0456,0.0,0.0,0.0,2.0516,2.0564,0.0,2.0612,2.0611,2.0611,2.0612,2.1432,2.2179,2.281,2.4629,2.6139,2.7301,2.7915,2.802,2.7702,2.7817,2.8193,2.8733,2.8887,2.8552,2.7856,2.6515,2.5544,2.4799,2.3797,2.2984,2.2358,0.0,0.0,0.0,0.0,0.0,0.0,0.0,0.0,0.0,2.4398,2.6241,2.7867,2.8054,2.8877,2.9586,2.8931,2.9249,2.9849,3.0206,3.1917,3.2937,3.096,3.0693,0.0,0.0,3.1487,3.1261,3.2827,3.2411,0.0,0.0,0.0,0.0,0.0,0.0,0.0,0.0,0.0,0.0,0.0,0.0,0.0,0.0,0.0,0.0,0.0,0.0,0.0,0.0,0.0,0.0,4.0196,4.0532,4.1258,4.2317,4.3138,4.3978,4.4822,4.5145,4.5277,4.5277,4.5277,4.5277,4.5277,4.5277,4.5256,4.5213,4.5256,4.5597,4.6126,4.7087,4.7758,4.8326,0.0,0.0,1.6813,1.7738,0.0,0.0,2.0386,2.0494,2.0468,2.0428,2.041,2.0416,0.0,0.0,0.0,2.0516,2.0568,2.0612,2.0612,2.0612,2.0612,2.0612,2.151,2.2719,2.4241,2.5078,2.5029,2.4066,2.568,2.6116,2.5434,2.7046,2.7904,2.8202,2.9728,2.9786,2.8747,2.7917,2.6844,2.5677,2.5677,2.4717,2.3283,2.3135,0.0,0.0,0.0,0.0,0.0,0.0,0.0,0.0,2.2906,2.3225,2.3444,2.5069,2.6803,2.8278,2.8909,3.0288,3.1763,3.2627,3.2884,3.2989,3.3217,3.0884,2.9368,3.1581,0.0,2.9406,3.1729,0.0,0.0,0.0,0.0,0.0,0.0,0.0,0.0,0.0,0.0,0.0,0.0,0.0,0.0,0.0,0.0,0.0,0.0,0.0,0.0,0.0,0.0,0.0,4.0096,4.0076,4.0576,0.0,4.2374,4.3234,4.4135,4.4916,4.5277,4.5277,4.5277,4.5277,4.5277,4.5277,4.5213,4.5125,4.5213,4.5489,4.5946,4.6997,4.7655,4.8213,0.0,0.0,1.7668,1.7851,0.0,0.0,2.0443,2.0543,2.0507,2.0497,2.0422,2.0418,2.0434,2.0456,0.0,2.0506,2.056,2.0609,2.0612,2.0609,2.0609,2.0612,2.2057,2.2994,2.3384,2.4219,2.3903,2.2337,2.3961,2.4941,2.5412,2.6455,2.7691,2.9052,2.939,2.8961,2.7879,2.7012,2.5929,2.4869,2.4869,2.4497,2.386,2.2708,2.1972,0.0,0.0,0.0,0.0,0.0,0.0,0.0,2.2506,2.2284,2.1528,2.3326,2.541,2.7008,2.6619,2.766,2.913,2.9986,2.9847,2.9795,3.1089,3.0434,2.9677,3.017,2.9813,2.9644,0.0,0.0,0.0,0.0,0.0,0.0,0.0,0.0,0.0,0.0,0.0,0.0,0.0,0.0,0.0,0.0,0.0,0.0,0.0,0.0,0.0,0.0,0.0,3.9693,3.9933,3.9717,4.0246,0.0,4.2273,4.3153,4.4135,4.4916,4.5277,4.5277,4.5277,4.5277,4.5277,4.5192,4.5125,4.5103,4.5033,4.4965,4.5127,4.6701,4.7231,4.7462,0.0,0.0,0.0,0.0,0.0,0.0,0.0,0.0,2.0469,2.0482,2.0448,2.0409,2.0381,2.0443,0.0,0.0,2.0516,2.0562,2.0566,2.0566,2.0802,2.1198,2.2057,2.2525,2.2525,2.2965,2.2539,2.1171,2.2026,2.3042,2.4244,2.5901,2.7382,2.8637,2.9081,2.8492,2.7155,2.6705,2.5805,2.4731,2.516,2.4879,2.4137,2.2953,2.1943,2.0996,1.9795,0.0,0.0,0.0,0.0,0.0,0.0,0.0,1.939,2.1824,2.371,2.519,2.6005,2.7099,2.8157,2.8683,2.8576,2.8746,3.0412,3.0208,2.9682,2.9683,2.9664,2.9701,0.0,0.0,0.0,0.0,0.0,0.0,0.0,0.0,0.0,0.0,0.0,0.0,0.0,0.0,0.0,0.0,0.0,0.0,0.0,0.0,0.0,0.0,3.8818,3.9637,3.9785,3.967,3.9989,4.0726,4.1584,4.2733,4.4135,4.4916,4.5277,4.5277,4.5277,4.5256,4.5192,4.5125,4.5033,4.4914,4.4914,4.4789,4.4831,4.6571,4.7118,4.7296,0.0,0.0,0.0,0.0,0.0,0.0,0.0,0.0,0.0,2.0482,2.0448,2.0413,2.0425,2.0482,2.0508,0.0,0.0,0.0,2.0516,2.0562,2.0996,2.1856,2.1899,2.1938,2.2094,2.1977,2.1517,2.0742,2.0419,2.1084,2.2731,2.5275,2.7073,2.8174,2.8763,2.8136,2.6583,2.636,2.551,2.4431,2.5191,2.4873,2.3823,2.2973,2.1758,2.0441,1.9617,1.9323,1.936,1.9617,0.0,0.0,0.0,0.0,1.7937,2.0352,2.1894,2.3289,2.5207,2.6613,2.7544,2.7587,2.7811,2.8409,2.9831,2.9776,2.9439,2.9589,2.9664,0.0,0.0,0.0,0.0,0.0,0.0,0.0,0.0,0.0,0.0,0.0,0.0,0.0,0.0,0.0,0.0,0.0,0.0,0.0,3.4788,0.0,3.7062,3.7212,3.8611,3.9476,3.9599,3.9647,3.9762,3.9975,4.1068,4.2466,4.4075,4.4895,4.5256,4.5277,4.5256,4.5192,4.5103,4.5057,4.4914,4.4712,4.4815,4.4712,4.4684,4.6365,4.7033,4.7316,0.0,0.0,0.0,0.0,0.0,0.0,0.0,0.0,0.0,0.0,2.0425,2.0439,2.0482,2.0495,2.0515,2.0503,2.0514,2.0516,2.0516,0.0,0.0,2.1762,2.1815,2.217,2.291,2.2248,2.1823,2.1709,2.0156,2.0217,2.1896,2.4413,2.682,2.908,2.8386,2.7547,2.6583,2.506,2.3743,2.2652,2.2939,2.2778,2.2216,2.1496,2.0997,2.0641,1.9641,1.9323,1.9507,2.0972,2.1487,0.0,0.0,0.0,1.888,1.8572,2.0087,2.1823,2.1521,2.3685,2.5925,2.533,2.6284,2.7376,2.753,0.0,2.8783,0.0,0.0,0.0,0.0,0.0,0.0,0.0,0.0,0.0,0.0,0.0,0.0,0.0,0.0,0.0,0.0,0.0,0.0,0.0,0.0,0.0,3.4788,3.5635,3.6355,3.6857,3.8,3.8777,3.9165,3.9464,3.9661,3.9845,4.1532,4.2867,4.3878,4.4722,4.5192,4.5277,4.517,4.5125,4.508,4.4865,4.4738,4.4685,4.4578,4.4524,4.4608,4.5576,4.6422,4.7203,0.0,0.0,0.0,0.0,0.0,0.0,0.0,0.0,0.0,0.0,0.0,2.0475,2.0515,2.0515,2.0483,2.05,2.0506,2.0509,2.0511,2.0514,2.0711,2.106,2.1067,2.1267,2.1698,2.1349,2.1156,2.1159,1.9375,1.983,2.2449,2.3508,2.536,2.7788,2.7885,2.7171,2.5851,2.4619,2.315,2.173,2.2315,2.2615,2.2576,2.1324,2.1079,2.1195,1.9795,1.9323,1.9485,2.0849,2.1242,2.1216,2.1353,0.0,0.0,0.0,2.0572,2.1842,2.253,2.3263,2.3979,2.4526,2.5864,2.699,2.6916,2.7922,2.9024,2.9416,0.0,0.0,0.0,0.0,0.0,0.0,0.0,0.0,0.0,0.0,0.0,0.0,0.0,0.0,0.0,0.0,0.0,0.0,0.0,3.4647,3.4747,3.5539,3.6076,3.6348,3.7671,3.8512,3.8702,3.9289,3.9674,3.9823,4.151,4.2602,4.3111,4.4402,4.5057,4.5192,4.5125,4.5057,4.4986,4.4789,4.4659,4.4578,4.4524,4.4496,4.4608,4.5397,4.6309,4.7259,0.0,0.0,0.0,0.0,0.0,0.0,0.0,0.0,0.0,0.0,0.0,2.0498,2.048,0.0,0.0,0.0,2.049,2.0494,2.05,2.0503,2.0506,2.0511,2.0514,2.0519,2.0562,2.0562,2.0566,2.0611,1.8787,1.968,2.2991,2.2959,2.437,2.6969,2.7855,2.7267,2.5553,2.4532,2.3103,2.1602,2.2293,2.2816,2.3055,2.2412,2.2212,2.2036,2.0299,1.9678,1.9812,2.0396,2.0807,2.1129,2.1331,2.1229,0.0,0.0,0.0,2.1369,2.3598,2.3483,2.3092,2.4842,2.6445,2.7494,0.0,0.0,2.8994,0.0,0.0,0.0,0.0,0.0,0.0,0.0,0.0,0.0,0.0,0.0,0.0,0.0,0.0,0.0,0.0,0.0,0.0,0.0,0.0,3.4604,3.4706,3.527,3.5663,3.5851,3.7318,3.816,3.8276,3.9164,3.9674,3.9777,4.1203,4.2044,4.245,4.3905,4.4749,4.501,4.501,4.4962,4.4865,4.4712,4.4578,4.4496,4.4496,4.4496,4.4571,4.5172,4.6186,4.7277,0.0,0.0,0.0,0.0,0.0,0.0,0.0,0.0,0.0,0.0,0.0,2.0467,2.0395,2.042,2.0434,2.0508,2.0508,2.0515,2.0483,2.05,2.05,2.0487,2.0509,0.0,2.0506,2.0514,2.0521,2.0605,1.8851,1.9726,2.2991,2.3002,2.4736,2.7865,2.8741,2.8163,2.6429,2.4793,2.3487,2.2533,2.2728,2.2729,2.2871,2.508,2.4912,2.3256,2.131,0.0,0.0,0.0,0.0,0.0,0.0,0.0,2.1714,0.0,0.0,0.0,2.2804,2.3714,2.4258,2.6503,2.8324,2.9289,0.0,0.0,0.0,0.0,0.0,0.0,0.0,0.0,0.0,0.0,0.0,0.0,0.0,0.0,0.0,0.0,0.0,0.0,0.0,0.0,0.0,0.0,0.0,3.4604,3.4706,3.4743,3.4996,3.5501,3.6648,3.7488,3.7925,3.9052,3.9626,3.9712,4.0578,4.1368,4.2146,4.3177,4.4071,4.4738,4.4738,4.4738,4.4712,4.4551,4.4496,4.4496,4.4496,4.4496,4.4533,4.4571,4.5697,4.7202,0.0,0.0,0.0,0.0,0.0,0.0,0.0,0.0,0.0,0.0,0.0,0.0,0.0,2.0473,2.0478,2.0487,2.0491,2.0491,2.0495,2.0504,2.05,2.0443,2.0472,2.0487,2.0483,2.0503,2.0514,2.0521,1.8847,1.9177,2.1398,2.1939,2.3076,2.4779,2.7286,2.7701,2.6448,2.4206,2.3063,2.2681,2.2179,2.3525,2.5726,2.4296,0.0,0.0,0.0,0.0,0.0,0.0,0.0,0.0,0.0,0.0,0.0,0.0,1.9972,2.0634,2.246,2.3381,2.4307,2.6115,2.7743,2.8891,2.8771,2.9641,3.0383,0.0,0.0,0.0,0.0,0.0,0.0,0.0,0.0,0.0,0.0,0.0,0.0,0.0,0.0,0.0,0.0,0.0,0.0,0.0,0.0,0.0,3.4706,3.4747,3.4819,3.4974,3.6453,3.776,3.8989,3.9402,3.9602,3.9664,4.0428,4.1255,4.2081,4.2998,4.3853,4.4578,4.4578,4.4632,4.4685,4.4551,4.4496,4.4496,4.4496,4.4496,4.4496,4.4496,4.5632,4.7202,0.0,0.0,0.0,2.0483,0.0,2.0494,2.0509,2.0519,2.0502,2.0458,0.0,0.0,0.0,0.0,2.0459,2.0468,2.0473,2.0473,2.0517,2.0517,2.0473,2.042,2.0439,2.0491,2.0487,2.02,2.0218,2.0503,1.9107,1.9405,2.1367,2.1881,2.2721,2.3869,2.5768,2.6622,2.6477,2.4774,2.3928,2.362,2.3321,2.487,2.7213,0.0,0.0,0.0,0.0,0.0,0.0,0.0,0.0,0.0,0.0,0.0,0.0,0.0,0.0,0.0,2.2413,2.3858,2.5526,2.7015,2.8395,2.9506,2.9994,0.0,0.0,0.0,0.0,0.0,0.0,0.0,0.0,0.0,0.0,0.0,0.0,0.0,0.0,0.0,0.0,0.0,0.0,0.0,0.0,0.0,0.0,0.0,3.4747,3.4768,3.4881,3.5082,3.6475,3.7845,3.9126,3.9427,3.9602,3.9602,4.0165,4.0992,4.1991,4.2645,4.3472,4.4496,4.4496,4.4551,4.4632,4.4524,4.4496,4.4496,4.4496,4.4496,4.4496,4.4496,4.5632,4.7202,2.0508,2.0515,2.0483,2.0483,2.05,2.0482,2.05,2.0507,2.0465,2.0416,0.0,0.0,0.0,0.0,0.0,2.0454,2.0454,2.0464,2.0478,2.0517,2.0468,2.0415,2.0415,2.041,2.0394,1.9639,1.9662,2.0508,1.9666,2.0531,2.3005,2.2988,2.3833,2.5337,2.4478,2.4992,2.6497,0.0,2.6043,2.5428,0.0,2.6612,2.7236,0.0,0.0,0.0,2.6721,2.6365,0.0,2.3308,0.0,0.0,0.0,0.0,0.0,0.0,0.0,0.0,0.0,0.0,0.0,0.0,3.0364,0.0,3.1768,0.0,3.0655,0.0,0.0,0.0,0.0,0.0,0.0,0.0,0.0,0.0,0.0,0.0,0.0,0.0,0.0,0.0,0.0,0.0,0.0,0.0,0.0,3.4788,3.4788,3.4788,3.5145,3.5873,3.6738,3.7544,3.83,3.9164,3.9602,3.9602,3.9688,4.0491,4.198,4.207,4.2972,4.4496,4.4496,4.4496,4.4496,4.4496,4.4496,4.4496,4.4496,4.4496,4.4496,4.4496,4.5632,4.7174,2.0519,2.0487,2.0497,2.0497,2.05,2.0516,2.0501,2.0507,2.0504,0.0,0.0,0.0,2.0394,2.0942,2.1346,2.1351,2.1341,2.1058,2.0471,2.0416,2.0398,2.0334,2.0365,2.0383,2.0416,2.0161,2.0187,2.0448,2.0223,2.0519,2.1249,2.1796,2.2291,2.2799,2.3764,2.4068,2.389,2.3185,0.0,2.7007,2.4754,2.6824,0.0,0.0,0.0,0.0,0.0,2.7217,2.6848,0.0,2.5597,2.6939,0.0,0.0,0.0,0.0,0.0,0.0,2.4689,0.0,0.0,0.0,0.0,0.0,3.0141,2.928,2.8703,0.0,0.0,0.0,0.0,0.0,0.0,0.0,0.0,0.0,0.0,0.0,0.0,0.0,0.0,0.0,0.0,0.0,0.0,0.0,3.4886,3.4829,3.4788,3.4788,3.5145,3.5873,3.6738,3.7544,3.83,3.9164,3.9602,3.9602,3.9602,4.0165,4.1154,4.1755,4.2618,4.367,4.4271,4.4496,4.4496,4.4496,4.4496,4.4496,4.4496,4.4496,4.4496,4.4496,4.5604,4.7118,2.049,2.0497,2.0614,2.0961,2.1351,2.1567,2.156,2.1523,2.1399,0.0,0.0,0.0,2.0454,2.1501,2.1934,2.1235,2.1491,2.1318,2.0449,2.0392,2.0366,2.0301,2.0373,2.0392,2.0379,2.0022,2.0045,2.041,2.0085,2.0137,2.0491,2.0962,2.1171,2.1193,2.2177,2.252,2.2284,2.1398,0.0,0.0,2.5716,0.0,0.0,3.0805,3.1299,0.0,0.0,0.0,2.8415,2.6803,2.7144,0.0,0.0,0.0,0.0,0.0,0.0,0.0,0.0,0.0,0.0,0.0,0.0,0.0,3.0053,2.8897,2.8116,0.0,0.0,0.0,0.0,0.0,0.0,0.0,0.0,0.0,0.0,0.0,0.0,0.0,0.0,0.0,0.0,0.0,0.0,3.4713,3.4809,3.4809,3.4829,3.4809,3.5145,3.5932,3.676,3.7544,3.83,3.9164,3.9602,3.9602,3.9602,4.0027,4.0816,4.1642,4.2506,4.3332,4.4158,4.4496,4.4496,4.4496,4.4496,4.4496,4.4496,4.4496,4.4533,4.4871,4.5904,4.7127,0.0,2.05,2.077,2.1655,2.2438,2.3013,2.3125,2.3085,2.2799,0.0,2.1357,2.0852,2.09,2.2172,2.2361,2.0813,2.1291,2.1313,2.0449,2.0392,2.0373,2.0301,2.0366,2.0373,2.0308,1.9612,1.9635,2.0404,1.9672,1.9735,2.0482,2.0516,2.0429,2.0263,2.0377,2.0764,2.128,2.081,0.0,2.4237,2.7352,2.8772,0.0,0.0,3.2728,3.1314,3.0559,3.0191,2.9813,2.8257,2.8207,0.0,0.0,0.0,0.0,0.0,2.636,0.0,0.0,0.0,0.0,0.0,0.0,0.0,3.0529,2.9155,2.8071,0.0,0.0,0.0,0.0,0.0,0.0,0.0,0.0,0.0,0.0,0.0,0.0,0.0,0.0,0.0,0.0,3.2681,3.3548,3.4579,3.4689,3.4768,3.4906,3.4829,3.5166,3.5975,3.676,3.7544,3.83,3.9164,3.9602,3.9602,3.9602,3.9952,4.0703,4.1605,4.2431,4.3219,4.412,4.4496,4.4496,4.4496,4.4496,4.4496,4.4496,4.4496,4.4608,4.5397,4.628,4.7203,2.05,2.05,2.0773,2.1666,2.1939,2.2511,2.3906,2.3514,2.3505,2.4681,2.4073,2.3524,2.3577,2.3213,2.2863,2.26,2.2037,2.1313,2.0471,2.041,2.0392,2.0373,2.0379,2.0392,2.0377,2.0243,2.0231,2.0386,2.0228,2.0244,2.0427,2.0452,2.0131,1.9451,2.0187,2.0143,1.9689,0.0,0.0,2.3195,2.3868,0.0,2.8307,2.8984,2.9873,3.0559,2.9041,2.8461,2.8405,2.8048,2.8048,2.8241,0.0,0.0,0.0,0.0,0.0,0.0,0.0,0.0,0.0,0.0,0.0,0.0,2.8618,2.6988,2.6173,0.0,0.0,0.0,0.0,0.0,0.0,0.0,0.0,0.0,0.0,0.0,0.0,0.0,0.0,0.0,0.0,3.1736,3.2639,3.359,3.4308,3.4747,3.4809,3.4809,3.5145,3.591,3.6738,3.7544,3.83,3.9164,3.9602,3.9602,3.9602,3.9677,3.9902,4.1393,4.2145,4.2355,4.3912,4.4551,4.4496,4.4496,4.4496,4.4496,4.4496,4.4496,4.4608,4.5397,4.6261,4.7154,2.05,2.05,2.0925,2.2208,2.3139,2.4141,2.5468,2.5625,2.562,2.5585,2.4851,2.4296,2.4312,2.3918,2.333,2.2464,2.1954,2.1318,2.0471,2.041,2.0392,2.0379,2.0398,2.041,2.0383,2.0427,2.0416,2.0379,2.0432,2.0427,2.0334,2.0464,2.0464,2.0466,2.0467,2.0475,2.0459,0.0,2.163,2.1894,2.4432,0.0,2.8083,2.8964,2.9853,3.0366,2.8625,2.7464,2.6884,2.7735,2.8014,0.0,0.0,3.052,3.0936,0.0,3.0443,3.162,0.0,0.0,0.0,3.1033,0.0,0.0,0.0,2.7,2.5914,2.8492,0.0,0.0,0.0,0.0,0.0,0.0,0.0,0.0,0.0,0.0,0.0,0.0,0.0,0.0,0.0,3.1054,3.188,3.3222,3.4132,3.4685,3.4747,3.4747,3.5313,3.6512,3.6964,3.7769,3.8939,3.9352,3.9602,3.9602,3.9602,3.9602,3.9677,4.1292,4.2044,4.213,4.381,4.4524,4.4496,4.4496,4.4496,4.4496,4.4496,4.4496,4.4646,4.5885,4.6636,4.7199,2.05,2.05,2.1003,2.2555,2.4113,2.5467,2.6522,2.7265,2.7261,2.6018,2.4963,2.4291,2.4307,2.3723,2.2897,2.1828,2.1245,2.0886,2.0676,2.0338,2.0088,1.9927,2.0228,2.0239,1.9918,2.0298,2.0482,2.0392,2.0443,2.0427,2.0314,2.042,2.0724,2.1191,2.0898,2.0994,2.1398,0.0,0.0,2.1926,0.0,2.7163,2.7232,2.9321,2.9901,2.9437,2.8006,2.6962,2.642,2.758,2.8315,2.8934,3.0017,3.1139,0.0,0.0,0.0,0.0,0.0,0.0,0.0,0.0,0.0,3.08,0.0,0.0,0.0,2.9586,0.0,0.0,0.0,0.0,0.0,0.0,0.0,0.0,0.0,0.0,0.0,0.0,0.0,0.0,0.0,3.0602,3.1592,3.3284,3.4142,3.468,3.491,3.491,3.5625,3.7152,3.7318,3.8122,3.9602,3.9602,3.9602,3.9602,3.9602,3.9677,3.9877,4.1367,4.2119,4.2355,4.3885,4.4524,4.4496,4.4496,4.4496,4.4496,4.4496,4.4496,4.4721,4.6373,4.7012,4.7237,2.05,2.05,2.0812,2.1783,2.2745,2.3937,2.5586,2.5932,2.6188,2.6684,2.5333,2.4307,0.0,0.0,0.0,0.0,0.0,0.0,2.141,0.0,1.8974,1.8227,1.9595,1.9721,1.8211,1.973,2.0454,2.0388,2.0394,2.0388,2.0404,2.0404,2.0072,1.9536,2.1004,0.0,0.0,0.0,2.2638,0.0,2.4989,2.4176,0.0,2.7078,2.7387,2.6033,2.5878,2.7116,2.878,0.0,2.9515,3.1139,0.0,3.1062,3.2638,0.0,0.0,0.0,0.0,0.0,0.0,0.0,3.325,0.0,0.0,0.0,2.9602,2.9231,0.0,0.0,0.0,0.0,0.0,0.0,0.0,0.0,0.0,0.0,0.0,0.0,0.0,0.0,0.0,0.0,3.2515,3.4143,3.4435,3.4877,3.5709,3.5747,3.6182,3.7084,3.7774,3.8638,3.9602,3.9602,3.9602,3.9602,3.9602,3.9952,4.0703,4.1695,4.2535,4.3219,4.4218,4.4605,4.4496,4.4496,4.4496,4.4496,4.4496,4.4496,4.4721,4.6373,4.7012,4.7237,2.05,2.05,2.0773,2.1669,2.2515,2.3863,2.6053,2.7657,2.8379,2.7696,2.74,0.0,0.0,0.0,0.0,0.0,0.0,2.0055,0.0,0.0,1.9419,2.0099,2.0283,2.0322,2.0109,2.0342,2.0443,2.0404,2.0394,2.0383,2.0328,2.0404,2.0806,2.1464,2.2719,0.0,2.2761,0.0,2.3573,0.0,0.0,0.0,0.0,2.7813,2.8431,2.6807,2.584,2.7155,2.9089,0.0,2.8625,0.0,0.0,0.0,0.0,0.0,0.0,0.0,0.0,0.0,0.0,0.0,0.0,0.0,3.0906,0.0,2.9778,0.0,0.0,0.0,0.0,0.0,0.0,0.0,0.0,0.0,0.0,0.0,0.0,0.0,0.0,0.0,0.0,0.0,0.0,0.0,0.0,3.3693,3.5027,3.4674,3.5259,3.7024,3.7437,3.8286,3.965,3.9602,3.9602,3.9688,3.9602,4.0027,4.0816,4.1694,4.2521,4.3332,4.4213,4.4551,4.4496,4.4496,4.4496,4.4496,4.4496,4.4496,4.4721,4.6373,4.7012,4.7237,2.05,2.05,2.0695,2.1318,2.217,2.3515,2.5845,2.7333,2.8042,2.7478,2.6948,0.0,2.4956,2.4241,0.0,0.0,2.126,2.0686,0.0,0.0,1.9347,2.0585,2.0471,2.0466,2.0642,2.0725,2.0632,2.0398,2.0394,2.051,2.0701,2.0531,2.139,2.3046,2.4193,2.4838,2.5117,0.0,2.5243,2.4195,2.4684,2.495,2.5337,2.8122,2.8702,2.7774,2.6111,2.731,2.9399,2.7658,2.8354,0.0,2.9437,0.0,0.0,0.0,0.0,0.0,3.346,0.0,0.0,0.0,0.0,0.0,0.0,0.0,0.0,0.0,0.0,0.0,0.0,0.0,0.0,0.0,0.0,0.0,0.0,0.0,0.0,0.0,0.0,0.0,0.0,0.0,0.0,0.0,0.0,0.0,3.5102,3.4073,3.4658,3.7324,3.7437,3.816,3.9674,3.9626,3.9626,3.9712,3.9626,4.014,4.1154,4.1755,4.2618,4.367,4.4298,4.4496,4.4496,4.4496,4.4496,4.4496,4.4496,4.4646,4.5021,4.6486,4.7012,4.7237,2.05,2.05,2.05,2.0539,2.1245,2.241,2.4131,2.3032,2.2865,2.5351,2.2105,0.0,0.0,0.0,0.0,0.0,0.0,2.0328,2.2898,0.0,1.7967,1.802,1.957,1.9662,0.0,2.041,2.1258,2.0394,2.0394,2.0847,2.174,2.0823,2.1333,2.308,2.4868,2.6071,2.6833,2.6867,2.8189,3.0107,2.7629,2.8122,3.0017,0.0,2.6652,2.7774,2.6111,0.0,0.0,2.8548,2.9631,0.0,0.0,0.0,0.0,0.0,0.0,0.0,0.0,0.0,0.0,3.1333,0.0,0.0,0.0,0.0,3.1718,0.0,0.0,0.0,0.0,0.0,0.0,0.0,0.0,0.0,0.0,0.0,0.0,0.0,0.0,0.0,0.0,0.0,0.0,0.0,0.0,0.0,3.6889,3.4755,3.4883,3.815,3.8263,3.87,3.9674,3.9626,3.9626,3.9712,3.9626,4.044,4.198,4.207,4.2972,4.4458,4.4551,4.4551,4.4496,4.4496,4.4496,4.4496,4.4496,4.4984,4.5772,4.6674,4.7012,4.7237,2.2211,2.2208,2.1854,2.0692,2.0739,2.1503,2.3198,2.4367,2.5169,0.0,0.0,0.0,0.0,2.4102,2.417,0.0,0.0,2.2384,2.3785,2.1172,0.0,0.0,0.0,2.1816,0.0,0.0,2.2946,2.21,2.2681,2.2865,2.26,2.2868,2.3314,2.405,2.6913,2.8056,0.0,0.0,0.0,0.0,0.0,2.7464,2.9553,0.0,0.0,2.7774,2.6111,2.7348,0.0,2.8393,2.9321,3.083,2.9669,2.9901,3.0559,3.025,3.1565,0.0,0.0,0.0,3.4577,3.2019,0.0,0.0,0.0,0.0,0.0,0.0,0.0,0.0,0.0,0.0,0.0,0.0,0.0,0.0,0.0,0.0,0.0,0.0,0.0,0.0,0.0,0.0,0.0,0.0,0.0,0.0,0.0,3.3006,3.3611,3.5784,3.6423,3.7671,3.9684,3.965,3.965,3.9722,4.0152,4.0966,4.1991,4.2607,4.3472,4.4496,4.4524,4.4496,4.4496,4.4496,4.4496,4.4496,4.4496,4.4984,4.581,4.6674,4.735,4.8025,2.264,2.2902,2.2738,2.162,2.1169,2.1418,2.2804,2.4128,0.0,0.0,2.5084,0.0,2.4302,0.0,2.5654,0.0,2.4014,2.3664,2.3859,2.1983,0.0,2.2508,2.2809,0.0,0.0,0.0,0.0,0.0,2.3714,2.4019,2.3482,2.3746,2.423,2.5002,2.8095,2.9391,2.9398,3.2792,3.1594,0.0,0.0,2.7271,0.0,0.0,2.7929,2.8238,0.0,2.7194,2.8702,2.7813,2.8896,3.0443,2.9553,2.9901,3.0482,2.9863,3.0675,3.1487,3.0318,3.1844,0.0,3.14,3.2202,0.0,3.1244,0.0,0.0,0.0,0.0,0.0,0.0,0.0,0.0,0.0,0.0,0.0,0.0,2.6736,0.0,0.0,0.0,0.0,0.0,0.0,0.0,0.0,0.0,0.0,0.0,0.0,3.384,3.6273,3.6934,3.8206,4.0146,4.0064,4.0064,4.0184,4.0603,4.1379,4.2506,4.3031,4.3745,4.4496,4.4496,4.4496,4.4496,4.4496,4.4496,4.4533,4.4834,4.5435,4.6223,4.6786,4.7725,4.8852,2.2013,2.2699,2.327,2.317,2.2302,0.0,0.0,0.0,2.2228,0.0,2.2833,2.2483,2.419,2.4408,2.4767,2.5532,2.4919,2.4101,2.3275,2.2357,0.0,0.0,2.2693,2.2721,2.1847,0.0,0.0,0.0,0.0,2.433,2.4375,2.3642,2.4156,2.5827,2.8418,0.0,3.1007,3.4441,3.3963,3.0676,2.8008,2.8006,2.936,2.758,0.0,2.9166,2.734,2.7271,2.789,2.7078,2.847,3.0404,2.9592,2.994,3.0288,2.8548,2.8664,2.8973,2.7224,2.8702,3.0482,2.9592,0.0,0.0,0.0,0.0,3.0741,0.0,0.0,0.0,0.0,0.0,0.0,0.0,0.0,0.0,0.0,0.0,0.0,0.0,0.0,0.0,0.0,0.0,0.0,0.0,0.0,0.0,0.0,0.0,3.5388,3.9301,3.9575,4.0075,4.1014,4.0892,4.0892,4.1014,4.0904,4.168,4.3219,4.3332,4.3745,4.4458,4.4496,4.4496,4.4496,4.4496,4.4533,4.4646,4.5397,4.6261,4.7049,4.7124,4.8176,4.9678,2.4767,2.5347,2.5541,0.0,2.222,2.1283,0.0,0.0,0.0,0.0,2.3002,2.3408,2.5074,2.5317,2.5442,2.5671,2.5454,0.0,0.0,0.0,0.0,2.366,2.4485,2.4508,2.3659,2.4275,0.0,2.3636,0.0,2.4321,2.4417,2.5457,2.585,2.5835,2.9042,3.0572,3.1008,3.4443,3.4969,3.334,3.1301,3.1526,0.0,0.0,3.025,3.0791,2.7765,2.7271,2.8045,2.847,2.9089,2.9708,3.0133,3.0404,3.0366,2.9282,2.9592,2.9901,2.8122,3.0017,3.2106,3.0636,3.1526,3.2493,0.0,0.0,0.0,0.0,0.0,0.0,0.0,0.0,0.0,0.0,0.0,0.0,0.0,0.0,0.0,2.941,0.0,0.0,0.0,0.0,0.0,0.0,0.0,0.0,0.0,0.0,0.0,3.6784,3.807,3.9482,4.1047,4.0928,4.0941,4.1014,4.1468,4.1942,4.2393,4.3686,4.4025,4.3632,4.4288,4.4524,4.4496,4.4496,4.4871,4.5397,4.5622,4.6599,4.795,4.8626,4.949,5.0504,2.6126,2.7478,0.0,2.7259,0.0,0.0,2.3937,0.0,0.0,2.2916,2.3084,0.0,2.4417,2.5204,2.5675,2.5667,2.561,0.0,2.5056,0.0,0.0,2.4321,2.5128,2.5206,2.4355,2.4734,0.0,2.3227,0.0,2.4529,2.3871,2.5577,2.6328,2.6388,2.9088,3.046,3.0973,3.3658,3.4681,3.4365,3.2532,0.0,0.0,3.0868,3.0559,3.0984,2.8664,2.8161,2.8625,2.9128,2.9553,2.994,3.0443,3.0598,3.0443,2.9553,2.9631,2.9824,2.8818,2.9979,3.1294,3.0752,3.1565,3.229,3.1487,3.23,3.2841,0.0,0.0,0.0,0.0,0.0,0.0,0.0,0.0,0.0,0.0,0.0,0.0,0.0,0.0,0.0,0.0,0.0,0.0,0.0,0.0,0.0,0.0,0.0,0.0,3.643,3.8033,3.9736,4.1553,4.1493,4.2222,4.3679,4.2961,4.2983,4.3632,4.3939,4.3788,4.3332,4.424,4.4551,4.4496,4.4496,4.4984,4.5772,4.6523,4.7604,4.8912,4.9746,5.0091,5.0278,2.7055,2.9296,0.0,0.0,0.0,0.0,0.0,2.4954,0.0,2.3182,0.0,2.3439,2.3439,2.4775,2.5667,2.561,0.0,2.5294,2.4524,2.5167,2.526,2.452,2.5195,2.5282,2.4588,2.5095,0.0,0.0,0.0,2.4394,2.2818,2.4762,2.6022,2.6743,2.8704,3.0231,0.0,3.2739,3.3868,3.4583,3.2473,3.1719,3.1603,2.9824,2.9669,3.0327,2.9553,2.936,2.9476,2.9476,2.9979,3.0598,3.0482,3.052,3.0404,2.9399,2.9282,2.9476,2.9476,2.9553,2.9824,3.0714,3.1449,3.1797,3.1101,3.1565,3.2145,3.2145,3.2841,3.345,0.0,0.0,0.0,0.0,0.0,0.0,0.0,0.0,0.0,0.0,0.0,0.0,0.0,0.0,0.0,0.0,0.0,0.0,0.0,0.0,0.0,3.7167,3.8587,0.0,4.2159,0.0,4.3777,4.6902,4.453,4.4165,4.5538,4.4078,4.3375,4.3359,4.424,4.4551,4.4496,4.4496,4.5059,4.6064,4.7755,4.8875,4.9687,5.0454,5.0197,4.9671,2.9741,0.0,0.0,0.0,0.0,3.0458,2.9905,2.5506,2.2449,2.3029,2.4333,2.5247,2.5247,2.5468,2.5615,2.561,2.559,0.0,0.0,0.0,0.0,2.5481,2.5598,2.5598,2.5394,2.4191,2.2983,0.0,0.0,0.0,2.1028,2.4225,2.5403,2.4985,2.8188,3.1242,3.3983,3.3498,0.0,3.5313,3.2089,3.1224,3.1526,2.9128,2.878,2.9515,2.936,2.9747,3.0366,3.0366,3.0482,3.0482,2.9747,3.0017,3.0288,2.8702,2.9244,3.0366,3.0366,3.0868,3.1565,3.2444,3.2754,3.2831,3.2676,3.3344,3.3924,3.3924,3.4621,3.524,3.524,0.0,0.0,0.0,0.0,0.0,0.0,0.0,0.0,0.0,0.0,0.0,0.0,0.0,0.0,0.0,0.0,0.0,0.0,0.0,0.0,0.0,0.0,0.0,0.0,0.0,0.0,4.6008,4.4213,4.3837,4.4766,4.3868,4.3453,4.3439,4.4282,4.4605,4.4496,4.4551,4.5481,4.7024,4.8708,4.9461,4.9717,5.0576,5.032,4.977,0.0,0.0,0.0,0.0,0.0,0.0,0.0,2.7231,0.0,2.3861,2.4434,2.4807,2.4386,2.5122,2.5619,2.561,2.5644,2.5839,2.6233,2.5892,2.6057,2.6965,2.6139,0.0,2.6256,2.4611,2.3089,2.1808,0.0,0.0,2.0555,2.2235,2.3725,2.5219,2.8693,3.1397,0.0,0.0,0.0,3.3064,3.1297,3.0582,3.0366,2.8664,2.9089,3.0559,3.0133,3.0791,3.1758,3.0907,3.0598,3.052,3.0095,3.025,3.052,3.0095,3.0559,3.1333,3.1758,3.2184,3.256,3.2986,3.346,3.377,3.377,3.4466,3.5085,3.5085,3.5394,3.5433,3.4505,3.2609,0.0,0.0,0.0,0.0,0.0,0.0,0.0,0.0,0.0,0.0,0.0,0.0,0.0,0.0,0.0,0.0,0.0,0.0,0.0,0.0,0.0,0.0,0.0,0.0,0.0,4.5688,4.3686,4.3348,4.4513,4.334,4.3001,4.3386,4.4334,4.4659,4.4571,4.5463,4.6318,4.724,4.8445,4.9227,4.9747,5.0538,5.035,4.9822,0.0,3.1194,0.0,0.0,3.2307,0.0,3.0121,2.9279,2.7852,2.5469,2.5114,2.4829,2.4014,2.5286,2.6135,2.5883,2.6091,2.6485,2.7128,2.6563,2.6805,2.8126,2.687,2.6476,2.7152,2.5658,2.4019,0.0,0.0,0.0,0.0,2.0984,2.271,0.0,0.0,0.0,0.0,0.0,3.1772,3.1018,3.0562,3.018,2.9851,2.9098,3.0056,3.1758,3.1294,3.199,3.2908,3.1565,3.1139,3.1101,3.0907,3.0984,3.1217,3.1681,3.1952,3.2261,3.3151,3.3383,3.3421,3.3615,3.4156,3.4659,3.4659,3.5201,3.5704,3.5704,3.5704,3.5162,3.3411,3.2029,0.0,0.0,0.0,0.0,0.0,0.0,0.0,0.0,0.0,0.0,0.0,0.0,0.0,0.0,0.0,0.0,0.0,0.0,0.0,0.0,0.0,3.8827,4.1268,0.0,4.3198,0.0,4.3224,4.3024,4.453,4.2925,4.2699,4.3691,4.4436,4.4685,4.4674,4.6486,4.7108,4.7005,4.8135,4.906,4.9834,5.0576,5.0463,5.007,0.0,0.0,0.0,0.0,0.0,0.0,0.0,3.1008,2.9841,2.8083,2.7811,2.7493,2.6633,2.7371,2.7634,2.6856,2.7517,2.7989,2.8062,2.8004,2.8043,2.8174,2.8043,2.8004,2.8096,2.7147,2.5831,0.0,0.0,0.0,0.0,0.0,0.0,0.0,0.0,0.0,0.0,2.9059,2.9996,3.1831,3.0195,3.038,3.167,3.1516,3.1603,3.1913,3.2599,3.2947,3.3063,3.2908,3.287,3.2715,3.1952,3.2222,3.2715,3.2029,3.2367,3.3189,3.404,3.4272,3.4466,3.524,3.551,3.5588,3.5588,3.5626,3.5704,3.5704,3.5704,3.5162,3.3411,3.2947,3.1952,0.0,0.0,0.0,0.0,0.0,0.0,0.0,0.0,0.0,0.0,0.0,0.0,0.0,0.0,0.0,0.0,0.0,0.0,3.3471,0.0,3.6878,3.8638,4.0891,0.0,4.4608,4.2844,4.3001,4.4811,4.2938,4.3077,4.4773,4.4636,4.4632,4.4874,4.7145,4.7316,4.6414,4.8702,4.9646,4.9892,5.0598,5.0862,5.09,0.0,0.0,0.0,0.0,0.0,0.0,0.0,3.0552,3.0471,2.9808,2.9253,2.8588,2.777,2.7988,2.8044,2.7697,2.8004,2.8432,2.8939,2.8481,2.8675,2.9713,2.8778,2.8428,2.8973,2.761,2.6329,0.0,0.0,0.0,0.0,0.0,0.0,0.0,0.0,2.8112,2.9601,2.9721,3.0429,3.1324,3.0562,3.094,3.1884,3.1313,3.2028,3.3344,3.3151,3.377,3.4659,3.4659,3.3963,3.3024,3.2676,3.2831,3.314,3.3305,3.3615,3.4079,3.493,3.5162,3.524,3.5626,3.5704,3.5704,3.5704,3.5704,3.5704,3.5704,3.5704,3.5472,3.4775,3.3808,3.3334,0.0,0.0,0.0,0.0,0.0,0.0,0.0,0.0,0.0,0.0,0.0,0.0,0.0,0.0,0.0,0.0,0.0,0.0,3.4906,0.0,3.8546,3.9385,4.126,4.2019,4.1717,4.1654,4.2253,4.3407,4.3308,4.39,4.5057,4.5382,4.5507,4.5658,4.7159,4.7386,4.697,4.8455,4.8994,4.9117,5.0409,5.09,5.1013,2.7683,0.0,2.8196,0.0,2.9148,2.9245,2.8907,2.9683,3.0273,3.0273,2.9991,2.948,2.8631,2.8787,2.8852,2.859,2.8805,2.9221,2.9844,2.9299,2.9489,3.072,2.9591,0.0,2.9824,2.8423,2.7259,2.6459,2.4705,0.0,0.0,0.0,0.0,0.0,2.8186,2.9166,2.9993,3.0577,3.1127,3.1639,3.1555,3.2186,3.3067,3.2368,3.3218,3.4698,3.4079,3.4659,3.5704,3.5704,3.4863,3.3867,3.3847,3.3847,3.3924,3.4293,3.4409,3.4525,3.5145,3.53,3.5377,3.5637,3.551,3.5394,3.5615,3.551,3.5394,3.5665,3.5704,3.5704,3.5704,3.4698,3.4505,3.64,0.0,0.0,0.0,0.0,0.0,0.0,2.9166,2.9012,3.1139,0.0,0.0,0.0,0.0,0.0,0.0,0.0,0.0,0.0,0.0,0.0,0.0,4.202,4.2069,4.0722,4.1169,4.1819,4.2595,4.3807,4.4781,4.5529,4.6187,4.6518,4.6681,4.7517,4.7682,4.7529,4.8521,4.905,4.9473,5.0856,5.1386,5.1566,2.811,2.7052,2.6677,2.8396,2.7404,2.6682,2.767,2.8666,2.9339,2.9339,3.0118,3.0347,2.9459,3.0193,3.0419,2.9562,3.0267,3.0779,3.0779,3.0779,3.0759,0.0,0.0,3.0759,3.0697,2.9897,2.9026,2.8173,0.0,0.0,2.5733,0.0,2.6969,2.7095,2.8813,3.0021,3.0801,3.0801,3.1786,3.3356,3.3315,3.4312,3.5849,3.5687,3.566,3.5665,3.5665,3.5665,3.5704,3.5704,3.5707,3.566,3.5687,3.5665,3.5482,3.4643,3.442,3.442,3.442,3.442,3.4604,3.5482,3.5046,3.4621,3.5438,3.4986,3.4659,3.551,3.5704,3.5704,3.5704,3.5665,3.5123,3.3411,0.0,0.0,0.0,0.0,0.0,0.0,2.7619,2.7542,3.256,0.0,0.0,0.0,0.0,0.0,0.0,0.0,0.0,3.6281,3.9697,0.0,4.1455,4.3063,4.3463,4.268,4.182,4.197,4.3047,4.4537,4.566,4.65,4.7124,4.7524,4.7848,4.8438,4.8275,4.7838,4.9191,5.0426,5.1544,5.2222,5.2501,5.2819,2.7138,2.6593,2.6376,2.6485,2.623,2.6412,2.751,2.8516,2.94,3.01,3.0444,3.0761,3.1143,3.0944,3.0702,0.0,3.064,3.0813,0.0,3.0779,3.0764,3.0691,3.0764,3.0764,3.0691,2.9907,2.9377,2.9104,0.0,0.0,0.0,3.1214,3.1379,3.1348,3.0684,3.088,3.1738,3.2324,3.3224,3.4402,3.5545,3.6327,3.6825,3.7342,3.7552,3.7514,3.7502,3.7502,3.7531,3.7512,3.7473,3.7482,3.7482,3.6658,3.565,3.5426,3.4912,3.4429,3.4456,3.4464,3.4378,3.4061,3.4216,3.4507,3.4676,3.4511,3.4251,3.3991,3.4389,3.4814,3.4814,3.5278,3.5317,3.4156,3.4466,0.0,0.0,0.0,0.0,0.0,2.9128,2.9166,0.0,2.9669,0.0,0.0,0.0,0.0,0.0,0.0,0.0,0.0,4.103,0.0,4.2733,4.3645,4.4016,4.3785,4.3057,4.3481,4.4916,4.524,4.5879,4.6762,4.7547,4.7851,4.7831,4.822,4.84,4.8552,4.973,5.0645,5.1434,5.2408,5.2786,5.2962,2.7827,2.7702,2.7669,2.7429,2.7251,2.7344,2.7909,2.9117,3.0071,3.0413,3.1081,3.177,3.2353,3.2021,0.0,3.1757,3.1752,3.1769,3.1789,3.1768,3.1743,3.1676,3.1743,3.1743,3.1676,0.0,0.0,3.0472,3.0161,3.0837,3.2459,3.3087,3.3406,3.3378,3.2949,3.3066,3.3612,3.4159,3.4861,3.5762,3.6864,3.7456,3.7773,3.8258,3.8428,3.8419,3.8346,3.8322,3.8346,3.8316,3.8307,3.8325,3.8346,3.7599,3.6599,3.5974,3.5374,3.4939,3.501,3.5026,3.5057,3.5133,3.5291,3.5408,3.5295,3.5284,3.5063,3.4223,3.4234,3.4311,3.3963,3.435,3.4543,3.4002,3.3924,3.2841,2.9747,0.0,0.0,0.0,0.0,0.0,0.0,3.0868,0.0,0.0,0.0,0.0,0.0,0.0,0.0,3.7367,4.1296,0.0,4.3788,4.3844,4.4068,4.443,4.3979,4.4485,4.58,4.594,4.6523,4.7422,4.7892,4.8279,4.8491,4.8295,4.8721,4.9602,5.0511,5.1507,5.2556,5.3229,5.3699,5.4126,2.9746,2.986,0.0,0.0,2.9746,0.0,2.8877,3.025,3.1043,3.0456,3.1945,3.3122,3.319,3.3368,3.3487,3.3477,0.0,0.0,0.0,3.3388,3.339,3.331,3.3345,3.3384,3.331,3.3384,3.3049,3.227,3.1447,3.1105,3.1207,3.2806,3.3597,3.3651,3.533,3.6108,3.6108,3.615,3.6657,3.7399,3.745,3.7956,3.869,3.8671,3.8668,3.8669,3.8522,3.8481,3.8475,3.849,3.852,3.8585,3.8585,3.8585,3.8236,3.6503,3.5927,3.5889,3.5956,3.6002,3.6345,3.7864,3.7599,3.6975,3.6829,3.6853,3.6643,3.5781,3.5007,3.4234,3.3344,3.3179,3.3179,3.3102,3.3063,3.2106,2.9553,0.0,0.0,0.0,0.0,0.0,0.0,3.287,3.2483,0.0,0.0,0.0,0.0,0.0,3.5687,3.8141,4.0732,4.2899,4.4601,4.3788,4.3788,4.4601,4.4678,4.5104,4.5916,4.6535,4.74,4.8377,4.8193,4.8634,4.9459,4.8651,4.9255,5.076,5.1442,5.2892,5.4554,5.4477,5.5036,5.5977,0.0,0.0,2.9584,2.999,2.9439,2.9317,3.0283,3.0807,3.1286,3.1943,3.2506,3.3164,3.4002,3.4224,3.4598,3.5237,3.4114,3.3398,3.3383,3.3412,3.3388,3.3316,3.3345,3.3384,3.331,3.3384,3.359,3.4018,3.3785,3.4072,3.4796,3.5186,3.5392,3.5444,3.6501,3.7009,3.7048,3.7711,3.8102,3.8339,3.8963,3.9315,3.9588,4.0195,4.0429,4.0469,4.0374,4.0391,4.0413,4.0398,4.0364,4.0361,4.0385,4.0377,4.0027,3.8323,3.7296,3.6829,3.6858,3.6878,3.6806,3.6487,3.6716,3.682,3.6057,3.6416,3.6488,3.5007,3.5085,3.5123,3.4234,3.4079,3.3886,3.3218,3.2522,3.1217,2.8664,3.0327,0.0,0.0,3.0366,3.0984,3.1178,3.0598,2.9824,0.0,0.0,0.0,0.0,0.0,3.6903,3.8179,4.1313,4.3518,4.4601,4.4407,4.4407,4.4601,4.522,4.5955,4.6806,4.697,4.755,4.8392,4.8346,4.8091,4.7811,4.8903,4.9809,5.0702,5.2375,5.3629,5.4457,5.4628,5.4868,5.5272,3.1046,3.098,3.1064,3.1337,3.1084,3.1052,3.1747,3.2168,3.2518,3.2917,3.3517,3.4148,3.4743,3.5041,3.5365,3.585,3.5073,3.4523,3.4527,3.4556,3.453,3.4508,3.452,3.452,3.4503,3.452,3.4759,3.5187,3.5187,3.5476,3.6005,3.6005,3.6212,3.6618,3.7087,3.7516,3.7946,3.8414,3.8804,3.9195,3.9624,4.0054,4.0447,4.0892,4.1087,4.1084,4.1054,4.1051,4.1047,4.1019,4.0989,4.0994,4.0991,4.1015,4.0821,3.9887,3.8953,3.8298,3.8358,3.8377,3.8325,3.8119,3.8452,3.8623,3.8029,3.7668,3.7251,3.6311,3.5886,3.5433,3.4543,3.4079,3.3538,3.2648,3.1797,3.0636,2.8818,3.0443,0.0,3.0559,3.1217,3.1913,3.23,3.1565,3.083,3.0366,0.0,0.0,3.2377,3.524,3.7135,3.7599,4.0191,4.2164,4.3401,4.4214,4.4601,4.4601,4.58,4.6651,4.7115,4.7502,4.7966,4.8392,4.7966,4.7773,4.7811,4.9165,5.0301,5.1411,5.2923,5.3932,5.4593,5.4757,5.5288,5.6195,3.1923,3.2434,3.293,3.3111,3.3111,3.3096,3.3068,3.3599,3.3881,3.3607,3.4483,3.5139,3.5276,3.5631,3.5853,3.5889,3.5888,3.5882,3.5898,3.5895,3.5913,3.5904,3.5899,3.5899,3.5889,3.5889,3.5889,3.5889,3.5889,3.5982,3.6161,3.6161,3.6641,3.7516,3.7633,3.8102,3.8804,3.8924,3.9351,4.0015,4.0015,4.0444,4.1108,4.1264,4.13,4.1296,4.1435,4.1362,4.1247,4.135,4.1207,4.1033,4.1182,4.1116,4.1023,4.1023,4.0493,3.9922,3.9974,3.9896,3.9909,4.0325,4.0576,4.066,4.0472,3.9457,3.8554,3.8414,3.7266,3.6013,3.5123,3.4156,3.314,3.2184,3.1526,3.0675,2.9282,0.0,3.2068,3.1681,3.2483,3.3383,3.4118,3.3654,3.3344,3.3488,3.4272,0.0,0.0,3.6439,3.729,3.729,3.8721,4.0384,4.2164,4.3788,4.4678,4.4794,4.6225,4.696,4.7115,4.785,4.8198,4.8159,4.754,4.7734,4.8508,4.9629,5.0906,5.2298,5.3304,5.4078,5.4619,5.489,5.6007,5.755,3.2382,3.2699,3.2834,3.2921,3.3014,3.3248,3.3744,3.388,3.4018,3.4285,3.4542,3.4829,3.5249,3.5465,3.5668,3.5883,3.5899,3.5884,3.5918,3.5886,3.5898,3.591,3.5907,3.5892,3.5889,3.5889,3.5889,3.5889,3.5889,3.6294,3.7019,3.7019,3.75,3.8414,3.9117,3.9507,3.9663,4.0405,4.0795,4.0912,4.0912,4.0991,4.1186,4.1927,4.2201,4.2275,4.3017,4.2831,4.2298,4.2964,4.2265,4.1182,4.1882,4.1618,4.1059,4.1059,4.0987,4.087,4.0818,4.0298,3.9568,3.886,3.9257,3.9758,3.9612,3.996,4.0101,3.938,3.9045,3.8644,3.7754,3.6323,3.4775,3.314,3.3421,3.2493,2.8741,0.0,3.3189,3.1023,3.2145,3.314,3.3305,3.3847,3.4505,3.524,3.6052,3.6826,3.756,3.8566,3.9108,3.9108,3.9352,4.0655,4.3053,4.4098,4.4949,4.5606,4.5877,4.638,4.7115,4.7231,4.7308,4.7347,4.7927,4.8275,4.8585,5.0867,5.195,5.2337,5.3962,5.4233,5.3884,5.5277,5.6437,5.7538,3.2058,3.2453,3.2672,3.2669,3.2705,3.293,3.355,3.3606,3.377,3.4298,3.4551,3.4812,3.5206,3.5442,3.565,3.5878,3.5889,3.5899,3.5884,3.5903,3.5891,3.5894,3.5884,3.59,3.5889,3.5889,3.5889,3.5889,3.6356,3.6801,3.7219,3.7683,3.8397,3.9273,3.9624,4.0054,4.0561,4.142,4.181,4.1849,4.2318,4.2513,4.2552,4.2942,4.3099,4.3138,4.3556,4.3439,4.3134,4.3495,4.3079,4.25,4.2889,4.2756,4.2446,4.2446,4.2114,4.165,4.113,4.103,4.0882,3.9917,3.9973,4.0176,4.005,4.0011,4.0011,4.0036,3.9728,3.9224,3.8373,3.7174,3.5781,3.4079,3.3344,0.0,0.0,3.2068,3.2919,3.2687,3.3731,3.4659,3.5085,3.5936,3.6593,3.7019,3.7406,3.7986,3.8837,3.9262,3.992,4.081,4.1313,4.2357,4.3982,4.5297,4.5916,4.58,4.6728,4.7154,4.7115,4.7115,4.7347,4.7811,4.8237,4.8894,4.99,5.2028,5.2879,5.3033,5.431,5.4542,5.4387,5.6089,5.725,5.8255,3.1529,3.2172,3.2573,3.2507,3.2439,3.2606,3.3262,3.335,3.357,3.4227,3.4508,3.4756,3.5132,3.5329,3.5563,3.5814,3.5878,3.5883,3.5889,3.5884,3.5918,3.5897,3.5891,3.59,3.5889,3.5889,3.6006,3.6201,3.6863,3.7425,3.78,3.8502,3.9256,4.0093,4.0093,4.06,4.1459,4.2123,4.2513,4.2747,4.3411,4.3684,4.3723,4.3918,4.3997,4.4036,4.4224,4.4172,4.4012,4.4149,4.3957,4.3648,4.3821,4.3749,4.3581,4.3618,4.3283,4.2655,4.1597,4.1762,4.2041,4.1121,4.097,4.0951,4.0732,4.0333,4.0152,4.0539,4.0178,3.9572,3.8914,3.8102,3.6903,3.5007,0.0,0.0,0.0,3.3063,3.3654,3.4582,3.5626,3.6516,3.7135,3.7986,3.8489,3.8489,3.8682,3.9108,3.9777,3.9959,4.0848,4.255,4.3247,4.402,4.4871,4.6148,4.6573,4.6109,4.7231,4.754,4.7115,4.7115,4.7579,4.843,4.8817,4.9823,5.1331,5.3072,5.3807,5.3884,5.4735,5.5084,5.5277,5.6979,5.8139,5.9068,3.1164,3.2075,3.2539,3.2405,3.2439,3.2737,3.3372,3.3486,3.3707,3.4298,3.4427,3.4572,3.4975,3.5085,3.5303,3.5685,3.5826,3.5898,3.5889,3.5894,3.5919,3.5916,3.5896,3.59,3.5889,3.5889,3.6317,3.7097,3.7175,3.8049,3.9594,3.9672,4.0153,4.0991,4.0991,4.1498,4.2318,4.2357,4.2864,4.3606,4.3684,4.3684,4.3801,4.4582,4.4894,4.5012,4.5831,4.559,4.5035,4.5767,4.4922,4.3732,4.4543,4.4249,4.3594,4.3593,4.4137,4.4357,4.2656,4.2205,4.1984,4.1102,4.145,4.1779,4.1051,4.1369,4.1622,4.0946,4.0676,4.0617,4.0616,3.9881,3.8489,3.6013,0.0,0.0,3.2454,3.5278,3.7212,3.5781,3.7019,3.8025,3.8102,3.8876,3.9391,3.9391,4.0152,4.0616,4.0694,4.139,4.2628,4.4369,4.4485,4.491,4.5684,4.5838,4.6264,4.6999,4.6303,4.638,4.7115,4.7115,4.7579,4.8508,5.0055,5.1254,5.2221,5.4,5.4697,5.4774,5.5586,5.5896,5.6128,5.7869,5.9068,5.9803,3.0501,3.1659,3.2473,3.2473,3.2541,3.2737,3.3172,3.3372,3.368,3.413,3.4381,3.4588,3.4923,3.5054,3.5262,3.5553,3.5749,3.5885,3.5898,3.5917,3.5914,3.5913,3.6406,3.6706,3.6715,3.723,3.7681,3.7993,3.8539,3.914,3.9828,4.0335,4.0777,4.1108,4.1654,4.2084,4.2474,4.3567,4.4192,4.4543,4.509,4.5324,4.5363,4.5675,4.5792,4.5831,4.6183,4.6101,4.5855,4.6114,4.5763,4.526,4.5601,4.5476,4.5191,4.5194,4.5462,4.557,4.4918,4.4292,4.3537,4.2062,4.1927,4.1945,4.1085,4.1548,4.2053,4.1712,4.2039,4.2228,4.1699,4.1313,4.0384,3.8373,0.0,3.7638,3.6013,3.6709,3.7367,3.7251,3.8295,3.8992,3.8992,3.9804,4.0307,4.0307,4.0616,4.1003,4.1506,4.286,4.4136,4.5297,4.5336,4.549,4.58,4.6883,4.7038,4.6303,4.7038,4.7308,4.7115,4.7657,4.8392,4.932,5.0983,5.2182,5.3149,5.4851,5.5238,5.4929,5.6283,5.6824,5.7018,5.8758,5.9609,5.988,3.0184,3.1515,3.2541,3.2507,3.2573,3.277,3.3117,3.3408,3.3707,3.408,3.4381,3.4609,3.4832,3.5059,3.5259,3.5477,3.5715,3.5988,3.6288,3.654,3.6572,3.6339,3.7145,3.7615,3.76,3.8181,3.8617,3.8928,3.9513,3.9959,4.0218,4.1115,4.1519,4.1537,4.2435,4.2942,4.3294,4.4504,4.5168,4.5441,4.6066,4.63,4.63,4.63,4.63,4.63,4.63,4.6296,4.6288,4.6231,4.6226,4.6215,4.6209,4.6197,4.6234,4.6211,4.6209,4.6247,4.6198,4.5753,4.4948,4.3435,4.3038,4.2747,4.1641,4.1812,4.222,4.2241,4.2636,4.2795,4.2202,4.2048,4.1467,3.9777,3.8992,3.8528,3.8257,3.7909,3.7947,3.8528,3.9379,3.9932,3.9932,4.0462,4.081,4.081,4.1042,4.1777,4.3131,4.4369,4.549,4.6573,4.6612,4.6496,4.6187,4.7115,4.727,4.6612,4.754,4.7966,4.7927,4.8546,4.9281,5.0171,5.1873,5.2956,5.3614,5.5316,5.5857,5.5741,5.7134,5.7869,5.8255,5.9455,5.988,5.9841,3.0286,3.1639,3.2802,3.2574,3.2674,3.2898,3.3262,3.3578,3.3913,3.4154,3.445,3.4647,3.4773,3.4978,3.5224,3.5481,3.5708,3.62,3.713,3.8032,3.8127,3.7265,3.8042,3.8515,3.8506,3.8536,3.8928,3.9825,3.9825,4.0265,4.1115,4.2013,4.2416,4.2435,4.3333,4.4192,4.5012,4.5012,4.5519,4.63,4.63,4.63,4.63,4.63,4.63,4.63,4.63,4.63,4.6296,4.6236,4.6236,4.6279,4.6215,4.6265,4.6292,4.6205,4.6239,4.6276,4.6239,4.6204,4.5975,4.5135,4.4891,4.4468,4.2772,4.2327,4.2256,4.2288,4.2208,4.211,4.2099,4.2048,4.1467,3.9777,3.9507,3.9224,3.8334,3.8953,3.9507,3.9507,4.0268,4.081,4.081,4.081,4.081,4.081,4.1583,4.3131,4.5645,4.5877,4.6689,4.8353,4.8392,4.7966,4.7115,4.6264,4.6689,4.8392,4.754,4.8043,4.9707,4.9707,5.0132,5.1022,5.2724,5.3498,5.3614,5.5316,5.6515,5.7404,5.8255,5.9145,5.988,5.988,5.988,5.9764,3.1182,3.1998,3.2641,3.2707,3.2805,3.2961,3.3262,3.3578,3.3913,3.4154,3.445,3.4604,3.4668,3.4906,3.5146,3.52,3.614,3.7102,3.8065,3.8928,3.9279,3.8967,3.9246,3.9414,3.9412,4.0028,4.0448,4.0721,4.0721,4.1167,4.2013,4.2286,4.2728,4.3333,4.4231,4.4777,4.5051,4.5636,4.6066,4.63,4.63,4.63,4.63,4.63,4.63,4.63,4.63,4.63,4.63,4.6284,4.6284,4.6284,4.6275,4.6284,4.63,4.627,4.6267,4.6306,4.6282,4.628,4.6049,4.5143,4.4909,4.4608,4.3555,4.3749,4.3982,4.3388,4.3708,4.3846,4.3202,4.3034,4.2586,4.1454,4.1235,4.0965,4.0152,4.023,4.0423,4.0423,4.0616,4.081,4.081,4.081,4.1042,4.1583,4.3518,4.4987,4.5761,4.696,4.7889,4.8392,4.7811,4.7657,4.8005,4.7734,4.7579,4.7502,4.8469,4.9204,4.9707,5.0287,5.0674,5.1022,5.2724,5.3498,5.3691,5.5973,5.7095,5.7443,5.8913,5.93,5.9068,5.9648,5.9145,5.8139,3.2527,3.3095,3.3489,3.3237,3.355,3.3784,3.3774,3.4025,3.4328,3.4587,3.4614,3.4755,3.5055,3.54,3.5742,3.6135,3.7378,3.8354,3.8955,3.9818,4.0286,4.0227,4.0299,4.0312,4.0273,4.0816,4.111,4.111,4.1422,4.1869,4.2403,4.3066,4.3665,4.4231,4.5129,4.5519,4.5558,4.6066,4.63,4.63,4.63,4.63,4.63,4.63,4.63,4.63,4.63,4.63,4.63,4.6288,4.6284,4.6284,4.6288,4.6296,4.63,4.63,4.63,4.63,4.63,4.63,4.6153,4.5585,4.5194,4.4643,4.3432,4.3581,4.3837,4.3279,4.355,4.3704,4.3131,4.2955,4.2641,4.1673,4.154,4.135,4.0861,4.081,4.081,4.081,4.081,4.0926,4.1235,4.1583,4.2396,4.3904,4.5452,4.6612,4.7308,4.8005,4.8546,4.8894,4.8082,4.785,4.8392,4.874,4.8662,4.8121,4.9204,4.9861,5.021,5.0674,5.1099,5.1486,5.2879,5.3691,5.4194,5.6399,5.7521,5.7907,5.8952,5.9261,5.9068,5.8913,5.8217,5.7443,3.4091,3.462,3.4903,3.4091,3.462,3.5106,3.4713,3.479,3.5064,3.5414,3.5002,3.5055,3.5948,3.6312,3.6862,3.774,3.8944,3.9731,3.9799,4.063,4.1065,4.1013,4.1077,4.1054,4.1014,4.1055,4.1149,4.1227,4.1929,4.2415,4.2676,4.4197,4.4992,4.5168,4.5948,4.63,4.63,4.63,4.63,4.63,4.63,4.63,4.63,4.63,4.63,4.63,4.63,4.63,4.63,4.6288,4.6288,4.6288,4.6296,4.63,4.63,4.63,4.63,4.63,4.63,4.63,4.63,4.6288,4.5707,4.4699,4.3095,4.2744,4.2701,4.265,4.2529,4.2383,4.2305,4.2201,4.1812,4.0945,4.0781,4.0843,4.0912,4.09,4.0965,4.1119,4.1119,4.1467,4.2241,4.3131,4.4601,4.6922,4.7231,4.8005,4.9513,4.8972,4.8933,4.9552,4.8894,4.8508,4.8508,4.932,4.9707,4.9707,4.9784,5.021,5.0906,5.0983,5.1447,5.226,5.3188,5.4116,5.5045,5.6708,5.7869,5.8604,5.8681,5.9106,5.9493,5.7907,5.7288,5.7443,3.5077,3.508,3.5082,3.4835,3.518,3.5512,3.5581,3.5376,3.5525,3.6435,3.5946,3.5859,3.6906,3.7148,3.7441,3.7839,3.8949,3.9963,4.0747,4.0942,4.1059,4.1065,4.108,4.1094,4.1094,4.109,4.1422,4.2046,4.2202,4.3,4.4353,4.4748,4.5304,4.6027,4.6222,4.63,4.63,4.63,4.63,4.63,4.63,4.63,4.63,4.63,4.63,4.63,4.63,4.63,4.63,4.63,4.6296,4.6296,4.63,4.63,4.63,4.63,4.63,4.63,4.63,4.63,4.63,4.6296,4.6144,4.5906,4.546,4.5421,4.523,4.4514,4.3864,4.318,4.2458,4.1715,4.1179,4.0916,4.0848,4.1059,4.1734,4.1776,4.2241,4.3595,4.3788,4.4098,4.491,4.5761,4.6496,4.7076,4.8353,4.901,4.8701,4.9745,4.9861,4.8701,4.9165,4.9436,4.9436,4.9629,4.9707,4.9707,5.0326,5.0751,5.0945,5.1602,5.2028,5.2298,5.3846,5.4967,5.5857,5.7598,5.841,5.8681,5.9339,5.8913,5.783,5.7443,5.7288,5.7521,3.6399,3.6292,3.6114,3.5932,3.6319,3.6693,3.6698,3.6519,3.6663,3.7317,3.6758,3.67,3.7759,3.8023,3.8465,3.9251,3.9885,4.045,4.1013,4.1013,4.1208,4.1643,4.1665,4.1875,4.2265,4.2299,4.2318,4.2318,4.2708,4.3584,4.4904,4.5328,4.5811,4.63,4.63,4.63,4.63,4.63,4.63,4.63,4.63,4.63,4.63,4.63,4.63,4.63,4.63,4.63,4.63,4.63,4.63,4.63,4.63,4.63,4.63,4.63,4.6573,4.6846,4.6417,4.6612,4.6807,4.6413,4.6605,4.6644,4.5816,4.5664,4.543,4.4523,4.4007,4.3543,4.3021,4.257,4.2226,4.2158,4.2091,4.2391,4.3203,4.3323,4.375,4.5026,4.5181,4.5645,4.6922,4.7811,4.8353,4.8353,4.9552,4.99,4.9088,4.9861,4.9939,4.9049,4.9475,4.9707,4.9707,5.048,5.0906,5.0906,5.1331,5.1757,5.2144,5.2608,5.3033,5.3498,5.4387,5.5509,5.6708,5.7598,5.8217,5.8604,5.8642,5.8101,5.725,5.6824,5.7211,5.8101,3.7577,3.7429,3.7216,3.7032,3.7499,3.7848,3.7794,3.7747,3.7785,3.8133,3.7567,3.7539,3.8634,3.8995,3.9592,4.0798,4.0897,4.0898,4.0999,4.1123,4.1551,4.2252,4.2446,4.2851,4.3593,4.3591,4.3332,4.2747,4.3487,4.4286,4.5133,4.588,4.624,4.63,4.63,4.63,4.63,4.6292,4.6292,4.63,4.6292,4.6296,4.63,4.63,4.63,4.63,4.63,4.6417,4.6534,4.669,4.6729,4.6729,4.6729,4.6729,4.6729,4.6729,4.7237,4.7666,4.6924,4.7237,4.7623,4.6913,4.7225,4.7342,4.5984,4.5633,4.5437,4.4727,4.4324,4.4153,4.4265,4.4016,4.3813,4.3749,4.3726,4.3974,4.4616,4.4831,4.5221,4.6137,4.651,4.7231,4.8701,4.9475,4.99,4.99,5.0519,5.0558,4.9745,4.9823,4.9861,4.9707,4.9823,4.9977,5.0132,5.1525,5.2337,5.2647,5.2647,5.2917,5.3498,5.3652,5.4116,5.4813,5.5084,5.6012,5.7327,5.7482,5.7869,5.8294,5.7598,5.7211,5.7018,5.6592,5.7443,5.8952,3.7577,3.7429,3.7394,3.7716,3.799,3.8287,3.8523,3.8248,3.826,3.8887,3.8335,3.8413,3.9578,4.0159,4.0578,4.0848,4.0854,4.0858,4.0999,4.1692,4.2159,4.2273,4.3032,4.3476,4.3594,4.3587,4.3916,4.454,4.4676,4.5156,4.603,4.6201,4.6288,4.63,4.63,4.63,4.63,4.6176,4.6187,4.6296,4.6176,4.6187,4.63,4.63,4.63,4.63,4.63,4.6768,4.7549,4.8213,4.8447,4.8447,4.8447,4.8447,4.8447,4.8447,4.8564,4.8603,4.8486,4.8564,4.8603,4.8486,4.8525,4.8564,4.833,4.8283,4.824,4.8118,4.6899,4.6108,4.685,4.5733,4.4708,4.4726,4.4672,4.4655,4.479,4.5354,4.6332,4.7947,4.935,5.0287,5.0558,5.0674,5.0751,5.0751,5.0828,5.0558,4.9745,5.0364,5.0442,4.9707,5.0364,5.1099,5.1834,5.2066,5.2956,5.4465,5.4465,5.4116,5.3536,5.4271,5.4697,5.489,5.6321,5.7095,5.7366,5.8101,5.8062,5.7482,5.7366,5.6863,5.636,5.7753,5.8874,5.9957,3.7503,3.7577,3.7721,3.8062,3.8387,3.87,3.9027,3.8904,3.8819,3.91,3.8999,3.9147,3.981,4.0399,4.0732,4.0837,4.0804,4.1031,4.163,4.2066,4.2735,4.3646,4.4084,4.4531,4.5039,4.5035,4.5241,4.5631,4.5144,4.5357,4.6187,4.6279,4.6292,4.63,4.63,4.6249,4.6181,4.6112,4.6098,4.6084,4.6098,4.6157,4.6265,4.68,4.7042,4.7081,4.7549,4.7939,4.833,4.8681,4.8798,4.8798,4.8798,4.8798,4.8798,4.8798,4.915,4.9423,4.8915,4.915,4.9423,4.8915,4.9189,4.954,4.954,4.9887,4.9961,4.8986,4.8196,4.7757,4.8176,4.7591,4.706,4.7093,4.6641,4.6616,4.7455,4.7504,4.8024,4.965,5.0457,5.0906,5.0906,5.0906,5.0712,5.0248,5.0674,5.0558,4.9745,5.048,5.0751,5.0403,5.1177,5.1796,5.2182,5.3149,5.4039,5.4813,5.5277,5.5277,5.4929,5.5277,5.547,5.5509,5.6244,5.6863,5.7288,5.7211,5.7211,5.725,5.6747,5.6631,5.6902,5.8139,5.9145,6.0151]},{"header":{"parameterUnit":"m.s-1","parameterCategory":1,"la1":30.6,"la2":28.766,"lo1":-90.7593,"lo2":-88.6598,"dy":0.0162,"dx":0.0183,"nx":116,"ny":114,"refTime":"2024-03-26T12:00:00:Z","depth":0,"parameterNumber":3,"parameterNumberName":"V-component_of_WINDS"},"data":[0.0,0.0,0.0,0.0,0.0,0.0,0.0,0.0,0.0,0.0,0.0,0.0,0.0,0.0,0.0,0.0,0.0,0.0,0.0,0.0,0.0,0.0,0.0,0.0,0.0,0.0,0.0,0.0,0.0,0.0,0.0,0.0,0.0,0.0,0.0,0.0,0.0,0.0,0.0,0.0,0.0,0.0,0.0,0.0,0.0,0.0,0.0,0.0,0.0,0.0,0.0,0.0,0.0,0.0,0.0,0.0,0.0,0.0,0.0,0.0,0.0,0.0,0.0,0.0,0.0,0.0,0.0,0.0,0.0,0.0,0.0,0.0,0.0,0.0,0.0,0.0,0.0,0.0,0.0,0.0,0.0,0.0,0.0,0.0,0.0,0.0,0.0,0.0,0.0,0.0,0.0,0.0,0.0,0.0,0.0,0.0,0.0,0.0,0.0,0.0,0.0,0.0,0.0,0.0,0.0,0.0,0.0,0.0,0.0,0.0,0.0,0.0,0.0,0.0,0.0,0.0,0.0,0.0,0.0,0.0,0.0,0.0,0.0,0.0,0.0,0.0,0.0,0.0,0.0,0.0,0.0,0.0,0.0,0.0,0.0,0.0,0.0,0.0,0.0,0.0,0.0,0.0,0.0,0.0,0.0,0.0,0.0,0.0,0.0,0.0,0.0,0.0,0.0,0.0,0.0,0.0,0.0,0.0,0.0,0.0,0.0,0.0,0.0,0.0,0.0,0.0,0.0,0.0,0.0,0.0,0.0,0.0,0.0,0.0,0.0,0.0,0.0,0.0,0.0,0.0,0.0,0.0,0.0,0.0,0.0,0.0,0.0,0.0,0.0,0.0,0.0,0.0,0.0,0.0,0.0,0.0,0.0,0.0,0.0,0.0,0.0,0.0,0.0,0.0,0.0,0.0,0.0,0.0,0.0,0.0,0.0,0.0,0.0,0.0,0.0,0.0,0.0,0.0,0.0,0.0,0.0,0.0,0.0,0.0,0.0,0.0,0.0,0.0,0.0,0.0,0.0,0.0,0.0,0.0,0.0,0.0,0.0,0.0,0.0,0.0,0.0,0.0,0.0,0.0,0.0,0.0,0.0,0.0,0.0,0.0,0.0,0.0,0.0,0.0,0.0,0.0,0.0,0.0,0.0,0.0,0.0,0.0,0.0,0.0,0.0,0.0,0.0,0.0,0.0,0.0,0.0,0.0,0.0,0.0,0.0,0.0,0.0,0.0,0.0,0.0,0.0,0.0,0.0,0.0,0.0,0.0,0.0,0.0,0.0,0.0,0.0,0.0,0.0,0.0,0.0,0.0,0.0,0.0,0.0,0.0,0.0,0.0,0.0,0.0,0.0,0.0,0.0,0.0,0.0,0.0,0.0,0.0,0.0,0.0,0.0,0.0,0.0,0.0,0.0,0.0,0.0,0.0,0.0,0.0,0.0,0.0,0.0,0.0,0.0,0.0,0.0,0.0,0.0,0.0,0.0,0.0,0.0,0.0,0.0,0.0,0.0,0.0,0.0,0.0,0.0,0.0,0.0,0.0,0.0,0.0,0.0,0.0,0.0,0.0,0.0,0.0,0.0,0.0,0.0,0.0,0.0,0.0,0.0,0.0,0.0,0.0,0.0,0.0,0.0,0.0,0.0,0.0,0.0,0.0,0.0,0.0,0.0,0.0,0.0,0.0,0.0,0.0,0.0,0.0,0.0,0.0,0.0,0.0,0.0,0.0,0.0,0.0,0.0,0.0,0.0,0.0,0.0,0.0,0.0,0.0,0.0,0.0,0.0,0.0,0.0,0.0,0.0,0.0,0.0,0.0,0.0,0.0,0.0,0.0,0.0,0.0,0.0,0.0,0.0,0.0,0.0,0.0,0.0,0.0,0.0,0.0,0.0,0.0,0.0,0.0,0.0,0.0,0.0,0.0,0.0,0.0,0.0,0.0,0.0,0.0,0.0,0.0,0.0,0.0,0.0,0.0,0.0,0.0,0.0,0.0,0.0,0.0,0.0,0.0,0.0,0.0,0.0,0.0,0.0,0.0,0.0,0.0,0.0,0.0,0.0,0.0,0.0,0.0,0.0,0.0,0.0,0.0,0.0,0.0,0.0,0.0,0.0,0.0,0.0,0.0,0.0,0.0,0.0,0.0,0.0,0.0,0.0,0.0,0.0,0.0,0.0,0.0,0.0,0.0,0.0,0.0,0.0,0.0,0.0,0.0,0.0,0.0,0.0,0.0,0.0,0.0,0.0,0.0,0.0,0.0,0.0,0.0,0.0,0.0,0.0,0.0,0.0,0.0,0.0,0.0,0.0,0.0,0.0,0.0,0.0,0.0,0.0,0.0,0.0,0.0,0.0,0.0,0.0,0.0,0.0,0.0,0.0,0.0,0.0,0.0,0.0,0.0,0.0,0.0,0.0,0.0,0.0,0.0,0.0,0.0,0.0,0.0,0.0,0.0,0.0,0.0,0.0,0.0,0.0,0.0,0.0,0.0,0.0,0.0,0.0,0.0,0.0,0.0,0.0,0.0,0.0,0.0,0.0,0.0,0.0,0.0,0.0,0.0,0.0,0.0,0.0,0.0,0.0,0.0,0.0,0.0,0.0,0.0,0.0,0.0,0.0,0.0,0.0,0.0,0.0,0.0,0.0,0.0,0.0,0.0,0.0,0.0,0.0,0.0,0.0,0.0,0.0,0.0,0.0,0.0,0.0,0.0,0.0,0.0,0.0,0.0,0.0,0.0,0.0,0.0,0.0,0.0,0.0,0.0,0.0,0.0,0.0,0.0,0.0,0.0,0.0,0.0,0.0,0.0,0.0,0.0,0.0,0.0,0.0,0.0,0.0,0.0,0.0,0.0,0.0,0.0,0.0,0.0,0.0,0.0,0.0,0.0,0.0,0.0,0.0,0.0,0.0,0.0,0.0,0.0,0.0,0.0,0.0,0.0,0.0,0.0,0.0,0.0,0.0,0.0,0.0,0.0,0.0,0.0,0.0,0.0,0.0,0.0,0.0,0.0,0.0,0.0,0.0,0.0,0.0,0.0,0.0,0.0,0.0,0.0,0.0,0.0,0.0,0.0,0.0,0.0,0.0,0.0,0.0,0.0,0.0,0.0,0.0,0.0,0.0,0.0,0.0,0.0,0.0,0.0,0.0,0.0,0.0,0.0,0.0,0.0,0.0,0.0,0.0,0.0,0.0,0.0,0.0,0.0,0.0,0.0,0.0,0.0,0.0,0.0,0.0,0.0,0.0,0.0,0.0,0.0,0.0,0.0,0.0,0.0,0.0,0.0,0.0,0.0,0.0,0.0,0.0,0.0,0.0,0.0,0.0,0.0,0.0,0.0,0.0,0.0,0.0,0.0,0.0,0.0,0.0,0.0,0.0,0.0,0.0,0.0,0.0,0.0,0.0,0.0,0.0,0.0,0.0,0.0,0.0,0.0,0.0,0.0,0.0,0.0,0.0,0.0,0.0,0.0,0.0,0.0,0.0,0.0,0.0,0.0,0.0,0.0,0.0,0.0,0.0,0.0,0.0,0.0,0.0,0.0,0.0,0.0,0.0,0.0,0.0,0.0,0.0,0.0,0.0,0.0,0.0,0.0,0.0,0.0,0.0,0.0,0.0,0.0,0.0,0.0,0.0,0.0,0.0,0.0,0.0,0.0,0.0,0.0,0.0,0.0,0.0,0.0,0.0,0.0,0.0,0.0,0.0,0.0,0.0,0.0,0.0,0.0,0.0,0.0,0.0,0.0,0.0,0.0,0.0,0.0,0.0,0.0,0.0,0.0,0.0,0.0,0.0,0.0,0.0,0.0,0.0,0.0,0.0,0.0,0.0,0.0,0.0,0.0,0.0,0.0,0.0,0.0,0.0,0.0,0.0,0.0,0.0,0.0,0.0,0.0,0.0,0.0,0.0,0.0,0.0,0.0,0.0,0.0,0.0,0.0,0.0,0.0,0.0,0.0,0.0,0.0,0.0,0.0,0.0,0.0,0.0,0.0,0.0,0.0,0.0,0.0,0.0,0.0,0.0,0.0,0.0,0.0,0.0,0.0,0.0,0.0,0.0,0.0,0.0,0.0,0.0,0.0,0.0,0.0,0.0,0.0,0.0,0.0,0.0,0.0,0.0,0.0,0.0,0.0,0.0,0.0,0.0,0.0,0.0,0.0,0.0,0.0,0.0,0.0,0.0,0.0,0.0,0.0,0.0,0.0,0.0,0.0,0.0,0.0,0.0,0.0,0.0,0.0,0.0,0.0,0.0,0.0,0.0,0.0,0.0,0.0,0.0,0.0,0.0,0.0,0.0,0.0,0.0,0.0,0.0,0.0,0.0,0.0,0.0,0.0,0.0,0.0,0.0,0.0,0.0,0.0,0.0,0.0,0.0,0.0,0.0,0.0,0.0,0.0,0.0,0.0,0.0,0.0,0.0,0.0,0.0,0.0,0.0,0.0,0.0,0.0,0.0,0.0,0.0,0.0,0.0,0.0,0.0,0.0,0.0,0.0,0.0,0.0,0.0,0.0,0.0,0.0,0.0,0.0,0.0,0.0,0.0,0.0,0.0,0.0,0.0,0.0,0.0,0.0,0.0,0.0,0.0,0.0,0.0,0.0,0.0,0.0,0.0,0.0,0.0,0.0,0.0,0.0,0.0,0.0,0.0,0.0,0.0,0.0,0.0,0.0,0.0,0.0,0.0,0.0,0.0,0.0,0.0,0.0,0.0,0.0,0.0,0.0,0.0,0.0,0.0,0.0,0.0,0.0,0.0,0.0,0.0,0.0,0.0,0.0,0.0,0.0,0.0,0.0,0.0,0.0,0.0,0.0,0.0,0.0,0.0,0.0,0.0,0.0,0.0,0.0,0.0,0.0,0.0,0.0,0.0,0.0,0.0,0.0,0.0,0.0,0.0,0.0,0.0,0.0,0.0,0.0,0.0,0.0,0.0,0.0,0.0,0.0,0.0,0.0,0.0,0.0,0.0,0.0,0.0,0.0,0.0,0.0,0.0,0.0,0.0,0.0,0.0,0.0,0.0,0.0,0.0,0.0,0.0,0.0,0.0,0.0,0.0,0.0,0.0,0.0,0.0,0.0,0.0,0.0,0.0,0.0,0.0,0.0,0.0,0.0,0.0,0.0,0.0,0.0,0.0,0.0,0.0,0.0,0.0,0.0,0.0,0.0,0.0,0.0,0.0,0.0,0.0,0.0,0.0,0.0,0.0,0.0,0.0,0.0,0.0,0.0,0.0,0.0,0.0,0.0,0.0,0.0,0.0,0.0,0.0,0.0,0.0,0.0,0.0,0.0,0.0,0.0,0.0,0.0,0.0,0.0,0.0,0.0,0.0,0.0,0.0,0.0,0.0,0.0,0.0,0.0,0.0,0.0,0.0,0.0,0.0,0.0,0.0,0.0,0.0,0.0,0.0,0.0,0.0,0.0,0.0,0.0,0.0,0.0,0.0,0.0,0.0,0.0,0.0,0.0,0.0,0.0,0.0,0.0,0.0,0.0,0.0,0.0,0.0,0.0,0.0,0.0,0.0,0.0,0.0,0.0,0.0,0.0,0.0,0.0,0.0,0.0,0.0,0.0,0.0,0.0,0.0,0.0,0.0,0.0,0.0,0.0,0.0,0.0,0.0,0.0,0.0,0.0,0.0,0.0,0.0,0.0,0.0,0.0,0.0,0.0,0.0,0.0,0.0,0.0,0.0,0.0,0.0,0.0,0.0,0.0,0.0,0.0,0.0,0.0,0.0,0.0,0.0,0.0,0.0,0.0,0.0,0.0,0.0,0.0,0.0,0.0,0.0,0.0,0.0,0.0,0.0,0.0,0.0,0.0,0.0,0.0,0.0,0.0,0.0,0.0,0.0,0.0,0.0,0.0,0.0,0.0,0.0,0.0,0.0,0.0,0.0,0.0,0.0,0.0,0.0,0.0,0.0,0.0,0.0,0.0,0.0,0.0,0.0,0.0,0.0,0.0,0.0,0.0,0.0,0.0,0.0,0.0,0.0,0.0,0.0,0.0,0.0,0.0,0.0,0.0,0.0,0.0,0.0,0.0,0.0,0.0,0.0,0.0,0.0,0.0,0.0,0.0,0.0,0.0,0.0,0.0,0.0,0.0,-0.2974,0.0,0.0,0.0,0.0,0.0,0.0,0.0,0.0,0.0,0.0,0.0,0.0,0.0,0.0,0.0,0.0,0.0,0.0,0.0,0.0,0.0,0.0,0.0,0.0,0.1786,0.1986,0.216,0.2229,0.2269,0.2373,0.0,0.0,0.0,0.0,0.0,0.0403,-0.0345,-0.0899,-0.121,-0.0848,-0.0764,-0.0948,-0.0903,-0.0911,-0.0988,0.0,0.0,0.0,0.0,0.0,0.0,0.0,0.0,0.0,0.0,0.0,0.0,0.0,0.0,0.0,0.0,0.0,0.0,0.0,0.0,0.0,0.0,0.0,0.0,0.0,0.0,0.0,0.0,0.0,0.0,0.0,0.0,0.0,0.0,0.0,0.0,0.0,0.0,0.0,0.0,0.0,0.0,0.0,0.0,0.0,0.0,0.0,0.0,0.0,0.0,0.0,0.0,0.0,0.0,0.0,0.0,0.0,0.0,0.0,0.0,0.0,0.0,0.0,0.0,0.0,0.0,0.0,0.0,0.0,0.0,0.0,-0.3235,0.0,0.0,0.0,0.0,0.0,0.0,0.0,0.0,0.0,0.0,0.0,0.0,0.0,0.0,0.0,0.0,0.0,0.0,0.0,0.0,0.0,0.1769,0.1769,0.1999,0.2249,0.2464,0.2537,0.2567,0.2579,0.2442,0.0,0.0,0.0,0.0,0.0511,-0.0499,-0.1122,-0.1259,-0.1094,-0.099,-0.0888,-0.0744,-0.0859,-0.1119,-0.1076,0.0,0.0,0.0,0.0,0.0,0.0,0.0,0.0,0.0,0.0,0.0,0.0,0.0,0.0,0.0,0.0,0.0,0.0,0.0,0.0,0.0,0.0,0.0,0.0,0.0,0.0,0.0,0.0,0.0,0.0,0.0,0.0,0.0,0.0,0.0,0.0,0.0,0.0,0.0,0.0,0.0,0.0,0.0,0.0,0.0,0.0,0.0,0.0,0.0,0.0,0.0,0.0,0.0,0.0,0.0,0.0,0.0,0.0,0.0,0.0,0.0,0.0,0.0,0.0,-0.3926,-0.3588,-0.3733,-0.3694,-0.3496,-0.3604,-0.3562,-0.3419,0.0,0.0,0.0,0.0,0.0,0.0,0.0,0.0,0.0,0.0,0.0,0.0,0.0,0.0,0.0,0.0,0.0,0.0,0.0,0.0,0.2054,0.2054,0.2296,0.2441,0.2402,0.2677,0.2668,0.2224,0.2382,0.2361,0.0,0.0,0.0649,0.1004,-0.0435,-0.1162,-0.1141,-0.1095,-0.1018,-0.0886,-0.0743,-0.0892,-0.1198,-0.0991,-0.0932,-0.0877,0.0,0.0,0.0,0.0,0.0,0.0,0.0,0.0,0.0,0.0,0.0,0.0,0.0,0.0,0.0,0.0,0.0,0.0,0.0,0.0,0.0,0.0,0.0,0.0,0.0,0.0,0.0,0.0,0.0,0.0,0.0,0.0,0.0,0.0,0.0,0.0,0.0,0.0,0.0,0.0,0.0,-0.2152,-0.2301,0.0,0.0,0.0,0.0,0.0,0.0,0.0,0.0,0.0,0.0,0.0,0.0,0.0,0.0,-0.2704,-0.2937,-0.3056,-0.3054,-0.3431,-0.3582,-0.3593,-0.3795,-0.3876,-0.3865,-0.3865,0.0,-0.3381,-0.3467,0.0,0.0,0.0,0.0,0.0,0.0,0.0,0.0,0.0,0.0,0.0,0.0,0.0,0.0,0.0,0.0,0.0,0.0,0.0,0.0,0.0,0.2434,0.2489,0.2679,0.2742,0.2716,0.2549,0.2619,0.2515,0.2125,0.1427,0.1,0.0834,-0.0304,-0.0897,-0.0818,-0.1277,-0.1285,-0.0884,-0.0823,-0.0886,-0.1032,-0.1065,-0.0853,-0.0463,-0.0728,0.0,0.0,0.0,0.0,0.0,0.0,0.0,0.0,0.0,0.0,0.0,0.0,0.0,0.0,0.0,0.0,0.0,0.0,0.0,0.0,0.0,0.0,0.0,0.0,0.0,0.0,0.0,0.0,0.0,0.0,0.0,0.0,0.0,0.0,0.0,0.0,0.0,0.0,0.0,-0.2495,-0.2667,-0.3006,-0.2971,-0.3055,0.0,0.0,0.0,0.0,0.0,0.0,0.0,0.0,0.0,-0.2915,-0.3161,-0.3251,-0.309,-0.3191,-0.3311,-0.3329,-0.3585,-0.3717,-0.3675,-0.3834,-0.3944,-0.3944,-0.4073,-0.405,-0.3898,-0.3757,-0.3334,-0.2948,0.0,0.0,0.0,0.0,0.0,-0.3732,0.0,0.0,0.0,0.0,0.0,0.0,0.0,0.0,0.0,0.0,0.0,0.0,0.2576,0.2509,0.259,0.2808,0.2799,0.2806,0.2812,0.2829,0.2646,0.2306,0.1863,0.1346,0.0732,-0.0288,-0.0759,-0.074,-0.1302,-0.135,-0.0883,-0.0917,-0.0882,-0.0934,-0.109,-0.0863,-0.0343,-0.0673,-0.0416,0.0264,0.0,0.0,0.0,0.0,0.0,0.0,0.0,0.0,0.0,0.0,0.0,0.0,0.0,0.0,0.0,0.0,0.0,0.0,0.0,0.0,0.0,0.0,0.0,0.0,0.0,0.0,0.0,0.0,0.0,0.0,0.0,0.0,0.0,0.0,0.0,0.0,0.0,-0.2761,-0.2947,-0.3414,-0.3208,-0.3174,0.0,0.0,0.0,0.0,0.0,0.0,-0.3247,-0.3402,-0.3398,-0.3195,-0.3299,-0.3394,-0.3395,-0.3401,-0.3462,-0.3522,-0.3764,-0.3806,-0.3731,-0.3895,-0.4046,-0.4115,-0.4256,-0.4308,-0.4327,-0.4115,-0.3525,-0.2941,-0.3685,-0.3595,-0.3131,-0.3671,-0.3936,-0.3947,0.0,0.0,0.0,0.0,0.0,0.0,0.0,0.0,0.0,0.0,0.0,0.2312,0.2586,0.2649,0.2672,0.2721,0.2855,0.2871,0.2642,0.2805,0.2856,0.2755,0.2335,0.1753,0.1109,-0.0325,-0.1089,-0.1087,-0.0988,-0.0923,-0.0901,-0.0879,-0.0893,-0.0893,-0.1116,-0.1205,-0.1107,-0.0837,-0.0535,-0.0297,-0.0575,0.0,0.0,0.0,0.0,0.0,0.0,0.0,0.0,0.0,0.0,0.0,0.0,0.0,0.0,0.0,0.0,0.0,0.0,0.0,0.0,0.0,0.0,0.0,0.0,0.0,0.0,0.0,0.0,0.0,0.0,0.0,0.0,0.0,0.0,0.0,0.0,0.0,0.0,-0.2976,-0.279,0.0,0.0,0.0,0.0,-0.3416,-0.3434,-0.3366,-0.3217,-0.343,-0.3533,-0.3407,-0.3304,-0.3258,-0.3405,-0.3262,-0.3293,-0.3422,-0.3518,-0.3704,-0.3913,-0.3942,-0.4133,-0.4282,-0.4282,-0.4359,-0.4452,-0.4333,-0.4333,-0.4414,-0.4431,-0.4501,-0.4583,-0.4271,-0.4298,-0.442,0.0,0.0,0.0,0.0,0.0,-0.0468,0.0269,0.0947,0.1581,0.2161,0.2267,0.247,0.2814,0.2612,0.2516,0.2603,0.2572,0.2556,0.2516,0.276,0.2847,0.2752,0.3012,0.2488,0.0919,-0.024,-0.0918,-0.1038,-0.0923,-0.0691,-0.033,-0.0334,-0.0336,-0.0336,-0.0393,-0.0502,-0.0659,-0.0576,-0.051,-0.0501,-0.0047,0.032,0.0,0.0,0.0,0.0,0.0,0.0,0.0,0.0,0.0,0.0,0.0,0.0,0.0,0.0,0.0,0.0,0.0,0.0,0.0,0.0,0.0,0.0,0.0,0.0,0.0,0.0,0.0,0.0,0.0,0.0,0.0,0.0,0.0,0.0,0.0,0.0,0.0,-0.2871,-0.2805,0.0,-0.3007,-0.2883,-0.2847,-0.2869,-0.2845,-0.286,-0.3034,-0.3309,-0.3496,-0.363,-0.3736,-0.3843,-0.3951,-0.3907,-0.3993,-0.4138,-0.4091,-0.4143,-0.4218,-0.4412,-0.4508,-0.4584,-0.4584,-0.4675,-0.492,-0.4657,-0.4456,-0.4355,-0.414,-0.4182,-0.4414,-0.4223,-0.4228,-0.4365,0.0,0.0,0.0,0.0,-0.1389,-0.0768,0.0167,0.0819,0.1461,0.2133,0.2382,0.2529,0.2694,0.253,0.2441,0.2605,0.2451,0.2416,0.2663,0.283,0.2928,0.2918,0.3172,0.2434,0.0693,-0.0301,-0.0814,-0.0925,-0.0692,-0.0384,0.0,0.0,0.0,0.0,0.0,-0.0112,-0.028,-0.0274,-0.0319,-0.041,0.0099,0.0243,0.0194,0.0,0.0,0.0,0.0,0.0,0.0,0.0,0.0,0.0,0.0,0.0,0.0,0.0,0.0,0.0,0.0,0.0,0.0,0.0,0.0,0.0,0.0,0.0,0.0,0.0,0.0,0.0,0.0,0.0,0.0,0.0,0.0,0.0,0.0,0.0,-0.2466,-0.2688,-0.2624,-0.2526,-0.2567,-0.2621,-0.2638,-0.2715,-0.2763,-0.2928,-0.338,-0.3547,-0.3768,-0.4049,-0.4161,-0.4254,-0.4328,-0.4365,-0.4394,-0.4432,-0.4467,-0.4418,-0.4384,-0.458,-0.4678,-0.4757,-0.4798,-0.5015,-0.5241,-0.4803,-0.4584,-0.4517,-0.4255,-0.433,-0.4534,-0.4378,-0.433,-0.4409,0.0,0.0,0.0,-0.2203,-0.1848,-0.1241,-0.01,0.055,0.1114,0.1796,0.2302,0.2485,0.2241,0.2377,0.2516,0.2618,0.2472,0.258,0.2967,0.2946,0.3054,0.3387,0.2646,0.1649,0.0336,-0.0479,-0.0882,-0.08,-0.0276,0.0,0.0,0.0,0.0,-0.0,-0.0,-0.0056,-0.0,-0.0,0.0,-0.0,-0.0307,-0.0101,0.0353,0.0,0.0,0.0,0.0,0.0,0.0,0.0,0.0,0.0,0.0,0.0,0.0,0.0,0.0,0.0,0.0,0.0,0.0,0.0,0.0,0.0,0.0,0.0,0.0,0.0,0.0,0.0,0.0,0.0,0.0,0.0,0.0,0.0,-0.2567,-0.2188,-0.2008,-0.2502,-0.2085,-0.1867,-0.1996,-0.2359,-0.273,-0.2938,-0.3228,-0.3644,-0.423,-0.4259,-0.4317,-0.4468,-0.4419,-0.4394,-0.4394,-0.4579,-0.4574,-0.4394,-0.4579,-0.4574,-0.4399,-0.4579,-0.4713,-0.4885,-0.5069,-0.5199,-0.5366,-0.4839,-0.4713,-0.495,-0.4983,-0.4935,-0.494,-0.4774,-0.4701,-0.4706,0.0,0.0,-0.2891,-0.2213,-0.2014,-0.1636,-0.0638,0.0187,0.0855,0.1344,0.2121,0.2533,0.2231,0.2417,0.2568,0.2615,0.2454,0.2478,0.2672,0.2713,0.2763,0.2763,0.2067,0.1348,0.0668,-0.0327,-0.0817,-0.0885,-0.0279,0.0,0.0,0.0,0.0,-0.0,-0.0449,-0.0673,-0.0617,-0.0168,0.0,-0.0,-0.0106,-0.0,0.0105,0.0,0.0,0.0,0.0,0.0,0.0,0.0,0.0,0.0,0.0,0.0,0.0,0.0,0.0,0.0,0.0,0.0,0.0,0.0,0.0,0.0,0.0,0.0,0.0,0.0,0.0,0.0,0.0,0.0,0.0,0.0,-0.1891,-0.1598,-0.1855,-0.1811,-0.1799,-0.191,-0.1813,-0.1789,-0.2,-0.2451,-0.2649,-0.2513,-0.2952,-0.3451,-0.3812,-0.3908,-0.4099,-0.4646,-0.4844,-0.4936,-0.4936,-0.5054,-0.5059,-0.4864,-0.5059,-0.5059,-0.4864,-0.5059,-0.524,-0.524,-0.5183,-0.5247,-0.5406,-0.5116,-0.5032,-0.5073,-0.4403,-0.4323,-0.4535,-0.438,-0.4448,-0.4579,0.0,-0.3088,-0.3011,-0.2296,-0.2074,-0.1743,-0.098,0.0,0.0743,0.086,0.1907,0.2461,0.2056,0.2291,0.2496,0.2594,0.2534,0.2567,0.2713,0.2918,0.2737,0.1975,0.1566,0.0989,0.0169,-0.0386,-0.0714,-0.0897,-0.0561,-0.0224,0.0,0.0,0.0,-0.0,-0.0393,-0.0673,-0.0897,-0.0505,-0.0224,0.0,0.0,0.0,0.0,0.0,0.0,0.0,0.0158,0.0052,-0.0104,0.0271,0.0,0.0,0.0,0.0,0.0,0.0,0.0,0.0,0.0,0.0,0.0,0.0,0.0,0.0,0.0,0.0,0.0,0.0,0.0,0.0,0.0,0.0,0.0,0.0,-0.1806,-0.1644,-0.1614,-0.1658,-0.1709,-0.181,-0.1782,-0.181,-0.1891,-0.227,-0.2432,-0.2351,-0.2772,-0.3192,-0.3581,-0.3905,-0.425,-0.4699,-0.5032,-0.5199,-0.5199,-0.5336,-0.5336,-0.5204,-0.5336,-0.5336,-0.521,-0.5341,-0.5442,0.0,-0.5411,-0.5475,-0.5529,-0.5235,-0.5139,0.0,0.0,0.0,0.0,0.0,-0.4554,-0.4551,0.0,-0.3246,-0.3118,-0.2477,-0.2146,-0.1784,-0.1281,-0.0114,0.0624,0.0349,0.1562,0.2277,0.1781,0.2037,0.2363,0.2546,0.2598,0.27,0.291,0.3213,0.2742,0.1278,0.124,0.0605,-0.0804,-0.0552,-0.0561,-0.0897,-0.0841,-0.0561,-0.0112,-0.0056,-0.0056,-0.0112,-0.0112,-0.0393,-0.0897,-0.0897,-0.0617,-0.0112,-0.0056,-0.0,0.0,0.0,0.0,0.0,0.0,-0.033,-0.0698,-0.0162,0.0,0.0,0.0,0.0,0.0,0.0,0.0,0.0,0.0,0.0,0.0,0.0,0.0,0.0,0.0,0.0,0.0,0.0,0.0,0.0,0.0,0.0,0.0,0.0,-0.182,-0.1947,-0.1699,-0.1705,-0.1754,-0.2017,-0.1927,-0.1865,-0.1872,-0.1994,-0.2207,-0.2406,-0.2703,-0.3094,-0.3502,0.0,0.0,0.0,0.0,-0.5409,-0.5325,-0.5432,-0.5518,-0.5409,-0.5518,-0.5513,-0.5415,-0.5523,-0.5486,-0.5491,-0.5687,-0.5735,-0.5636,-0.5349,-0.5221,-0.5292,-0.5336,-0.5204,-0.4954,-0.5032,-0.4894,0.0,0.0,-0.344,-0.329,-0.2932,-0.2471,-0.2103,-0.1922,-0.0699,0.0116,-0.0186,0.112,0.1903,0.1365,0.1818,0.2144,0.2207,0.2458,0.27,0.291,0.2971,0.245,0.115,0.1026,0.0379,-0.0833,-0.0559,-0.0561,-0.0897,-0.0393,-0.0336,-0.0729,-0.0224,-0.028,-0.0729,-0.0729,-0.0785,-0.0897,-0.0897,-0.0841,-0.0729,-0.0449,-0.0168,0.0,0.0,0.0,0.0,0.0,-0.0056,-0.0168,-0.0059,0.0,-0.0221,-0.1353,-0.1262,0.0,0.0,0.0,0.0,0.0,0.0,0.0,0.0,0.0,0.0,0.0,0.0,0.0,0.0,0.0,0.0,0.0,0.0,0.0,-0.2275,-0.2016,-0.1898,-0.2128,-0.2107,-0.2114,-0.2128,-0.208,-0.2017,-0.2138,-0.2527,-0.2772,-0.2566,-0.2981,-0.3353,-0.3665,-0.4105,0.0,-0.4418,-0.522,-0.5484,-0.5039,-0.5505,-0.5598,-0.5396,0.0,0.0,-0.5396,-0.5598,-0.5697,-0.5697,-0.5725,-0.5735,-0.573,-0.562,-0.5609,-0.5588,-0.5029,-0.4787,-0.4787,-0.4787,-0.4831,-0.4889,0.0,-0.3518,-0.3153,-0.2898,-0.2368,-0.2019,-0.203,-0.0718,0.0121,-0.0365,0.0877,0.1743,0.1391,0.172,0.1998,0.2136,0.2516,0.281,0.3012,0.3037,0.2462,0.1198,0.1254,0.066,-0.0841,-0.0729,-0.0729,-0.0897,-0.0617,-0.0505,-0.0673,-0.0505,-0.0617,-0.0897,-0.0897,-0.0897,-0.0897,-0.0897,-0.0907,-0.0861,-0.0734,-0.0567,-0.0459,-0.0282,-0.0112,0.0,0.0,0.0,0.0,0.0,0.0,-0.0112,-0.0729,-0.0998,-0.1196,0.0,0.0,0.0,0.0,0.0,0.0,0.0,0.0,0.0,0.0,0.0,0.0,0.0,0.0,-0.1956,-0.1919,0.0,-0.2062,-0.2117,-0.2105,-0.2092,-0.2223,-0.2279,-0.2371,-0.2384,-0.2228,-0.2228,-0.2302,-0.2598,-0.27,-0.2614,-0.2869,-0.3134,-0.3244,-0.371,-0.3944,-0.3939,-0.4656,-0.5013,-0.5008,-0.5191,-0.5463,-0.5552,-0.5641,-0.5641,-0.5552,-0.5641,-0.5735,-0.5735,-0.5735,-0.5735,-0.5735,-0.5735,-0.5735,-0.563,-0.5339,-0.5004,-0.4789,-0.4837,-0.4769,-0.4779,0.0,-0.3551,-0.2989,-0.2819,-0.2208,-0.1823,-0.1995,-0.0733,0.0085,-0.0435,0.0684,0.1499,0.1428,0.1633,0.1896,0.2159,0.2609,0.2928,0.2998,0.3067,0.2536,0.1179,0.1433,0.0838,-0.0785,-0.0785,-0.0785,-0.0729,-0.0841,-0.0785,-0.0505,-0.0785,-0.0897,-0.0897,-0.0785,-0.0789,-0.085,-0.0907,-0.0867,-0.0771,-0.0868,-0.0872,-0.0712,-0.0459,-0.0282,-0.0168,-0.0056,0.0,0.0,0.0,0.0,0.0,0.0,-0.0768,-0.162,-0.1576,-0.1668,0.0,0.0,0.0,0.0,0.0,0.0,0.0,0.0,-0.163,-0.1737,-0.1603,-0.1884,-0.2056,-0.1759,-0.2003,-0.2149,-0.187,-0.2179,-0.2349,-0.2287,-0.2405,-0.251,-0.251,-0.2455,-0.2444,-0.2504,-0.2466,-0.2488,-0.261,-0.2676,-0.2736,-0.2798,-0.3288,-0.3588,-0.3499,-0.4032,-0.4478,-0.4741,-0.4919,-0.5191,-0.5552,-0.5641,-0.5735,-0.5735,-0.5735,-0.5735,-0.5735,-0.5735,-0.5735,-0.5735,-0.5735,-0.5735,-0.5735,-0.5641,-0.5406,-0.499,-0.5073,-0.496,-0.4812,0.0,-0.3733,-0.2959,-0.3043,-0.2321,-0.1788,-0.1986,-0.1221,-0.0621,-0.0518,0.0257,0.0877,0.1138,0.1554,0.1905,0.219,0.2633,0.2843,0.2777,0.2794,0.2295,0.0997,0.1004,0.0559,-0.0449,-0.0449,-0.0336,-0.0112,-0.0617,-0.0897,-0.0841,-0.0897,-0.0897,-0.0897,-0.0336,-0.0285,-0.0586,-0.0879,-0.0777,-0.043,-0.0795,-0.0674,-0.0306,-0.0297,-0.0518,-0.0729,-0.0168,0.0,0.0,0.0,0.0,0.0,0.0,-0.0447,-0.1121,-0.162,-0.1676,-0.1576,-0.1285,-0.1107,-0.1053,-0.1459,-0.1538,-0.155,0.0,-0.1885,-0.1913,-0.1965,-0.1904,-0.1892,-0.2067,-0.2067,-0.207,-0.2299,-0.2331,-0.2439,-0.2493,-0.2507,-0.251,-0.251,-0.2455,-0.2444,-0.2504,-0.2504,-0.255,-0.2673,-0.2738,-0.2801,-0.2861,-0.3317,-0.3409,-0.2964,-0.3853,-0.4121,-0.3764,-0.4567,-0.5008,-0.5102,-0.5463,-0.5735,-0.5735,-0.5735,-0.5735,-0.5735,-0.5735,-0.5735,-0.5735,-0.5735,-0.5735,-0.5646,-0.5463,-0.5364,-0.5354,-0.5547,-0.5636,-0.5536,0.0,0.0,-0.2838,-0.2878,-0.2121,-0.1605,-0.1913,-0.1208,-0.0563,-0.0467,0.0134,0.0688,0.1152,0.1549,0.1883,0.2235,0.2498,0.2708,0.2857,0.2852,0.2447,0.1618,0.1174,0.0391,-0.0673,-0.0336,-0.0112,-0.0,-0.0617,-0.0785,-0.0617,-0.0785,-0.0897,-0.0898,-0.0744,-0.0691,-0.0747,-0.0895,-0.0915,-0.0741,-0.0927,-0.0432,0.0308,-0.0775,-0.1155,-0.1015,-0.0234,-0.0469,0.0,-0.1295,-0.1288,-0.1319,-0.1518,-0.1303,-0.1209,-0.2247,-0.219,-0.1696,-0.1433,-0.135,-0.1359,-0.1462,-0.1581,-0.1686,-0.1827,-0.1869,-0.1924,-0.2006,-0.2014,-0.2027,-0.2188,-0.2186,-0.2252,0.0,-0.245,-0.248,-0.2507,-0.251,-0.251,-0.251,-0.2488,-0.251,-0.2608,-0.2616,-0.2668,-0.2788,-0.2823,-0.2847,-0.2872,-0.3051,-0.3141,-0.2875,-0.332,-0.3499,-0.3588,-0.4032,-0.43,-0.4567,-0.4835,-0.5013,-0.528,-0.528,-0.5463,-0.5646,-0.5374,-0.5463,-0.5646,-0.5374,-0.5463,-0.5735,-0.5641,-0.5594,-0.5642,-0.5394,-0.5325,-0.538,0.0,0.0,0.0,-0.2632,-0.1919,-0.1488,-0.1843,-0.1227,-0.0626,-0.0447,0.0046,0.0608,0.1358,0.1592,0.1826,0.2106,0.2301,0.2548,0.2769,0.2773,0.2515,0.1983,0.1446,0.0503,-0.0897,-0.0449,-0.0168,-0.0,-0.0449,-0.0505,-0.028,-0.0561,-0.0781,-0.1052,-0.1719,-0.1779,-0.1295,-0.1548,-0.1531,-0.1295,-0.1234,-0.0554,0.0246,-0.137,-0.1808,-0.1448,-0.0601,-0.066,-0.1297,-0.2357,-0.2955,-0.3377,-0.3442,-0.2838,-0.231,-0.3145,-0.2784,-0.2106,-0.1955,-0.179,-0.1674,-0.1502,-0.1676,-0.1826,-0.1842,-0.1891,-0.1962,-0.213,-0.2101,-0.2139,-0.2159,-0.2236,-0.2371,-0.2414,-0.2471,-0.251,-0.251,-0.251,-0.251,-0.251,-0.251,-0.255,-0.2657,-0.2681,-0.2736,-0.2842,-0.2864,-0.2875,-0.2875,-0.2875,-0.2875,-0.2875,-0.2875,-0.3054,-0.3409,-0.3499,-0.3767,-0.4121,-0.421,-0.4478,-0.483,-0.4919,-0.528,-0.5646,-0.5191,-0.528,-0.5641,-0.5191,-0.528,-0.5735,-0.5768,-0.5833,-0.5899,-0.5481,-0.5329,-0.5491,0.0,0.0,0.0,0.0,-0.1813,-0.1449,-0.1843,-0.1526,-0.1075,-0.0492,-0.0045,0.0627,0.1663,0.1798,0.1753,0.1615,0.1998,0.2231,0.2334,0.2556,0.2393,0.165,0.1703,0.0952,-0.0841,-0.0897,-0.0561,-0.0,-0.0,-0.0,-0.0,-0.0,-0.0496,-0.1498,-0.3495,-0.3604,-0.2303,-0.2958,-0.2811,-0.2151,-0.1903,-0.1349,-0.0855,-0.1958,-0.2334,-0.2143,-0.1427,-0.0117,0.0705,-0.2712,-0.4903,-0.6189,-0.5506,-0.5054,-0.467,-0.4282,-0.3488,-0.2786,-0.2826,-0.2499,-0.2036,-0.1742,-0.179,-0.1894,-0.1954,-0.2076,-0.2141,-0.2206,-0.2199,-0.217,-0.2173,-0.2338,-0.2417,-0.242,-0.2471,-0.251,-0.251,-0.251,-0.251,-0.251,-0.251,-0.2534,0.0,-0.2657,-0.2719,-0.2782,-0.2839,-0.2875,-0.2875,-0.2875,-0.2875,-0.2875,-0.2875,-0.2875,-0.2964,-0.3409,-0.3588,-0.3588,-0.4121,-0.43,-0.43,-0.483,-0.528,-0.5646,-0.5191,-0.528,-0.5641,-0.5191,-0.528,-0.5746,-0.5855,-0.5899,-0.5915,-0.6034,-0.6078,-0.6078,0.0,0.0,0.0,0.0,0.0,-0.1395,-0.16,-0.1468,-0.112,-0.0492,0.0403,0.0,0.0,0.0,0.0,0.0,0.1815,0.1869,0.167,0.2225,0.2325,0.1803,0.1181,0.027,-0.0867,-0.0499,-0.0224,0.0,0.0,-0.0665,-0.1901,-0.1901,-0.1916,-0.1954,-0.2952,-0.2994,-0.2338,-0.2763,-0.2951,-0.293,-0.2806,-0.2488,-0.2151,-0.3149,-0.3148,-0.2611,0.0,-0.2297,-0.1514,-0.2911,-0.4224,-0.5306,-0.5478,-0.521,-0.4689,-0.403,-0.338,-0.2848,-0.2605,-0.2219,-0.1901,-0.1815,-0.1856,-0.1946,-0.1967,-0.2113,-0.2183,-0.2164,-0.2174,-0.2186,-0.2225,-0.2338,-0.2403,-0.252,-0.2491,-0.2463,-0.2504,-0.251,-0.251,-0.251,-0.251,0.0,0.0,0.0,0.0,-0.2777,-0.2801,-0.2831,-0.2872,-0.2875,-0.2875,-0.2875,-0.2875,-0.2875,-0.2875,-0.3054,-0.3141,-0.3141,-0.3588,-0.3853,-0.3853,-0.43,-0.4656,-0.4746,-0.4567,-0.4835,-0.5196,-0.4818,-0.5079,-0.5662,-0.5578,-0.5743,-0.604,-0.6159,-0.6252,-0.6306,0.0,0.0,0.0,0.0,0.0,0.0,0.0,0.0,0.0,0.0,0.0,0.0,0.0,0.0,0.0,0.0,0.0,0.1534,0.1205,0.1693,0.2084,0.2243,0.1197,0.0106,-0.0868,-0.011,0.0223,-0.0,-0.0111,-0.115,-0.3155,-0.3028,-0.2848,-0.2627,-0.3004,-0.3023,-0.2728,-0.3099,-0.3431,-0.3704,-0.3664,-0.355,-0.353,-0.4075,-0.3849,0.0,-0.3704,-0.3649,-0.332,-0.3353,-0.4142,-0.5085,-0.5254,-0.5053,-0.4784,-0.4611,-0.4041,-0.3441,-0.3244,-0.2806,-0.2327,-0.2211,-0.2077,-0.1978,-0.2,-0.213,-0.2178,-0.2135,-0.2142,-0.2223,-0.2264,-0.2289,-0.2354,-0.2512,-0.2452,-0.2417,-0.2499,-0.251,-0.251,-0.251,-0.2529,-0.2542,0.0,0.0,0.0,-0.2744,-0.279,-0.2834,-0.2872,-0.2875,-0.2875,-0.2875,-0.2875,-0.2875,-0.2785,-0.2875,-0.2875,-0.2875,-0.323,-0.3409,-0.3588,-0.3942,-0.4121,-0.43,-0.4121,-0.43,-0.475,-0.4451,-0.4804,-0.5484,-0.5526,-0.58,-0.6105,-0.6268,-0.6377,-0.6426,0.0,0.0,0.0,0.0,0.0,0.0,0.0,0.0,0.0,0.0,0.0,0.0,0.0,0.0,0.0,0.0,0.0,0.0,0.09,0.1057,0.1602,0.2572,0.161,0.0416,-0.0892,0.0217,0.0551,0.0059,-0.0221,-0.1411,-0.3471,-0.325,-0.3195,-0.3341,-0.3724,-0.3758,-0.3447,-0.3857,-0.4207,-0.45,-0.4274,-0.4473,-0.4823,-0.4585,-0.4461,-0.4307,-0.3845,-0.405,-0.4545,-0.4082,-0.4706,-0.557,-0.4971,-0.4801,-0.5011,-0.5916,-0.5393,-0.4548,-0.4671,-0.4021,-0.3258,-0.2892,-0.241,-0.2054,-0.211,-0.2124,-0.2124,-0.2119,-0.2175,-0.2225,-0.2225,0.0,-0.2223,-0.2417,-0.2384,-0.2382,-0.2501,-0.2518,-0.2515,0.0,0.0,0.0,0.0,0.0,0.0,-0.2698,0.0,-0.2962,-0.2964,-0.2964,-0.2964,-0.2964,-0.2964,-0.2782,-0.2513,-0.2785,-0.2875,-0.2875,-0.2875,-0.3141,-0.3499,-0.3499,-0.3764,-0.421,-0.3771,-0.386,-0.4308,-0.4316,-0.4585,-0.5136,-0.5821,-0.61,-0.6121,-0.635,-0.6437,-0.6437,0.0,0.0,0.0,0.0,0.0,0.0,0.0,0.0,0.0,0.0,0.0,0.0,0.0,0.0,0.0,0.0,0.0,0.0,0.0561,0.0789,0.0374,-0.0916,-0.0298,-0.0356,-0.1193,-0.0433,0.0223,0.0682,0.0614,-0.022,-0.1674,-0.2167,-0.2894,-0.3742,-0.4082,-0.418,-0.4101,-0.428,-0.4484,-0.4636,-0.4188,-0.4263,-0.4599,-0.4314,-0.4136,-0.4138,-0.4485,-0.4635,-0.4664,-0.4077,-0.4756,-0.5707,-0.5505,-0.5487,-0.5545,-0.5531,-0.5113,-0.4601,-0.4362,-0.4015,-0.3504,-0.2922,-0.2814,-0.2666,-0.2128,-0.2093,-0.2102,-0.1946,-0.2085,-0.2221,-0.2221,-0.2305,0.0,-0.2657,-0.2526,0.0,-0.2621,-0.2608,0.0,-0.2578,0.0,-0.267,-0.267,-0.2725,0.0,0.0,-0.2788,-0.3178,-0.3939,-0.3942,-0.3942,-0.3942,-0.3942,-0.3588,-0.2785,-0.2875,-0.2785,-0.2603,-0.2603,-0.2603,-0.2601,-0.2601,-0.2603,-0.2782,-0.3191,-0.3575,-0.3857,-0.4352,-0.4939,-0.5551,-0.5669,-0.5904,-0.6241,-0.6382,-0.6437,-0.6437,0.0,0.0,0.0,0.0,0.0,0.0,0.0,0.0,0.0,0.0,0.0,0.0,0.0,0.0,0.0,0.0,0.0,0.0,0.0,0.0408,-0.0365,-0.2192,-0.1579,-0.1267,-0.1361,-0.0735,-0.0108,0.0493,0.0324,0.0212,0.0208,-0.1652,-0.3055,-0.4143,-0.4115,-0.41,-0.4063,-0.4168,-0.4314,0.0,0.0,-0.4408,-0.4691,-0.4409,-0.4287,-0.4375,-0.4732,-0.5072,-0.5301,-0.4798,-0.5121,-0.5727,-0.5631,-0.5475,-0.5396,-0.5425,-0.5249,-0.5065,-0.4959,-0.477,-0.4439,-0.4134,-0.3599,-0.3109,-0.2792,-0.24,-0.206,-0.2044,-0.2172,-0.2212,-0.2212,-0.2338,-0.2444,0.0,0.0,0.0,-0.2591,-0.2583,-0.2572,0.0,-0.2654,0.0,-0.273,-0.2788,-0.2823,0.0,-0.326,-0.3717,-0.4295,-0.43,-0.43,-0.43,-0.43,-0.421,-0.4032,-0.3496,-0.3138,-0.2959,-0.2601,-0.2345,-0.2365,-0.2365,-0.2376,-0.2398,0.0,-0.3371,-0.3468,-0.4407,-0.4997,-0.5256,-0.5704,-0.6028,-0.6182,-0.6294,-0.6437,-0.6437,0.0,0.0,0.0,0.0,0.0,0.0,0.0,0.0,0.0,0.0,0.0674,0.0,0.0,0.0,0.0,0.0,0.0,0.0,0.0,0.0,-0.0773,-0.1984,-0.2209,-0.2059,-0.155,-0.0955,-0.0461,-0.0106,-0.0461,0.0151,0.1613,-0.1543,-0.3474,-0.4376,-0.4117,-0.3968,-0.3887,-0.3894,-0.4101,-0.4428,-0.4362,-0.4573,-0.4931,0.0,-0.4606,-0.4651,-0.4831,-0.5378,-0.602,-0.5675,-0.564,-0.5686,-0.5555,-0.5213,-0.497,-0.5441,-0.5578,-0.5605,-0.5775,-0.5651,-0.551,-0.5476,-0.4485,-0.3513,-0.3668,-0.299,-0.2406,-0.247,-0.2485,-0.2466,-0.2466,-0.2402,-0.2382,-0.2523,0.0,-0.2392,-0.2529,-0.254,-0.255,-0.2597,-0.2662,-0.2725,-0.2779,-0.2839,-0.2964,-0.3051,-0.3942,-0.4478,-0.4478,-0.4567,-0.4656,-0.4656,-0.4563,-0.4741,-0.5359,-0.4291,-0.3757,-0.3757,-0.2785,-0.2456,-0.2592,-0.2507,-0.2532,-0.2476,0.0,0.0,-0.3155,-0.4407,-0.4888,-0.4805,-0.5863,-0.6095,-0.5904,-0.6299,-0.6337,-0.6337,0.0,0.0,0.0,0.0,0.0,0.0,0.0,0.0,0.0,0.0,-0.0182,0.0492,0.0,0.0,0.0,0.0,0.0,0.0,0.0,0.0,0.0,-0.1176,-0.1581,-0.1805,-0.1732,-0.1241,-0.086,-0.056,-0.0706,-0.0151,0.1009,-0.1679,-0.3409,-0.4306,-0.4432,-0.4473,-0.4473,-0.4328,-0.4407,-0.4565,-0.4242,-0.435,-0.4611,-0.4665,0.0,0.0,-0.5015,-0.5617,-0.6089,-0.5835,-0.5806,-0.5776,-0.5433,-0.5296,-0.5225,-0.5313,-0.5376,-0.536,-0.5393,-0.5466,-0.5428,-0.4814,-0.459,-0.4461,-0.4196,-0.3935,-0.3872,-0.4137,-0.3736,-0.3381,-0.3381,-0.2802,-0.2422,-0.2692,-0.255,-0.2482,-0.2706,-0.2692,-0.2646,0.0,-0.27,-0.2771,-0.2782,-0.2839,0.0,0.0,0.0,-0.5453,-0.5453,-0.6163,-0.6605,-0.6605,-0.5719,-0.527,-0.5359,-0.5008,-0.4652,-0.438,-0.3734,-0.3221,-0.2867,-0.2259,-0.1902,-0.1718,0.0,0.0,-0.3226,-0.4362,-0.5088,-0.5485,-0.5907,-0.6011,-0.6016,-0.6331,-0.6237,-0.6142,0.0,0.0,0.0,0.0,0.0,0.0,0.0,-0.286,-0.2432,-0.1653,-0.1322,-0.0531,0.1114,0.1001,0.0855,0.0,0.0,0.0,0.0,0.0,0.0,-0.0671,-0.1415,-0.1895,-0.1987,-0.1872,-0.155,-0.1044,0.0,-0.1741,-0.1473,-0.26,-0.3457,-0.4041,-0.4314,-0.44,-0.4361,-0.4344,-0.4423,-0.4548,-0.4351,-0.4423,-0.4595,0.0,0.0,0.0,-0.5496,-0.5806,-0.6061,-0.5943,-0.6116,-0.6206,-0.5785,-0.5489,-0.5337,-0.5579,-0.562,-0.5603,-0.5603,-0.586,-0.613,-0.5828,-0.5396,-0.5102,-0.5212,-0.4727,-0.4342,-0.4602,-0.4405,-0.4202,-0.4202,-0.3422,-0.2938,-0.3273,-0.2777,-0.2439,-0.2616,-0.2616,-0.26,-0.2602,-0.2654,-0.2714,-0.2777,-0.2809,0.0,0.0,0.0,-0.5897,-0.6428,-0.6871,-0.7143,-0.7143,-0.6422,-0.6334,-0.6694,-0.598,-0.5568,-0.545,-0.4589,-0.4196,-0.4284,-0.3847,-0.3594,-0.3433,-0.4449,0.0,-0.4963,-0.6299,-0.6825,-0.683,-0.6836,-0.6736,-0.6642,-0.6936,-0.703,-0.7036,0.0,0.0,0.0,0.0,0.0,0.0,-0.3488,-0.3465,-0.3137,-0.2383,-0.2265,-0.1403,0.0932,0.0897,0.0733,0.0,0.0,0.0,0.0,0.0,0.0,0.0,0.0,-0.2107,-0.2156,0.0,0.0,-0.1612,-0.2406,0.0,0.0,0.0,0.0,0.0,-0.4156,-0.4244,-0.4156,-0.4244,-0.4402,0.0,0.0,-0.4687,0.0,0.0,0.0,0.0,0.0,-0.5936,-0.6011,-0.5999,-0.6231,-0.652,-0.6145,-0.5809,-0.5563,-0.5834,-0.5876,-0.5893,-0.5817,-0.6062,-0.6406,-0.6537,-0.5924,-0.5472,-0.6094,-0.5459,-0.4816,-0.516,-0.5027,-0.4962,-0.4956,-0.4031,-0.3418,-0.3764,-0.2982,-0.239,-0.2496,-0.252,-0.2537,-0.2559,-0.2586,0.0,-0.2752,-0.2777,0.0,0.0,0.0,0.0,-0.7408,-0.7408,-0.7408,-0.7408,-0.7136,-0.7312,-0.7856,-0.6903,-0.652,-0.6539,-0.5485,-0.5313,-0.5674,-0.5401,-0.5156,-0.5127,-0.6226,0.0,0.0,-0.8011,-0.8414,-0.8018,-0.7925,-0.7726,-0.7534,-0.7826,-0.8024,-0.8124,0.0,0.0,0.0,0.0,0.0,0.0,-0.3415,-0.3649,-0.3637,-0.2985,-0.2646,-0.1692,0.0264,0.0612,0.0776,0.0,0.0,0.0,0.0,0.0,0.0,0.0,0.0,0.0,0.0,0.0,0.0,-0.229,0.0,0.0,0.0,0.0,0.0,0.0,0.0,0.0,-0.4272,-0.4288,0.0,0.0,0.0,0.0,0.0,0.0,0.0,0.0,0.0,-0.5872,-0.5843,-0.5964,-0.6052,-0.6186,-0.6344,-0.6358,-0.6273,-0.5969,-0.5927,-0.5791,-0.5466,-0.5401,-0.5425,-0.5425,-0.5361,-0.5482,-0.62,-0.6166,-0.6113,-0.6857,-0.6218,-0.5665,-0.5866,-0.4469,-0.3438,-0.3776,-0.2984,-0.2436,-0.2501,-0.2559,-0.2553,-0.245,0.0,0.0,-0.2695,-0.2752,0.0,0.0,0.0,0.0,0.0,-0.848,-0.848,-0.848,-0.8032,-0.7856,-0.7944,-0.7728,-0.7535,-0.7282,-0.6975,-0.652,-0.616,-0.5471,-0.5018,-0.4922,0.0,0.0,0.0,-0.7621,-0.8216,-0.8414,-0.8612,-0.8513,-0.8315,-0.8817,-0.8718,-0.8414,0.0,0.0,0.0,0.0,0.0,0.0,-0.3519,-0.3598,-0.3468,-0.2793,-0.2419,-0.1695,-0.022,0.0107,0.0402,0.0816,0.0,0.0,0.0,0.0,0.0,0.0,0.0,0.0,0.0,0.0,-0.2286,-0.2111,-0.2281,0.0,0.0,0.0,0.0,0.0,0.0,0.0,0.0,0.0,0.0,0.0,0.0,0.0,0.0,0.0,0.0,0.0,0.0,0.0,-0.5836,-0.5936,-0.6276,-0.667,-0.6648,-0.6794,-0.6839,-0.6256,-0.6079,-0.5901,-0.5417,-0.5433,-0.5628,-0.5628,-0.5571,-0.5678,-0.6493,-0.638,-0.6248,-0.6894,-0.6722,-0.6455,-0.6513,-0.5557,-0.4766,-0.4572,-0.3734,-0.2914,-0.247,-0.2425,-0.2422,-0.2373,-0.2859,0.0,0.0,0.0,0.0,0.0,0.0,0.0,0.0,-0.8568,-0.8568,-0.8568,-0.8296,-0.8078,-0.8005,-0.7793,-0.783,-0.7834,-0.7561,-0.7466,-0.755,-0.7111,-0.683,-0.6731,0.0,0.0,0.0,-0.9312,-0.9903,-1.0297,-0.9698,-0.9509,-0.9608,-0.9805,-0.9895,-0.9895,0.0,0.0,0.0,0.0,0.0,-0.4166,-0.3595,-0.3675,-0.3439,-0.2651,-0.2575,-0.205,-0.0568,-0.0376,-0.005,0.0656,0.0684,0.0,0.0,0.0,0.0,0.0,0.0,0.0,0.0,0.0,-0.2299,-0.2007,-0.2189,-0.2429,0.0,0.0,0.0,0.0,0.0,0.0,0.0,0.0,0.0,0.0,0.0,0.0,0.0,0.0,0.0,0.0,0.0,0.0,0.0,0.0,0.0,-0.6905,-0.6807,-0.6978,-0.7131,-0.6423,-0.6181,-0.6002,-0.5433,-0.5441,-0.5653,-0.5718,-0.5678,-0.5876,-0.6573,-0.6431,-0.6358,-0.6889,-0.6876,-0.6876,-0.6942,-0.6392,-0.5755,-0.5377,-0.4501,-0.3714,-0.3154,-0.3001,-0.2848,-0.2651,0.0,-0.3776,0.0,0.0,0.0,0.0,0.0,0.0,0.0,-0.8568,-0.8568,-0.8568,-0.8384,-0.8197,-0.8102,-0.7964,-0.7937,-0.8111,-0.8056,-0.8126,-0.8237,-0.8038,-0.8038,-0.8038,0.0,0.0,0.0,-1.0314,-1.0904,-1.1198,-1.0699,-1.06,-1.0708,-1.069,-1.0788,-1.0984,0.0,0.0,0.0,0.0,0.0,0.0,-0.3679,-0.3873,-0.3706,-0.2719,-0.3319,-0.2997,-0.0643,-0.068,-0.0485,0.0602,0.0706,0.0,0.0,0.0,0.0,0.0,0.0,0.0,0.0,0.0,-0.2242,-0.2278,-0.2278,-0.2665,-0.3313,-0.3423,-0.3785,0.0,0.0,0.0,0.0,0.0,0.0,0.0,0.0,0.0,-0.6209,0.0,0.0,0.0,0.0,0.0,0.0,0.0,0.0,0.0,0.0,-0.6883,-0.7016,-0.6478,-0.6276,-0.6088,-0.5442,-0.5297,-0.5305,-0.5305,-0.562,-0.6009,-0.631,-0.6417,-0.6548,-0.7073,-0.6933,-0.6802,-0.7138,-0.6555,-0.6072,-0.6151,-0.5219,-0.4613,-0.4806,-0.4651,-0.4181,0.0,0.0,-0.4299,0.0,0.0,0.0,0.0,0.0,0.0,0.0,-0.8568,-0.8568,-0.8568,-0.8384,-0.8197,-0.8102,-0.8258,-0.8131,-0.7814,-0.816,-0.8237,-0.8038,-0.8038,-0.8038,0.0,0.0,0.0,0.0,-0.9912,-1.0413,-1.0511,-1.1296,-1.159,-1.159,-1.1296,-1.1394,-1.159,0.0,0.0,0.0,0.0,0.0,0.0,-0.329,-0.3586,-0.3576,-0.269,-0.2799,-0.2379,-0.0819,-0.0608,-0.024,0.0631,0.0649,0.0,0.0,0.0,0.0,0.0,0.0,0.0,0.0,-0.2346,-0.2334,-0.2426,-0.2488,-0.2828,-0.3522,-0.3804,-0.4036,-0.4274,-0.4726,0.0,0.0,0.0,0.0,0.0,0.0,-0.5982,-0.6164,0.0,0.0,0.0,0.0,0.0,0.0,0.0,0.0,0.0,0.0,0.0,0.0,-0.6673,-0.6736,-0.6839,-0.652,-0.6319,-0.6164,-0.6104,-0.6138,-0.6316,-0.6697,-0.6574,-0.6482,-0.6942,-0.6876,-0.6876,-0.6942,-0.7038,-0.6772,-0.5955,-0.5638,-0.5205,-0.4399,-0.443,0.0,-0.4461,-0.5246,-0.591,0.0,0.0,0.0,0.0,0.0,0.0,0.0,-0.8568,-0.8568,-0.8568,-0.8472,-0.8438,-0.8266,-0.8497,-0.8475,-0.8259,-0.8308,-0.8336,-0.8237,-0.8038,0.0,0.0,0.0,0.0,0.0,-0.9122,-0.9616,-1.0117,-1.0413,-1.0806,-1.1296,-1.1198,-1.159,-1.2078,0.0,0.0,0.0,0.0,0.0,0.0,-0.3087,-0.322,-0.3206,-0.2461,-0.2322,-0.1862,-0.0724,-0.0391,0.0,0.0633,0.065,0.0,0.0,0.0,0.0,0.0,0.0,0.0,-0.2726,-0.2616,-0.2551,-0.2675,-0.2685,-0.2966,-0.3482,-0.3971,-0.4267,-0.4326,-0.4897,-0.5014,0.0,0.0,0.0,0.0,-0.5817,-0.5995,-0.6173,0.0,0.0,0.0,0.0,0.0,0.0,0.0,0.0,0.0,0.0,0.0,0.0,0.0,-0.7215,-0.7223,-0.7084,-0.7012,-0.6904,-0.6705,-0.6741,-0.6836,-0.6813,-0.6733,-0.6631,-0.6828,-0.6763,-0.6775,-0.6981,-0.714,-0.7028,-0.6503,-0.6261,-0.597,-0.5532,-0.5434,0.0,-0.5977,0.0,0.0,0.0,0.0,0.0,0.0,0.0,0.0,0.0,0.0,-0.8568,-0.8568,-0.8568,-0.8551,-0.8426,-0.8613,-0.8688,-0.8528,-0.8428,-0.8428,-0.8428,-0.8137,0.0,0.0,0.0,0.0,0.0,-0.8726,-0.9122,-0.9723,-0.9821,-1.0314,-1.0904,-1.0708,-1.1198,-1.1883,0.0,0.0,0.0,0.0,0.0,0.0,0.0,-0.2904,-0.2672,-0.2047,-0.1917,-0.1469,-0.0395,-0.0094,0.0232,0.0647,0.0704,0.0,0.0,0.0,0.0,0.0,0.0,0.0,-0.3081,-0.2971,-0.2923,-0.2941,-0.2955,-0.3001,-0.3219,-0.4071,-0.4454,-0.4519,-0.5097,-0.5229,0.0,0.0,0.0,0.0,-0.609,-0.6163,0.0,0.0,0.0,0.0,0.0,0.0,0.0,0.0,0.0,0.0,0.0,0.0,0.0,0.0,0.0,0.0,0.0,-0.7314,-0.7502,-0.7157,-0.7344,-0.7463,-0.6821,-0.6828,0.0,-0.6854,-0.6572,-0.6485,-0.7084,-0.6985,-0.691,-0.7408,-0.6839,-0.6672,-0.7577,-0.7334,0.0,0.0,0.0,0.0,0.0,0.0,0.0,0.0,0.0,0.0,0.0,0.0,-0.8568,-0.8568,-0.8568,-0.8641,-0.8683,-0.8699,-0.8775,-0.881,-0.8528,-0.8428,-0.8435,-0.8137,0.0,0.0,0.0,0.0,0.0,-0.8528,-0.8931,-0.9137,-0.9426,-0.9821,-1.0314,-0.9821,-1.0314,-1.1198,0.0,0.0,0.0,0.0,0.0,0.0,0.0,0.0,0.0,0.0,-0.1706,-0.1422,-0.0352,0.0089,0.0408,0.0,0.0,0.0,0.0,0.0,0.0,0.0,0.0,0.0,-0.2322,-0.2756,-0.3064,-0.3209,-0.3261,-0.3276,-0.3226,-0.452,-0.487,-0.4492,-0.5692,-0.5971,0.0,0.0,0.0,0.0,-0.6042,-0.619,0.0,0.0,0.0,0.0,-0.6009,-0.6322,0.0,0.0,0.0,0.0,0.0,0.0,0.0,0.0,-0.7495,-0.7685,-0.7685,0.0,-0.7521,-0.7437,-0.7456,-0.7373,0.0,-0.6864,-0.6839,-0.6589,-0.632,-0.6344,-0.6864,-0.6694,-0.6608,-0.6958,-0.6589,-0.6443,-0.7021,-0.747,0.0,-0.7541,0.0,0.0,0.0,0.0,0.0,0.0,0.0,0.0,0.0,0.0,-0.8568,-0.8568,-0.8568,-0.8577,-0.8428,-0.8838,-0.9013,-0.8937,-0.897,-0.8931,-0.8726,-0.8428,0.0,0.0,0.0,0.0,-0.8336,-0.8428,-0.8535,-0.8634,-0.8924,-0.932,-0.9813,-0.9624,-1.0413,-1.1492,0.0,0.0,0.0,0.0,0.0,0.0,0.0,0.0,0.0,0.0,-0.1482,-0.1189,-0.0042,0.0263,0.0495,0.0,0.0,0.0,0.0,0.0,0.0,0.0,0.0,-0.1561,-0.2273,-0.2945,-0.3335,-0.3466,-0.3533,-0.3508,-0.3493,-0.5068,-0.5373,-0.4703,-0.5918,-0.6266,0.0,0.0,0.0,-0.6163,-0.6236,0.0,0.0,0.0,0.0,0.0,-0.619,-0.6459,0.0,-0.6879,-0.7128,-0.7467,0.0,0.0,0.0,0.0,-0.7337,-0.7539,-0.7547,-0.7832,-0.8078,-0.7932,-0.7904,-0.7803,-0.7261,-0.7091,-0.6931,-0.6506,-0.6258,-0.6228,-0.6713,-0.6588,-0.6521,-0.6987,-0.6843,-0.6846,0.0,0.0,-0.8177,-0.7811,0.0,0.0,0.0,0.0,0.0,0.0,0.0,0.0,0.0,0.0,-0.8568,-0.8568,-0.8568,-0.8561,-0.8548,-0.8914,-0.9091,-0.9164,-0.9151,-0.9031,-0.8825,-0.8528,0.0,0.0,0.0,0.0,-0.8528,-0.8428,-0.8428,-0.8627,-0.8627,-0.8825,-0.9221,-0.9327,-1.0216,-1.1208,0.0,0.0,0.0,0.0,0.0,0.0,0.0,0.0,0.0,0.0,0.0,0.0,0.0,0.0,0.0,0.0,0.0,0.0,0.0,0.0,0.0,0.0,-0.0982,-0.1705,-0.2361,-0.3199,-0.3648,-0.3711,-0.3746,-0.3794,-0.3823,-0.5498,-0.5853,-0.5186,-0.6082,-0.6442,-0.638,0.0,0.0,-0.6584,-0.639,0.0,0.0,0.0,0.0,0.0,0.0,0.0,0.0,-0.7155,-0.7349,-0.748,-0.7602,0.0,0.0,0.0,0.0,0.0,-0.7245,-0.7964,-0.8641,-0.8321,-0.8334,-0.8263,-0.7734,-0.749,-0.7229,-0.6764,-0.6404,-0.6375,-0.6796,-0.6556,-0.6547,-0.7123,-0.7163,0.0,-0.7537,-0.8065,-0.8311,0.0,0.0,0.0,0.0,0.0,0.0,0.0,0.0,0.0,0.0,0.0,0.0,-0.8568,-0.8568,-0.8633,-0.8779,-0.8991,-0.9169,-0.9315,-0.9331,-0.913,-0.8825,-0.8634,-0.8528,0.0,0.0,0.0,-0.8825,-0.8627,-0.8627,-0.8825,-0.8627,-0.8627,-0.8924,-0.913,-0.9937,-1.0879,0.0,0.0,0.0,0.0,0.0,0.0,0.0,0.0,0.0,0.0,0.0,0.0,0.0,0.0,0.0,0.0,0.0,0.0,0.0,0.0,0.0,0.0539,-0.0714,-0.152,-0.1725,-0.3076,-0.3783,-0.3845,-0.4075,-0.4078,-0.3828,-0.4937,-0.5581,-0.5864,-0.6482,-0.649,-0.6174,-0.6786,0.0,-0.6057,-0.6207,0.0,0.0,0.0,0.0,0.0,0.0,0.0,0.0,-0.6905,-0.707,-0.7379,-0.7105,0.0,0.0,0.0,0.0,0.0,-0.7401,-0.7736,-0.8078,-0.8048,-0.8215,-0.8372,-0.8122,-0.8144,-0.8125,-0.7715,-0.7252,-0.7021,-0.7538,-0.704,-0.6706,0.0,0.0,-0.688,0.0,0.0,0.0,0.0,0.0,0.0,0.0,0.0,0.0,0.0,0.0,0.0,0.0,0.0,0.0,-0.856,-0.8568,-0.8576,-0.8609,-0.8934,-0.9112,-0.9137,-0.9372,-0.9434,-0.9137,-0.9137,-0.8931,0.0,0.0,-0.8931,-0.9137,-0.9137,-0.9137,-0.9137,-0.9137,-0.9137,-0.9137,-0.9137,-1.0021,-1.1309,0.0,0.0,0.0,0.0,0.0,0.0,0.0,0.0,0.0,0.0,0.0,0.0,0.0,0.0,0.0,0.0,0.0,0.0,0.0,0.0,0.0733,0.0765,-0.0382,-0.1214,-0.1608,-0.3131,-0.3978,-0.4136,-0.426,-0.4311,-0.4276,-0.4815,-0.5567,-0.6446,-0.6527,-0.6615,-0.6639,-0.6967,-0.6907,-0.6568,0.0,0.0,0.0,0.0,0.0,0.0,0.0,0.0,0.0,0.0,-0.7118,-0.7401,-0.7146,0.0,0.0,0.0,0.0,0.0,-0.7242,-0.7643,-0.8052,-0.8127,-0.8284,-0.8404,-0.8332,-0.8308,-0.815,-0.7806,-0.7521,-0.7372,-0.7668,0.0,-0.6969,-0.7317,0.0,0.0,0.0,0.0,0.0,0.0,0.0,0.0,0.0,0.0,0.0,0.0,0.0,0.0,0.0,0.0,0.0,0.0,-0.8568,-0.8568,-0.8568,-0.8917,-0.9096,-0.9104,-0.9462,-0.9434,-0.9236,-0.9236,-0.9137,-0.9031,0.0,-0.913,-0.9434,-0.9236,-0.9236,-0.9236,-0.9236,-0.9236,-0.9343,-1.0129,-1.1089,-1.2128,0.0,0.0,0.0,0.0,0.0,0.0,0.0,0.0,0.0,0.0,0.0,0.0,0.0,0.0,0.0,0.0,0.0,0.0,0.0,0.072,0.0743,0.0795,-0.0202,-0.1033,-0.1584,-0.3259,-0.4154,-0.4294,-0.4417,-0.4516,-0.472,-0.4712,-0.5269,-0.625,-0.6327,-0.6472,-0.6733,-0.697,-0.7049,-0.6962,0.0,0.0,0.0,0.0,0.0,0.0,0.0,0.0,0.0,0.0,0.0,0.0,0.0,0.0,0.0,-0.7327,-0.73,-0.7279,-0.733,-0.7775,-0.8203,-0.8189,-0.8434,-0.8699,-0.8699,-0.8563,-0.8457,-0.8307,-0.817,-0.807,0.0,-0.7569,0.0,-0.7633,0.0,0.0,0.0,0.0,0.0,0.0,0.0,0.0,0.0,0.0,0.0,0.0,0.0,0.0,0.0,0.0,0.0,0.0,-0.8568,-0.8568,-0.8568,-0.8917,-0.9096,-0.9104,-0.9462,-0.9533,-0.9335,-0.9335,-0.9335,-0.9335,-0.9335,-0.9434,-0.9624,-0.9335,-0.9335,-0.9335,-0.9335,-0.9335,-0.9657,-1.108,-1.2089,-1.2791,0.0,0.0,0.0,0.0,0.0,0.0,0.0,0.0,0.0,0.0,0.0,0.0,0.0,0.0,0.0,0.0,0.0,0.0,0.0,0.072,0.0733,0.0814,-0.0358,-0.1216,-0.1693,-0.3436,-0.4357,-0.4289,-0.4751,-0.488,-0.472,-0.4603,-0.454,-0.4648,-0.5642,-0.592,-0.5564,-0.6568,-0.6822,-0.6569,-0.6567,0.0,0.0,0.0,0.0,0.0,0.0,0.0,0.0,0.0,0.0,0.0,0.0,0.0,-0.7871,-0.784,-0.7793,-0.7789,-0.8038,-0.814,-0.8179,-0.8038,-0.8796,-0.9518,-0.9518,-0.9658,-0.9862,-1.0087,-0.9818,0.0,0.0,-0.8412,-0.7852,-0.8121,0.0,0.0,0.0,0.0,0.0,0.0,0.0,0.0,0.0,0.0,0.0,0.0,0.0,0.0,0.0,0.0,0.0,0.0,0.0,-0.8568,-0.8568,-0.8917,-0.9096,-0.9104,-0.9462,-0.9624,-0.9533,-0.9533,-0.9533,-0.9533,-0.9533,-0.9624,-0.9624,-0.9533,-0.9533,-0.9533,-0.9533,-0.992,-1.0457,-1.1448,-1.2226,-1.2812,0.0,0.0,0.0,0.0,0.0,0.0,0.0,0.0,0.0,0.0,0.0,-0.0583,0.0584,0.0,0.0,0.0,0.0,0.0,0.0,0.072,0.074,0.0789,0.0363,-0.0382,-0.1448,-0.3525,-0.4574,-0.4546,-0.481,-0.4856,-0.4675,-0.4495,-0.4411,-0.4527,-0.51,-0.5748,-0.6445,-0.6433,-0.6824,-0.7358,-0.6738,-0.6322,0.0,0.0,0.0,0.0,0.0,0.0,0.0,0.0,-0.691,-0.711,-0.7033,-0.7512,-0.8127,-0.788,-0.7811,-0.7838,-0.7899,-0.8101,-0.8148,-0.7956,-0.8644,-0.9285,-0.8714,-0.8762,-0.8985,-0.8867,-0.9001,0.0,0.0,0.0,-0.8061,0.0,0.0,0.0,0.0,0.0,0.0,0.0,0.0,0.0,0.0,0.0,0.0,0.0,0.0,0.0,0.0,0.0,0.0,0.0,0.0,-0.8568,-0.8568,-0.8917,-0.9096,-0.9104,-0.9462,-0.9624,-0.9624,-0.9624,-0.9624,-0.9624,-0.9624,-0.9624,-0.9624,-0.9624,-0.9624,-0.9624,-0.9624,-1.0186,-1.1116,-1.1718,-1.2531,-1.3425,0.0,0.0,0.0,0.0,0.0,0.0,0.0,0.0,-0.2059,0.0,0.0,0.0,0.0,0.072,0.0,0.0,0.0,0.0,0.072,0.072,0.0742,0.0791,0.0771,0.0214,-0.1004,-0.2738,-0.39,-0.4495,-0.4734,-0.4745,-0.4688,-0.454,-0.4496,-0.4473,-0.493,-0.5817,-0.6925,-0.6418,-0.6906,-0.798,-0.7161,-0.6591,0.0,0.0,0.0,0.0,0.0,0.0,0.0,0.0,-0.689,-0.7328,-0.7177,-0.7727,-0.8441,-0.8154,-0.8121,-0.8215,-0.8126,-0.8377,-0.8522,-0.8174,-0.8715,-0.9055,-0.8176,-0.8263,-0.8515,-0.8354,-0.8499,-0.8665,-0.8855,0.0,0.0,0.0,0.0,0.0,0.0,0.0,0.0,0.0,0.0,0.0,0.0,0.0,0.0,0.0,0.0,0.0,0.0,0.0,0.0,0.0,0.0,-0.8568,-0.8568,-0.8861,-0.9039,-0.9104,-0.9397,-0.9567,-0.9624,-0.9624,-0.9624,-0.9624,-0.9624,-0.9624,-0.9624,-0.9624,-0.9624,-0.9624,-0.9624,-1.0427,-1.152,-1.1849,-1.2685,-1.3857,0.0,0.0,0.0,0.0,0.0,0.0,0.0,0.0,-0.1928,-0.121,-0.0984,0.0,0.0,0.0,0.0,0.0,0.0,0.0,0.072,0.072,0.0733,0.0811,0.0741,0.0364,-0.039,-0.0953,-0.2184,-0.4115,-0.449,-0.4683,-0.4622,-0.4822,-0.4621,-0.4241,-0.5166,-0.5948,-0.6606,-0.6554,-0.7139,-0.8092,-0.7884,-0.7298,-0.6551,0.0,0.0,0.0,0.0,0.0,0.0,0.0,-0.7048,-0.7695,-0.7623,-0.8151,-0.8794,-0.8659,-0.8885,-0.9167,-0.8898,-0.912,-0.9372,-0.8722,-0.897,-0.9079,-0.8112,-0.8492,-0.899,-0.8978,-0.8654,-0.8719,-0.9817,-0.9034,0.0,0.0,0.0,0.0,0.0,0.0,0.0,0.0,0.0,0.0,0.0,0.0,0.0,0.0,0.0,0.0,0.0,0.0,0.0,0.0,0.0,0.0,-0.8568,-0.8739,-0.8909,-0.9096,-0.9275,-0.9453,-0.9624,-0.9624,-0.9624,-0.9624,-0.9624,-0.9624,-0.9624,-0.9624,-0.9624,-0.9624,-0.9624,-1.0427,-1.152,-1.1849,-1.2685,-1.3857,0.0,0.0,0.0,0.0,0.0,0.0,0.0,0.0,-0.1478,-0.0582,-0.0447,0.0,0.0,0.0,0.0,0.0,0.0,0.0,0.072,0.081,0.0814,0.0732,0.0761,0.049,-0.015,-0.1428,-0.2569,-0.3535,-0.4246,-0.4593,-0.4616,-0.4546,-0.4578,-0.469,-0.485,-0.5672,-0.6934,-0.6559,-0.7134,-0.8306,-0.7882,-0.7503,-0.709,0.0,0.0,0.0,0.0,0.0,0.0,0.0,0.0,0.0,-0.7654,-0.834,-0.903,-0.8723,-0.8975,-0.9254,-0.877,-0.8684,-0.8581,-0.8451,-0.8827,-0.9001,-0.8011,-0.8203,-0.8522,0.0,-0.8795,-0.8929,-0.9135,0.0,0.0,0.0,0.0,0.0,0.0,0.0,0.0,0.0,0.0,0.0,0.0,0.0,0.0,0.0,0.0,0.0,0.0,0.0,0.0,0.0,0.0,0.0,-0.8568,-0.9357,-0.954,-0.9096,-0.9275,-0.9453,-0.9624,-0.9624,-0.9624,-0.9624,-0.9624,-0.9624,-0.9624,-0.9624,-0.9624,-0.9624,-0.9624,-1.0427,-1.152,-1.1849,-1.2685,-1.3857,0.0,0.0,0.0,0.0,0.0,0.0,-0.1386,-0.1254,-0.085,-0.0134,0.0223,0.0714,0.0,0.0,0.0,0.112,0.0943,0.0,0.072,0.0765,0.0765,0.072,0.0748,0.0629,0.0299,-0.0968,-0.1942,-0.2569,-0.3737,-0.4375,-0.4387,-0.4406,-0.4528,-0.4615,-0.464,-0.5421,-0.6623,-0.6182,-0.6845,-0.8118,-0.7789,-0.7635,-0.7535,0.0,0.0,0.0,0.0,0.0,0.0,0.0,0.0,0.0,-0.7576,-0.796,-0.8387,-0.8443,-0.8691,-0.9045,-0.8914,-0.8942,-0.8984,-0.9019,-0.9152,-0.9134,-0.8513,-0.8153,0.0,0.0,-0.8511,-0.8449,-0.8643,-0.8533,0.0,0.0,0.0,0.0,0.0,0.0,0.0,0.0,0.0,0.0,0.0,0.0,0.0,0.0,0.0,0.0,0.0,0.0,0.0,0.0,0.0,0.0,-0.8911,-0.9544,-0.9525,-0.8898,-0.9169,-0.9348,-0.9323,-0.9493,-0.9624,-0.9624,-0.9624,-0.9624,-0.9624,-0.9624,-0.9723,-0.992,-0.9723,-1.0527,-1.1822,-1.1849,-1.2685,-1.3857,0.0,0.0,-0.2176,-0.163,0.0,0.0,-0.1336,-0.076,-0.0179,0.0223,0.0891,0.1472,0.0,0.0,0.0,0.112,0.0853,0.072,0.072,0.072,0.072,0.072,0.0751,0.0843,0.0899,0.0055,-0.071,-0.1314,-0.3039,-0.3903,-0.3971,-0.4284,-0.4357,-0.4215,-0.4576,-0.5185,-0.5849,-0.5616,-0.6321,-0.7667,-0.7667,-0.7734,-0.7847,-0.7797,0.0,0.0,0.0,0.0,0.0,0.0,0.0,0.0,-0.7498,-0.7267,-0.7223,-0.7784,-0.8259,-0.8646,-0.9115,-0.955,-0.9939,-1.0053,-0.9741,-0.9382,-0.929,-0.8348,-0.7663,-0.8462,0.0,-0.7673,-0.8206,0.0,0.0,0.0,0.0,0.0,0.0,0.0,0.0,0.0,0.0,0.0,0.0,0.0,0.0,0.0,0.0,0.0,0.0,0.0,0.0,0.0,0.0,0.0,-0.9349,-0.9437,-0.9181,0.0,-0.9007,-0.9091,-0.8979,-0.9445,-0.9624,-0.9624,-0.9624,-0.9624,-0.9624,-0.9624,-0.992,-1.0314,-0.992,-1.0816,-1.2204,-1.2045,-1.2769,-1.3825,0.0,0.0,-0.1935,-0.168,0.0,0.0,-0.1027,-0.0403,0.0224,0.0671,0.1383,0.1921,0.2148,0.1925,0.0,0.1299,0.1033,0.081,0.072,0.081,0.081,0.072,0.077,0.0803,0.0817,0.0053,-0.0417,-0.0536,-0.2202,-0.3284,-0.3855,-0.4013,-0.42,-0.4342,-0.4458,-0.4911,-0.5609,-0.5557,-0.6285,-0.7367,-0.7367,-0.7783,-0.8332,-0.7598,-0.7458,0.0,0.0,0.0,0.0,0.0,0.0,0.0,-0.7585,-0.751,-0.7308,-0.7467,-0.8134,-0.8776,-0.8585,-0.892,-0.9325,-0.9598,-0.9125,-0.8755,-0.9062,-0.8512,-0.8021,-0.8438,-0.8408,-0.8291,0.0,0.0,0.0,0.0,0.0,0.0,0.0,0.0,0.0,0.0,0.0,0.0,0.0,0.0,0.0,0.0,0.0,0.0,0.0,0.0,0.0,0.0,0.0,-1.0636,-0.9864,-1.0549,-1.0221,0.0,-0.9468,-0.9468,-0.8979,-0.9445,-0.9624,-0.9624,-0.9624,-0.9624,-0.9624,-1.0019,-1.0314,-1.0413,-1.0708,-1.1315,-1.2092,-1.2404,-1.2987,-1.361,0.0,0.0,0.0,0.0,0.0,0.0,0.0,0.0,0.0089,0.1029,0.1564,0.201,0.2277,0.2059,0.0,0.0,0.112,0.0988,0.0898,0.0898,0.0863,0.074,0.077,0.0787,0.0787,0.0401,0.0049,-0.0231,-0.1395,-0.2371,-0.3192,-0.3755,-0.4153,-0.4472,-0.4411,-0.464,-0.5033,-0.4889,-0.5603,-0.6858,-0.6918,-0.7606,-0.8488,-0.7847,-0.7663,-0.7642,-0.7058,0.0,0.0,0.0,0.0,0.0,0.0,0.0,-0.6677,-0.7408,-0.8049,-0.8551,-0.8701,-0.9001,-0.9285,-0.9182,-0.8873,-0.872,-0.9009,-0.8733,-0.8441,-0.8582,-0.8506,-0.8376,0.0,0.0,0.0,0.0,0.0,0.0,0.0,0.0,0.0,0.0,0.0,0.0,0.0,0.0,0.0,0.0,0.0,0.0,0.0,0.0,0.0,0.0,-1.0583,-1.0992,-1.0289,-1.0722,-1.0435,-0.9402,-0.9505,-0.9376,-0.8979,-0.9445,-0.9624,-0.9624,-0.9624,-0.9723,-1.0019,-1.0314,-1.0708,-1.1198,-1.1198,-1.1688,-1.2433,-1.2588,-1.2956,-1.3339,0.0,0.0,0.0,0.0,0.0,0.0,0.0,0.0,0.0,0.1029,0.1564,0.1966,0.2237,0.2062,0.1794,0.0,0.0,0.0,0.112,0.0988,0.0917,0.0906,0.0813,0.0814,0.082,0.0815,0.0516,-0.0045,-0.0668,-0.1428,-0.2339,-0.344,-0.4107,-0.4399,-0.4427,-0.4393,-0.4449,-0.4116,-0.4901,-0.6318,-0.6339,-0.7074,-0.8203,-0.791,-0.7598,-0.7339,-0.7092,-0.6985,-0.6999,-0.7092,0.0,0.0,0.0,0.0,-0.622,-0.7357,-0.7915,-0.819,-0.8741,-0.9099,-0.9149,-0.8632,-0.8569,-0.8753,-0.8907,-0.882,-0.872,-0.8765,-0.8506,0.0,0.0,0.0,0.0,0.0,0.0,0.0,0.0,0.0,0.0,0.0,0.0,0.0,0.0,0.0,0.0,0.0,0.0,0.0,-0.9322,0.0,-1.0191,-1.0233,-1.0889,-1.1133,-1.0982,-1.0809,-1.0376,-0.9689,-0.9481,-0.9317,-0.9268,-0.9543,-0.9723,-0.9624,-0.9723,-1.0019,-1.0413,-1.0609,-1.1198,-1.198,-1.159,-1.198,-1.2813,-1.2749,-1.2823,-1.3122,0.0,0.0,0.0,0.0,0.0,0.0,0.0,0.0,0.0,0.0,0.1339,0.2103,0.2062,0.1928,0.1705,0.1344,0.1165,0.112,0.112,0.0,0.0,0.1236,0.0952,0.0871,0.095,0.0874,0.0762,0.0663,-0.0132,-0.0839,-0.1579,-0.3106,-0.3949,-0.4152,-0.4306,-0.4363,-0.421,-0.4081,-0.4777,-0.6017,-0.5349,-0.5997,-0.7218,-0.6778,-0.6671,-0.6756,-0.6907,-0.6985,-0.7052,-0.7478,-0.7662,0.0,0.0,0.0,-0.7059,-0.699,-0.751,-0.7997,-0.7568,-0.7753,-0.7926,-0.7323,-0.7537,-0.7979,-0.8286,0.0,-0.8458,0.0,0.0,0.0,0.0,0.0,0.0,0.0,0.0,0.0,0.0,0.0,0.0,0.0,0.0,0.0,0.0,0.0,0.0,0.0,0.0,0.0,-0.9322,-0.9632,-1.0253,-1.118,-1.0896,-1.1302,-1.2443,-1.1596,-1.0906,-1.0212,-1.0067,-1.0193,-1.0332,-1.0325,-1.0019,-0.9624,-1.0117,-1.0314,-1.0511,-1.1394,-1.1883,-1.2078,-1.2467,-1.2662,-1.2791,-1.2961,-1.2983,-1.309,0.0,0.0,0.0,0.0,0.0,0.0,0.0,0.0,0.0,0.0,0.0,0.1163,0.1705,0.1705,0.1612,0.1389,0.1299,0.1254,0.121,0.1165,0.1131,0.1196,0.1058,0.0975,0.0947,0.0885,0.0831,0.0739,0.0,-0.0736,-0.1521,-0.2782,-0.3677,-0.4339,-0.4479,-0.4486,-0.4326,-0.412,-0.4552,-0.5367,-0.5101,-0.5849,-0.7118,-0.6672,-0.6798,-0.7195,-0.7058,-0.6985,-0.6996,-0.6875,-0.7056,-0.7254,-0.6579,0.0,0.0,0.0,-0.7437,-0.8058,-0.7758,-0.7279,-0.6932,-0.7149,-0.7723,-0.8316,-0.8681,-0.8871,-0.9012,-0.9064,0.0,0.0,0.0,0.0,0.0,0.0,0.0,0.0,0.0,0.0,0.0,0.0,0.0,0.0,0.0,0.0,0.0,0.0,0.0,-0.969,-0.9473,-0.9689,-1.009,-1.0423,-1.0624,-1.0952,-1.1556,-1.1359,-1.1003,-1.0299,-1.0639,-1.0622,-1.035,-1.066,-1.0609,-1.0019,-1.0314,-1.0609,-1.0904,-1.1688,-1.2175,-1.2467,-1.2662,-1.2759,-1.2791,-1.3017,-1.2951,-1.2884,0.0,0.0,0.0,0.0,0.0,0.0,0.0,0.0,0.0,0.0,0.0,0.0626,0.1657,0.0,0.0,0.0,0.1523,0.1478,0.1389,0.1344,0.1299,0.121,0.1165,0.1075,0.0988,0.0988,0.0898,0.0765,0.0246,-0.0558,-0.1608,-0.2413,-0.3425,-0.4513,-0.4661,-0.4624,-0.4448,-0.416,-0.4386,-0.4888,-0.484,-0.553,-0.6611,-0.6586,-0.6844,-0.7266,-0.7039,-0.692,-0.6773,-0.6236,-0.6361,-0.651,-0.5666,-0.6037,0.0,0.0,0.0,-0.741,-0.7384,-0.6678,-0.6187,-0.7182,-0.7959,-0.8669,0.0,0.0,-0.9491,0.0,0.0,0.0,0.0,0.0,0.0,0.0,0.0,0.0,0.0,0.0,0.0,0.0,0.0,0.0,0.0,0.0,0.0,0.0,0.0,-0.9841,-0.9625,-0.9781,-0.9974,-1.0027,-1.0437,-1.0762,-1.1066,-1.123,-1.1003,-1.0472,-1.104,-1.1069,-1.0584,-1.1048,-1.1053,-1.0806,-1.0806,-1.1002,-1.1394,-1.198,-1.2467,-1.2759,-1.2759,-1.2759,-1.278,-1.2953,-1.2809,-1.2668,0.0,0.0,0.0,0.0,0.0,0.0,0.0,0.0,0.0,0.0,0.0,0.1297,0.2144,0.2281,0.2148,0.1794,0.1794,0.1705,0.1612,0.1389,0.1389,0.1567,0.1254,0.0,0.1299,0.1165,0.1031,0.09,0.0782,-0.0043,-0.1608,-0.1962,-0.3037,-0.4601,-0.481,-0.4713,-0.4423,-0.426,-0.4459,-0.4841,-0.4264,-0.4469,-0.5123,-0.6137,-0.6327,-0.6177,-0.6719,0.0,0.0,0.0,0.0,0.0,0.0,0.0,-0.6329,0.0,0.0,0.0,-0.558,-0.5638,-0.588,-0.7039,-0.7788,-0.8537,0.0,0.0,0.0,0.0,0.0,0.0,0.0,0.0,0.0,0.0,0.0,0.0,0.0,0.0,0.0,0.0,0.0,0.0,0.0,0.0,0.0,0.0,0.0,-0.9841,-0.9625,-0.9635,-1.0035,-1.0939,-1.0509,-1.0838,-1.1958,-1.1475,-1.1176,-1.1013,-1.1253,-1.1472,-1.1589,-1.1368,-1.15,-1.1883,-1.1883,-1.1883,-1.198,-1.2565,-1.2759,-1.2759,-1.2759,-1.2759,-1.277,-1.278,-1.2673,-1.2648,0.0,0.0,0.0,0.0,0.0,0.0,0.0,0.0,0.0,0.0,0.0,0.0,0.0,0.2152,0.2107,0.2018,0.1973,0.1973,0.1928,0.1839,0.1884,0.2059,0.1746,0.1567,0.1612,0.1344,0.1165,0.1031,0.0864,0.0335,-0.0607,-0.1534,-0.2425,-0.3317,-0.4261,-0.4636,-0.4545,-0.4214,-0.4171,-0.4306,-0.4011,-0.4466,-0.541,-0.5721,0.0,0.0,0.0,0.0,0.0,0.0,0.0,0.0,0.0,0.0,0.0,0.0,-0.5305,-0.524,-0.534,-0.5344,-0.55,-0.6511,-0.7239,-0.808,-0.9418,-0.9774,-1.0019,0.0,0.0,0.0,0.0,0.0,0.0,0.0,0.0,0.0,0.0,0.0,0.0,0.0,0.0,0.0,0.0,0.0,0.0,0.0,0.0,0.0,-0.9625,-0.9473,-0.9656,-1.0111,-1.0195,-1.0739,-1.1549,-1.1391,-1.1262,-1.1186,-1.1497,-1.1732,-1.1967,-1.2026,-1.2161,-1.2467,-1.2467,-1.2273,-1.2078,-1.2565,-1.2759,-1.2759,-1.2759,-1.2759,-1.2759,-1.2759,-1.2762,-1.2648,0.0,0.0,0.0,-0.1612,0.0,-0.1478,-0.1254,-0.1075,-0.0492,0.067,0.0,0.0,0.0,0.0,0.2286,0.2196,0.2152,0.2152,0.2111,0.2111,0.2152,0.2281,0.2103,0.1973,0.2018,0.1723,0.1502,0.1344,0.1127,0.0593,-0.014,-0.1195,-0.2038,-0.272,-0.3851,-0.4455,-0.4609,-0.4368,-0.4219,-0.4165,-0.406,-0.4497,-0.5351,0.0,0.0,0.0,0.0,0.0,0.0,0.0,0.0,0.0,0.0,0.0,0.0,0.0,0.0,0.0,-0.502,-0.518,-0.56,-0.6611,-0.7212,-0.7906,-0.9313,0.0,0.0,0.0,0.0,0.0,0.0,0.0,0.0,0.0,0.0,0.0,0.0,0.0,0.0,0.0,0.0,0.0,0.0,0.0,0.0,0.0,0.0,0.0,-0.9473,-0.9397,-0.9428,-0.9729,-1.0115,-1.0584,-1.1219,-1.1305,-1.1262,-1.1262,-1.1422,-1.1657,-1.214,-1.2128,-1.2363,-1.2759,-1.2759,-1.2565,-1.2273,-1.2662,-1.2759,-1.2759,-1.2759,-1.2759,-1.2759,-1.2759,-1.2762,-1.2648,-0.1794,-0.1705,-0.1612,-0.1612,-0.1389,-0.1029,-0.0582,-0.0224,0.0402,0.1472,0.0,0.0,0.0,0.0,0.0,0.233,0.233,0.2241,0.2107,0.2111,0.2196,0.2326,0.2326,0.237,0.2504,0.2238,0.2023,0.1794,0.1548,0.0807,-0.0351,-0.0953,-0.1876,-0.2943,-0.3495,-0.4014,-0.4493,0.0,-0.4592,-0.4484,0.0,-0.4513,-0.4802,0.0,0.0,0.0,-0.5802,-0.5785,0.0,-0.5488,0.0,0.0,0.0,0.0,0.0,0.0,0.0,0.0,0.0,0.0,0.0,0.0,-0.7712,0.0,-0.896,0.0,-0.9153,0.0,0.0,0.0,0.0,0.0,0.0,0.0,0.0,0.0,0.0,0.0,0.0,0.0,0.0,0.0,0.0,0.0,0.0,0.0,0.0,-0.9322,-0.9322,-0.9322,-0.9499,-0.9948,-1.0188,-1.05,-1.0982,-1.123,-1.1262,-1.1262,-1.11,-1.142,-1.2038,-1.1865,-1.2119,-1.2759,-1.2759,-1.2759,-1.2759,-1.2759,-1.2759,-1.2759,-1.2759,-1.2759,-1.2759,-1.2759,-1.2762,-1.2751,-0.166,-0.1567,-0.1433,-0.1433,-0.1389,-0.112,-0.0537,-0.0179,0.0403,0.0,0.0,0.0,0.2504,0.2525,0.2432,0.2386,0.2479,0.2539,0.2514,0.2642,0.2776,0.2948,0.2726,0.2593,0.2642,0.2475,0.2255,0.2014,0.1903,0.166,0.13,0.019,-0.0778,-0.1544,-0.2603,-0.3329,-0.373,-0.3932,0.0,-0.4519,-0.4254,-0.4429,0.0,0.0,0.0,0.0,0.0,-0.5909,-0.5952,0.0,-0.486,-0.4689,0.0,0.0,0.0,0.0,0.0,0.0,-0.5023,0.0,0.0,0.0,0.0,0.0,-0.7795,-0.7845,-0.8028,0.0,0.0,0.0,0.0,0.0,0.0,0.0,0.0,0.0,0.0,0.0,0.0,0.0,0.0,0.0,0.0,0.0,0.0,0.0,-0.9103,-0.917,-0.9322,-0.9322,-0.9499,-0.9948,-1.0188,-1.05,-1.0982,-1.123,-1.1262,-1.1262,-1.1262,-1.1422,-1.1801,-1.1973,-1.2221,-1.2522,-1.2694,-1.2759,-1.2759,-1.2759,-1.2759,-1.2759,-1.2759,-1.2759,-1.2759,-1.2759,-1.2862,-1.2956,-0.1523,-0.1433,-0.1441,-0.1512,-0.154,-0.1225,-0.0329,-0.0,0.056,0.0,0.0,0.0,0.233,0.245,0.2451,0.2373,0.2544,0.2665,0.2692,0.2821,0.2998,0.317,0.2954,0.2821,0.2909,0.2636,0.2461,0.237,0.2111,0.1983,0.1973,0.0778,-0.0139,-0.0879,-0.1989,-0.2815,-0.338,-0.3485,0.0,0.0,-0.4188,0.0,0.0,-0.5017,-0.5378,0.0,0.0,0.0,-0.5717,-0.521,-0.5092,0.0,0.0,0.0,0.0,0.0,0.0,0.0,0.0,0.0,0.0,0.0,0.0,0.0,-0.7007,-0.6804,-0.688,0.0,0.0,0.0,0.0,0.0,0.0,0.0,0.0,0.0,0.0,0.0,0.0,0.0,0.0,0.0,0.0,0.0,0.0,-0.9301,-0.9246,-0.9246,-0.917,-0.9246,-0.9499,-0.988,-1.0108,-1.05,-1.0982,-1.123,-1.1262,-1.1262,-1.1262,-1.1478,-1.1704,-1.1941,-1.2188,-1.2425,-1.2662,-1.2759,-1.2759,-1.2759,-1.2759,-1.2759,-1.2759,-1.2759,-1.277,-1.2867,-1.2946,-1.307,0.0,-0.1389,-0.1452,-0.1657,-0.1667,-0.1256,-0.005,0.0201,0.0796,0.0,0.2339,0.2284,0.2197,0.2428,0.2498,0.2279,0.2567,0.2711,0.2692,0.2821,0.2954,0.317,0.2998,0.2954,0.3126,0.2756,0.2585,0.2732,0.2285,0.2074,0.2062,0.112,0.0178,-0.0663,-0.147,-0.2366,-0.3228,-0.3203,0.0,-0.3785,-0.4088,-0.4364,0.0,0.0,-0.511,-0.5521,-0.4567,-0.4647,-0.5257,-0.5301,-0.5355,0.0,0.0,0.0,0.0,0.0,-0.4116,0.0,0.0,0.0,0.0,0.0,0.0,0.0,-0.6489,-0.5998,-0.5839,0.0,0.0,0.0,0.0,0.0,0.0,0.0,0.0,0.0,0.0,0.0,0.0,0.0,0.0,0.0,0.0,-0.9603,-0.9699,-0.9346,-0.9539,-0.9397,-0.9027,-0.917,-0.9423,-0.9724,-1.0108,-1.05,-1.0982,-1.123,-1.1262,-1.1262,-1.1262,-1.1456,-1.1671,-1.193,-1.2167,-1.2393,-1.2651,-1.2759,-1.2759,-1.2759,-1.2759,-1.2759,-1.2759,-1.2759,-1.2791,-1.3017,-1.3052,-1.309,-0.1389,-0.1389,-0.1407,-0.1515,-0.1534,-0.113,0.0052,0.0257,0.0718,0.2051,0.2265,0.2265,0.2115,0.2235,0.2201,0.2077,0.2219,0.2381,0.2514,0.2687,0.2821,0.2954,0.2909,0.2821,0.2637,0.2755,0.2843,0.2865,0.2573,0.2441,0.2553,0.1969,0.1011,-0.0297,-0.0573,-0.1453,-0.2767,0.0,0.0,-0.3363,-0.362,0.0,-0.4041,-0.4267,-0.4398,-0.4567,-0.4146,-0.4063,-0.4182,-0.4192,-0.4192,-0.4221,0.0,0.0,0.0,0.0,0.0,0.0,0.0,0.0,0.0,0.0,0.0,0.0,-0.6083,-0.5675,-0.5563,0.0,0.0,0.0,0.0,0.0,0.0,0.0,0.0,0.0,0.0,0.0,0.0,0.0,0.0,0.0,0.0,-0.9627,-0.9745,-0.9552,-0.9595,-0.9473,-0.9246,-0.9246,-0.9499,-0.9959,-1.0188,-1.05,-1.0982,-1.123,-1.1262,-1.1262,-1.1262,-1.1283,-1.1348,-1.1674,-1.1886,-1.2145,-1.2384,-1.2565,-1.2759,-1.2759,-1.2759,-1.2759,-1.2759,-1.2759,-1.2791,-1.3017,-1.3265,-1.341,-0.1389,-0.1389,-0.1463,-0.1602,-0.172,-0.1371,-0.0111,0.0,0.0503,0.2014,0.2338,0.2393,0.2234,0.225,0.2246,0.2262,0.2259,0.2335,0.2514,0.2687,0.2821,0.2909,0.2776,0.2687,0.2593,0.2553,0.2642,0.2909,0.2509,0.2553,0.2948,0.2241,0.1341,0.0313,-0.0268,-0.1163,-0.2286,0.0,-0.2992,-0.3077,-0.3542,0.0,-0.3947,-0.4135,-0.4262,-0.4268,-0.4023,-0.386,-0.3778,-0.3898,-0.3875,0.0,0.0,-0.4289,-0.4417,0.0,-0.455,-0.4867,0.0,0.0,0.0,-0.6173,0.0,0.0,0.0,-0.5616,-0.5272,-0.5732,0.0,0.0,0.0,0.0,0.0,0.0,0.0,0.0,0.0,0.0,0.0,0.0,0.0,0.0,0.0,-0.9717,-0.9823,-0.9841,-0.9787,-0.97,-0.9473,-0.9473,-0.9627,-1.0126,-1.0251,-1.0563,-1.1165,-1.1284,-1.1262,-1.1262,-1.1262,-1.1262,-1.1283,-1.1743,-1.1957,-1.2081,-1.2459,-1.2662,-1.2759,-1.2759,-1.2759,-1.2759,-1.2759,-1.2759,-1.2802,-1.3157,-1.3373,-1.3534,-0.1389,-0.1389,-0.1469,-0.1676,-0.1792,-0.1446,-0.0231,-0.0059,0.0476,0.1991,0.2404,0.2446,0.2287,0.2232,0.2255,0.2342,0.228,0.2333,0.2447,0.2632,0.2734,0.2756,0.2573,0.2485,0.2534,0.2313,0.2424,0.2821,0.242,0.2553,0.3081,0.2281,0.154,0.0925,-0.0046,-0.0962,-0.1919,0.0,0.0,-0.313,0.0,-0.3757,-0.3827,-0.4121,-0.4202,-0.4137,-0.3936,-0.3789,-0.3713,-0.3876,-0.3979,-0.4066,-0.4219,-0.4376,0.0,0.0,0.0,0.0,0.0,0.0,0.0,0.0,0.0,-0.6336,0.0,0.0,0.0,-0.5417,0.0,0.0,0.0,0.0,0.0,0.0,0.0,0.0,0.0,0.0,0.0,0.0,0.0,0.0,0.0,-0.9722,-0.9961,-1.0176,-1.0032,-0.9862,-0.9764,-0.9764,-0.9963,-1.0303,-1.0437,-1.0752,-1.1262,-1.1262,-1.1262,-1.1262,-1.1262,-1.1283,-1.1435,-1.1764,-1.1978,-1.2145,-1.248,-1.2662,-1.2759,-1.2759,-1.2759,-1.2759,-1.2759,-1.2759,-1.2824,-1.3297,-1.348,-1.3545,-0.1389,-0.1389,-0.141,-0.1523,-0.1142,-0.0627,0.0056,0.0509,0.1086,0.1983,0.2216,0.2287,0.0,0.0,0.0,0.0,0.0,0.0,0.2203,0.0,0.2204,0.2198,0.2276,0.2203,0.1994,0.2117,0.233,0.2549,0.2504,0.2549,0.2732,0.2415,0.1844,0.1152,0.0688,0.0,0.0,0.0,-0.2479,0.0,-0.3512,-0.3398,0.0,-0.3806,-0.3849,-0.3659,-0.3637,-0.3811,-0.4045,0.0,-0.4148,-0.4376,0.0,-0.4365,-0.466,0.0,0.0,0.0,0.0,0.0,0.0,0.0,-0.6013,0.0,0.0,0.0,-0.5754,-0.5616,0.0,0.0,0.0,0.0,0.0,0.0,0.0,0.0,0.0,0.0,0.0,0.0,0.0,0.0,0.0,0.0,-1.0018,-1.0439,-1.0282,-1.0166,-1.0239,-1.025,-1.029,-1.0546,-1.0832,-1.1079,-1.1262,-1.1262,-1.1262,-1.1262,-1.1262,-1.1456,-1.1671,-1.1465,-1.1796,-1.2393,-1.2159,-1.237,-1.2759,-1.2759,-1.2759,-1.2759,-1.2759,-1.2759,-1.2824,-1.3297,-1.348,-1.3545,-0.1389,-0.1389,-0.1407,-0.1468,-0.1032,-0.0469,0.0284,0.1449,0.2358,0.2545,0.2759,0.0,0.0,0.0,0.0,0.0,0.0,0.2019,0.0,0.0,0.2427,0.2334,0.2446,0.245,0.2247,0.2273,0.242,0.2732,0.2504,0.2593,0.2993,0.2415,0.1958,0.1595,0.0843,0.0,-0.0745,0.0,-0.2166,0.0,0.0,0.0,0.0,-0.3909,-0.3996,-0.3767,-0.3632,-0.3816,-0.4088,0.0,-0.4023,0.0,0.0,0.0,0.0,0.0,0.0,0.0,0.0,0.0,0.0,0.0,0.0,0.0,-0.6007,0.0,-0.5452,0.0,0.0,0.0,0.0,0.0,0.0,0.0,0.0,0.0,0.0,0.0,0.0,0.0,0.0,0.0,0.0,0.0,0.0,0.0,0.0,-0.99,-1.0209,-1.0024,-1.011,-1.0616,-1.0735,-1.0888,-1.1089,-1.1262,-1.1262,-1.11,-1.1262,-1.1478,-1.1704,-1.1759,-1.1992,-1.2425,-1.2469,-1.2565,-1.2759,-1.2759,-1.2759,-1.2759,-1.2759,-1.2759,-1.2824,-1.3297,-1.348,-1.3545,-0.1389,-0.1389,-0.1402,-0.1444,-0.0871,-0.0103,0.0846,0.2211,0.3009,0.2767,0.2951,0.0,0.2843,0.2548,0.0,0.0,0.2141,0.1992,0.0,0.0,0.2375,0.2209,0.2514,0.2558,0.2398,0.2361,0.2488,0.2776,0.2504,0.2518,0.2863,0.2339,0.2013,0.1915,0.1109,0.0542,0.0055,0.0,-0.1876,-0.2223,-0.314,-0.3507,-0.3561,-0.3952,-0.4034,-0.3903,-0.367,-0.3838,-0.4132,-0.3887,-0.3985,0.0,-0.4137,0.0,0.0,0.0,0.0,0.0,-0.4703,0.0,0.0,0.0,0.0,0.0,0.0,0.0,0.0,0.0,0.0,0.0,0.0,0.0,0.0,0.0,0.0,0.0,0.0,0.0,0.0,0.0,0.0,0.0,0.0,0.0,0.0,0.0,0.0,0.0,-1.0231,-0.9851,-0.9938,-1.0702,-1.0735,-1.0762,-1.1003,-1.1176,-1.1176,-1.1013,-1.1176,-1.151,-1.1801,-1.1973,-1.2221,-1.2522,-1.2598,-1.2759,-1.2759,-1.2759,-1.2759,-1.2759,-1.2759,-1.2802,-1.291,-1.333,-1.348,-1.3545,-0.1389,-0.1389,-0.1389,-0.1391,-0.0464,0.0734,0.2058,0.2472,0.2555,0.2441,0.2323,0.0,0.0,0.0,0.0,0.0,0.0,0.16,0.1802,0.0,0.1691,0.1537,0.2143,0.2371,0.0,0.237,0.2516,0.2504,0.2504,0.2329,0.2045,0.2189,0.2195,0.1969,0.163,0.1081,0.041,-0.0645,-0.1724,-0.2766,-0.3515,-0.3952,-0.4219,0.0,-0.3746,-0.3903,-0.367,0.0,0.0,-0.4012,-0.4164,0.0,0.0,0.0,0.0,0.0,0.0,0.0,0.0,0.0,0.0,-0.4404,0.0,0.0,0.0,0.0,-0.474,0.0,0.0,0.0,0.0,0.0,0.0,0.0,0.0,0.0,0.0,0.0,0.0,0.0,0.0,0.0,0.0,0.0,0.0,0.0,0.0,0.0,-1.023,-0.9884,-1.0003,-1.0939,-1.0972,-1.1006,-1.1003,-1.1176,-1.1176,-1.1013,-1.1176,-1.1596,-1.2038,-1.1865,-1.2119,-1.2748,-1.2565,-1.2565,-1.2759,-1.2759,-1.2759,-1.2759,-1.2759,-1.2899,-1.3125,-1.3383,-1.348,-1.3545,-0.1553,-0.1602,-0.1624,-0.1447,-0.0362,0.0939,0.2387,0.283,0.3035,0.0,0.0,0.0,0.0,0.2374,0.2061,0.0,0.0,0.186,0.1976,0.2225,0.0,0.0,0.0,0.2775,0.0,0.0,0.2868,0.2713,0.2785,0.2555,0.2077,0.2152,0.1988,0.1576,0.1469,0.1286,0.0,0.0,0.0,0.0,0.0,-0.386,-0.4153,0.0,0.0,-0.3903,-0.367,-0.3844,0.0,-0.399,-0.4121,-0.4333,-0.417,-0.4202,-0.4295,-0.4251,-0.4436,0.0,0.0,0.0,-0.5168,-0.4571,0.0,0.0,0.0,0.0,0.0,0.0,0.0,0.0,0.0,0.0,0.0,0.0,0.0,0.0,0.0,0.0,0.0,0.0,0.0,0.0,0.0,0.0,0.0,0.0,0.0,0.0,0.0,-0.9464,-0.9479,-1.0261,-1.0444,-1.0624,-1.0819,-1.1089,-1.1089,-1.0829,-1.1324,-1.1747,-1.214,-1.2117,-1.2363,-1.2759,-1.2662,-1.2759,-1.2759,-1.2759,-1.2759,-1.2759,-1.2759,-1.2899,-1.3136,-1.3383,-1.3577,-1.3771,-0.1583,-0.1752,-0.1839,-0.1607,-0.0323,0.1076,0.2397,0.2856,0.0,0.0,0.2747,0.0,0.2715,0.0,0.2132,0.0,0.2048,0.2018,0.2035,0.2359,0.0,0.2217,0.27,0.0,0.0,0.0,0.0,0.0,0.2702,0.2419,0.1848,0.1973,0.1801,0.1365,0.1288,0.1155,0.0962,-0.1145,-0.1725,0.0,0.0,-0.3833,0.0,0.0,-0.3925,-0.3969,0.0,-0.3822,-0.4034,-0.3909,-0.4061,-0.4278,-0.4153,-0.4202,-0.4284,-0.4197,-0.4311,-0.4425,-0.4328,-0.4688,0.0,-0.4483,-0.4669,0.0,-0.4739,0.0,0.0,0.0,0.0,0.0,0.0,0.0,0.0,0.0,0.0,0.0,0.0,-0.4714,0.0,0.0,0.0,0.0,0.0,0.0,0.0,0.0,0.0,0.0,0.0,0.0,-0.9385,-1.0401,-1.0503,-1.0596,-1.0757,-1.1205,-1.1205,-1.0767,-1.1451,-1.1865,-1.2188,-1.2339,-1.2544,-1.2759,-1.2759,-1.2759,-1.2759,-1.2759,-1.2759,-1.277,-1.2856,-1.3028,-1.3254,-1.3416,-1.3685,-1.4008,-0.1588,-0.1836,-0.2036,-0.1824,-0.0341,0.0,0.0,0.0,0.2631,0.0,0.2098,0.2066,0.2276,0.2028,0.1949,0.2178,0.2016,0.195,0.1985,0.2153,0.0,0.0,0.2335,0.2438,0.2152,0.0,0.0,0.0,0.0,0.2022,0.1384,0.1809,0.1742,0.1297,0.1054,0.0,0.0744,-0.188,-0.2598,-0.2011,-0.3315,-0.3936,-0.4126,-0.3876,0.0,-0.4099,-0.3903,-0.3833,-0.392,-0.3806,-0.4001,-0.4273,-0.4159,-0.4208,-0.4257,-0.4012,-0.4028,-0.4072,-0.3887,-0.4034,-0.4284,-0.4159,0.0,0.0,0.0,0.0,-0.4115,0.0,0.0,0.0,0.0,0.0,0.0,0.0,0.0,0.0,0.0,0.0,0.0,0.0,0.0,0.0,0.0,0.0,0.0,0.0,0.0,0.0,0.0,0.0,-0.9648,-1.1177,-1.1068,-1.102,-1.099,-1.1436,-1.1436,-1.099,-1.1536,-1.1951,-1.2393,-1.2425,-1.2544,-1.2748,-1.2759,-1.2759,-1.2759,-1.2759,-1.277,-1.2802,-1.3017,-1.3265,-1.3491,-1.3513,-1.3814,-1.4245,-0.1949,-0.205,-0.2066,0.0,-0.0533,0.0511,0.0,0.0,0.0,0.0,0.1962,0.1791,0.2028,0.1937,0.1835,0.1908,0.2171,0.0,0.0,0.0,0.0,0.207,0.2466,0.263,0.2487,0.2605,0.0,0.2328,0.0,0.2128,0.1333,0.1613,0.1581,0.1128,0.1078,0.0934,0.0677,-0.0827,-0.2215,-0.3431,-0.4051,-0.4431,0.0,0.0,-0.4251,-0.4327,-0.3964,-0.3833,-0.3941,-0.4001,-0.4088,-0.4175,-0.4235,-0.4273,-0.4268,-0.4115,-0.4159,-0.4202,-0.3952,-0.4219,-0.4512,-0.4306,-0.4431,-0.4567,0.0,0.0,0.0,0.0,0.0,0.0,0.0,0.0,0.0,0.0,0.0,0.0,0.0,0.0,0.0,-0.5717,0.0,0.0,0.0,0.0,0.0,0.0,0.0,0.0,0.0,0.0,0.0,-1.0461,-1.0647,-1.0671,-1.0711,-1.1158,-1.1258,-1.099,-1.1695,-1.2027,-1.2156,-1.2321,-1.2416,-1.2511,-1.249,-1.2662,-1.2759,-1.2759,-1.2867,-1.3017,-1.3082,-1.3362,-1.375,-1.3943,-1.4191,-1.4482,-0.2113,-0.2344,0.0,-0.2145,0.0,0.0,0.0627,0.0,0.0,0.2055,0.1918,0.0,0.1922,0.1873,0.1852,0.1964,0.2184,0.0,0.2247,0.0,0.0,0.2128,0.2309,0.2316,0.2184,0.2327,0.0,0.2083,0.0,0.1984,0.1303,0.1564,0.1437,0.0979,0.0889,0.0731,0.0473,-0.0955,-0.2425,-0.3764,-0.4283,0.0,0.0,-0.4338,-0.4295,-0.4355,-0.4028,-0.3958,-0.4023,-0.4094,-0.4153,-0.4208,-0.4278,-0.43,-0.4278,-0.4153,-0.4164,-0.4191,-0.405,-0.4213,-0.4398,-0.4322,-0.4436,-0.461,-0.4425,-0.4539,-0.4616,0.0,0.0,0.0,0.0,0.0,0.0,0.0,0.0,0.0,0.0,0.0,0.0,0.0,0.0,0.0,0.0,0.0,0.0,0.0,0.0,0.0,0.0,0.0,0.0,-1.0274,-1.0637,-1.0926,-1.094,-1.1312,-1.161,-1.1908,-1.2015,-1.2224,-1.2511,-1.2289,-1.2247,-1.2425,-1.2373,-1.2565,-1.2759,-1.2759,-1.2899,-1.3125,-1.334,-1.3538,-1.3795,-1.4147,-1.4363,-1.4417,-0.2248,-0.2628,0.0,0.0,0.0,0.0,0.0,0.0599,0.0,0.1672,0.0,0.1896,0.1896,0.1841,0.1964,0.2184,0.0,0.2213,0.2469,0.2313,0.2154,0.2091,0.1983,0.1879,0.1719,0.1755,0.0,0.0,0.0,0.1706,0.1246,0.146,0.1307,0.0875,0.0626,0.0462,0.0,-0.1501,-0.2814,-0.3559,-0.4131,-0.4458,-0.4442,-0.4191,-0.417,-0.4262,-0.4153,-0.4126,-0.4143,-0.4143,-0.4213,-0.43,-0.4284,-0.4289,-0.4273,-0.4132,-0.4115,-0.4143,-0.4143,-0.4153,-0.4191,-0.4317,-0.442,-0.4469,-0.4371,-0.4436,-0.4518,-0.4518,-0.4616,-0.4776,0.0,0.0,0.0,0.0,0.0,0.0,0.0,0.0,0.0,0.0,0.0,0.0,0.0,0.0,0.0,0.0,0.0,0.0,0.0,0.0,0.0,-1.0395,-1.0974,0.0,-1.1395,0.0,-1.2141,-1.3007,-1.2349,-1.2352,-1.295,-1.2224,-1.2131,-1.2331,-1.2373,-1.2565,-1.2759,-1.2759,-1.292,-1.31,-1.3581,-1.3784,-1.3779,-1.4229,-1.4275,-1.4126,-0.2471,0.0,0.0,0.0,0.0,-0.2799,-0.1829,-0.0334,0.0735,0.0905,0.1435,0.1821,0.1821,0.2004,0.2128,0.2184,0.2408,0.0,0.0,0.0,0.0,0.1838,0.1846,0.1846,0.1943,0.1798,0.1708,0.0,0.0,0.0,0.1056,0.127,0.1165,0.0872,0.0923,0.0682,0.0297,-0.1097,0.0,-0.3712,-0.3727,-0.4041,-0.4431,-0.4094,-0.4045,-0.4148,-0.4126,-0.4181,-0.4268,-0.4268,-0.4284,-0.4284,-0.4181,-0.4219,-0.4257,-0.4034,-0.411,-0.4268,-0.4268,-0.4338,-0.4436,-0.4632,-0.4676,-0.4687,-0.4665,-0.4686,-0.4768,-0.4768,-0.4866,-0.4953,-0.4953,0.0,0.0,0.0,0.0,0.0,0.0,0.0,0.0,0.0,0.0,0.0,0.0,0.0,0.0,0.0,0.0,0.0,0.0,0.0,0.0,0.0,0.0,0.0,0.0,0.0,0.0,-1.2867,-1.2469,-1.2363,-1.252,-1.196,-1.1847,-1.2047,-1.2073,-1.237,-1.2759,-1.2565,-1.272,-1.3151,-1.3508,-1.3717,-1.3671,-1.3789,-1.3837,-1.3919,0.0,0.0,0.0,0.0,0.0,0.0,0.0,-0.1368,0.0,0.0521,0.096,0.1354,0.1812,0.1922,0.2073,0.2184,0.2244,0.2261,0.2237,0.2095,0.1994,0.1886,0.1942,0.0,0.1951,0.1937,0.1868,0.1716,0.0,0.0,0.1122,0.1165,0.1088,0.0881,0.1002,0.0754,0.0,0.0,0.0,-0.3038,-0.3428,-0.3823,-0.4268,-0.4028,-0.4088,-0.4295,-0.4235,-0.4327,-0.4463,-0.4344,-0.43,-0.4289,-0.423,-0.4251,-0.4289,-0.423,-0.4295,-0.4404,-0.4463,-0.4523,-0.4649,-0.4709,-0.4703,-0.4746,-0.4746,-0.4844,-0.4931,-0.4931,-0.4974,-0.498,-0.4849,-0.4583,0.0,0.0,0.0,0.0,0.0,0.0,0.0,0.0,0.0,0.0,0.0,0.0,0.0,0.0,0.0,0.0,0.0,0.0,0.0,0.0,0.0,0.0,0.0,0.0,0.0,-1.2993,-1.2321,-1.2225,-1.2554,-1.1816,-1.1723,-1.2236,-1.1879,-1.2175,-1.278,-1.2929,-1.3063,-1.3101,-1.3435,-1.3536,-1.3563,-1.3778,-1.3727,-1.3583,0.0,-0.3968,0.0,0.0,-0.3538,0.0,-0.3033,-0.2369,-0.146,-0.0056,0.0384,0.0867,0.1521,0.1824,0.1999,0.2208,0.2053,0.2026,0.2314,0.2032,0.1933,0.209,0.2115,0.2142,0.2018,0.2076,0.1996,0.0,0.0,0.0,0.0,0.1146,0.1041,0.0,0.0,0.0,0.0,0.0,-0.1248,-0.2169,-0.2943,-0.3572,-0.3996,-0.4025,-0.4224,-0.4463,-0.4398,-0.4496,-0.4698,-0.4436,-0.4376,-0.4371,-0.4344,-0.4355,-0.4387,-0.4452,-0.449,-0.4534,-0.4659,-0.4692,-0.4697,-0.4724,-0.48,-0.4871,-0.4871,-0.4947,-0.5018,-0.5018,-0.5018,-0.4942,-0.477,-0.4501,0.0,0.0,0.0,0.0,0.0,0.0,0.0,0.0,0.0,0.0,0.0,0.0,0.0,0.0,0.0,0.0,0.0,0.0,0.0,0.0,0.0,-1.1409,-1.1542,0.0,-1.2183,0.0,-1.2089,-1.1932,-1.2349,-1.1703,-1.1641,-1.2014,-1.1803,-1.2078,-1.2705,-1.333,-1.3286,-1.2925,-1.3236,-1.326,-1.3237,-1.3789,-1.3758,-1.3416,0.0,0.0,0.0,0.0,0.0,0.0,0.0,-0.3191,-0.2676,-0.1533,-0.0243,0.06,0.0639,0.1674,0.2357,0.2291,0.2347,0.2326,0.2393,0.2143,0.2145,0.2465,0.2145,0.2143,0.2458,0.2077,0.1863,0.0,0.0,0.0,0.0,0.0,0.0,0.0,0.0,0.0,0.0,0.0444,-0.0458,-0.1668,-0.2178,-0.2792,-0.3608,-0.4219,-0.4442,-0.4485,-0.4654,-0.4704,-0.472,-0.4698,-0.4693,-0.4671,-0.449,-0.4529,-0.4671,-0.4501,-0.4621,-0.4664,-0.4784,-0.4817,-0.4844,-0.4953,-0.4991,-0.5002,-0.5002,-0.5007,-0.5018,-0.5018,-0.5018,-0.4942,-0.477,-0.4704,-0.449,0.0,0.0,0.0,0.0,0.0,0.0,0.0,0.0,0.0,0.0,0.0,0.0,0.0,0.0,0.0,0.0,0.0,0.0,-1.0233,0.0,-1.0836,-1.1079,-1.1725,0.0,-1.2791,-1.2285,-1.1723,-1.0965,-1.1505,-1.1442,-1.0956,-1.196,-1.2273,-1.2129,-1.3296,-1.3122,-1.2112,-1.2936,-1.3186,-1.3019,-1.3558,-1.3628,-1.3639,0.0,0.0,0.0,0.0,0.0,0.0,0.0,-0.3413,-0.3068,-0.2608,-0.1597,-0.0561,0.0424,0.1039,0.1531,0.2058,0.2143,0.2175,0.2214,0.2054,0.2068,0.2338,0.2265,0.2237,0.228,0.2173,0.2014,0.0,0.0,0.0,0.0,0.0,0.0,0.0,0.0,0.0859,0.0711,0.0584,0.0133,-0.0478,-0.1201,-0.2164,-0.307,-0.3637,-0.4217,-0.4686,-0.4659,-0.4746,-0.4871,-0.4871,-0.4773,-0.4715,-0.4665,-0.4687,-0.4731,-0.4681,-0.4724,-0.479,-0.4909,-0.4942,-0.4953,-0.5007,-0.5018,-0.5018,-0.5018,-0.5018,-0.5018,-0.5018,-0.5018,-0.4985,-0.4887,-0.4751,-0.4759,0.0,0.0,0.0,0.0,0.0,0.0,0.0,0.0,0.0,0.0,0.0,0.0,0.0,0.0,0.0,0.0,0.0,0.0,-0.9027,0.0,-1.0238,-0.9637,-1.067,-1.1161,-1.1081,-1.0386,-1.0242,-1.0622,-1.0198,-1.0236,-1.0609,-1.142,-1.1875,-1.1914,-1.2196,-1.2255,-1.2147,-1.2644,-1.2899,-1.3046,-1.3507,-1.3639,-1.3669,-0.7159,0.0,-0.6186,0.0,-0.5205,-0.4371,-0.4256,-0.3776,-0.3449,-0.3449,-0.2756,-0.1739,-0.0312,0.0314,0.0945,0.1561,0.1888,0.2107,0.2152,0.2113,0.2191,0.2485,0.2394,0.0,0.2413,0.2299,0.2145,0.185,0.1728,0.0,0.0,0.0,0.0,0.0,0.0984,0.0891,0.0654,0.0734,0.0611,0.0345,-0.0689,-0.1616,-0.253,-0.3331,-0.4152,-0.4876,-0.479,-0.4871,-0.5018,-0.5018,-0.4822,-0.4609,-0.4757,-0.4757,-0.4768,-0.4667,-0.4683,-0.4699,-0.4783,-0.4804,-0.4815,-0.4929,-0.4991,-0.4974,-0.5085,-0.4991,-0.4974,-0.5012,-0.5018,-0.5018,-0.5018,-0.4876,-0.4849,-0.5116,0.0,0.0,0.0,0.0,0.0,0.0,-0.4099,-0.4077,-0.4376,0.0,0.0,0.0,0.0,0.0,0.0,0.0,0.0,0.0,0.0,0.0,0.0,-0.9701,-1.0003,-0.9589,-0.9033,-0.8984,-0.9638,-0.9212,-0.9518,-1.0302,-1.1089,-1.1383,-1.1207,-1.1408,-1.1557,-1.185,-1.2548,-1.2685,-1.245,-1.3034,-1.317,-1.3096,-0.8661,-0.7693,-0.6837,-0.6883,-0.6327,-0.5611,-0.4817,-0.4284,-0.3993,-0.3993,-0.3431,-0.2722,-0.206,-0.0329,0.0797,0.071,0.1652,0.222,0.222,0.222,0.2488,0.0,0.0,0.2488,0.3159,0.2484,0.2093,0.197,0.0,0.0,0.1574,0.0,0.1119,0.0887,0.0943,0.1048,0.1076,0.1076,0.0832,0.0437,-0.0582,-0.1273,-0.1879,-0.3515,-0.4457,-0.5012,-0.5012,-0.5012,-0.5018,-0.5018,-0.4701,-0.4457,-0.4857,-0.5012,-0.4908,-0.4407,-0.4302,-0.4302,-0.4302,-0.4302,-0.4402,-0.4908,-0.4925,-0.4866,-0.5217,-0.5073,-0.4871,-0.4991,-0.5018,-0.5018,-0.5018,-0.5012,-0.4936,-0.477,0.0,0.0,0.0,0.0,0.0,0.0,-0.3882,-0.3871,-0.4649,0.0,0.0,0.0,0.0,0.0,0.0,0.0,0.0,-0.7795,-0.8257,0.0,-0.8434,-0.8957,-0.9139,-0.8877,-0.8794,-0.8253,-0.759,-0.896,-0.9705,-0.9884,-1.1205,-1.0863,-0.9735,-1.1072,-1.1256,-1.0715,-1.2607,-1.2339,-1.0956,-1.1697,-1.188,-1.171,-0.961,-0.9157,-0.8698,-0.8097,-0.7151,-0.628,-0.5659,-0.4964,-0.4394,-0.3896,-0.3671,-0.3301,-0.2588,-0.1419,-0.0268,0.0,0.1204,0.1682,0.0,0.222,0.2421,0.282,0.2421,0.2421,0.282,0.2354,0.2119,0.2099,0.0,0.0,0.0,0.1499,0.1301,0.1095,0.1072,0.1078,0.1108,0.1129,0.1088,0.0901,0.0388,-0.0238,-0.0884,-0.2448,-0.3285,-0.3695,-0.4522,-0.4522,-0.4276,-0.444,-0.4435,-0.4353,-0.4685,-0.4663,-0.4535,-0.4115,-0.4132,-0.4227,-0.4002,-0.3927,-0.3993,-0.4333,-0.4353,-0.4543,-0.5028,-0.5081,-0.4966,-0.4853,-0.4833,-0.4893,-0.4893,-0.4958,-0.4963,-0.48,-0.4844,0.0,0.0,0.0,0.0,0.0,-0.4094,-0.4099,0.0,-0.417,0.0,0.0,0.0,0.0,0.0,0.0,0.0,0.0,-0.7327,0.0,-0.6864,-0.7794,-0.8158,-0.8115,-0.7302,-0.6887,-0.6813,-0.7977,-0.8607,-0.8772,-0.9242,-0.9518,-0.9623,-0.9264,-0.9957,-1.1098,-1.1025,-1.1228,-1.1638,-1.102,-1.0739,-1.0655,-1.0891,-1.0565,-1.0208,-0.9244,-0.8397,-0.7519,-0.6572,-0.599,-0.537,-0.4749,-0.423,-0.376,-0.3472,-0.238,0.0,-0.0139,0.0624,0.1318,0.1736,0.2082,0.2429,0.2771,0.2429,0.2429,0.2771,0.0,0.0,0.2131,0.2109,0.1954,0.163,0.1589,0.1459,0.1166,0.1151,0.1155,0.1174,0.1193,0.1217,0.1171,0.0885,0.0572,0.0165,-0.1336,-0.193,-0.2098,-0.3608,-0.3859,-0.3608,-0.4281,-0.4365,-0.4197,-0.4369,-0.4367,-0.417,-0.3781,-0.3874,-0.3904,-0.3603,-0.345,-0.353,-0.3925,-0.4255,-0.4583,-0.5118,-0.5195,-0.5084,-0.4886,-0.4811,-0.4822,-0.4773,-0.4828,-0.4855,-0.4779,-0.4768,-0.4616,-0.4181,0.0,0.0,0.0,0.0,0.0,0.0,-0.4338,0.0,0.0,0.0,0.0,0.0,0.0,0.0,-0.5252,-0.6448,0.0,-0.6154,-0.6846,-0.7177,-0.7136,-0.6475,-0.6252,-0.6437,-0.7585,-0.789,-0.7723,-0.8229,-0.8513,-0.8659,-0.819,-0.892,-1.0317,-1.0162,-1.0362,-1.0693,-1.0106,-0.971,-0.9544,-1.2397,-1.1913,0.0,0.0,-0.9953,0.0,-0.7535,-0.7193,-0.6882,-0.6266,-0.506,-0.4287,-0.437,-0.314,-0.2122,-0.1608,0.0,0.0,0.0,0.1823,0.2408,0.2914,0.2478,0.2481,0.2914,0.2481,0.2239,0.2186,0.2199,0.2039,0.1635,0.1719,0.154,0.1175,0.1234,0.134,0.134,0.1262,0.128,0.1306,0.0899,0.0994,0.1267,-0.0253,-0.0506,-0.0422,-0.2356,-0.2944,-0.3028,-0.413,-0.4219,-0.397,-0.397,-0.397,-0.3934,-0.3595,-0.3459,-0.3456,-0.3146,-0.3071,-0.318,-0.3729,-0.4367,-0.495,-0.5422,-0.5261,-0.5068,-0.5029,-0.492,-0.4811,-0.4686,-0.4737,-0.4737,-0.4726,-0.472,-0.4512,-0.4153,0.0,0.0,0.0,0.0,0.0,0.0,-0.4693,-0.4637,0.0,0.0,0.0,0.0,0.0,-0.4857,-0.536,-0.5725,-0.6029,-0.6268,-0.6154,-0.6154,-0.6268,-0.6279,-0.6339,-0.6453,-0.7579,-0.7613,-0.6907,-0.7849,-0.7812,-0.7061,-0.7706,-0.8132,-0.8608,-0.9883,-0.9564,-0.8641,-0.8872,-0.8594,-0.8116,0.0,0.0,-1.2482,-1.1362,-1.0715,-0.9881,-0.8469,-0.8183,-0.7728,-0.679,-0.5951,-0.5104,-0.4175,-0.322,-0.2495,-0.231,-0.134,-0.0219,0.102,0.1313,0.1823,0.2842,0.2478,0.2481,0.2914,0.2481,0.2349,0.2379,0.2362,0.2159,0.1824,0.1844,0.1623,0.1315,0.1275,0.1292,0.1294,0.1317,0.1331,0.1255,0.1276,0.1287,0.1296,-0.0,-0.0176,0.0088,-0.1145,-0.1764,-0.2118,-0.2382,-0.2911,-0.3442,-0.3622,-0.371,-0.3678,-0.3437,-0.3509,-0.3465,-0.3144,-0.2902,-0.2816,-0.3353,-0.4183,-0.4929,-0.5308,-0.528,-0.5047,-0.492,-0.4931,-0.4936,-0.4811,-0.479,-0.4762,-0.4742,-0.4643,-0.4387,-0.4028,-0.4262,0.0,0.0,-0.4268,-0.4355,-0.4382,-0.43,-0.4191,0.0,0.0,0.0,0.0,0.0,-0.5186,-0.5366,-0.5806,-0.6116,-0.6268,-0.6241,-0.6241,-0.6268,-0.6355,-0.6458,-0.6578,-0.681,-0.6894,-0.6801,-0.7118,-0.6973,-0.6719,-0.7091,-0.7889,-0.894,-0.8413,-0.8734,-0.9235,-0.8164,-0.7589,-0.7522,-1.3823,-1.3874,-1.3588,-1.2741,-1.2323,-1.1533,-0.9858,-0.9682,-0.9324,-0.8131,-0.6895,-0.5868,-0.5115,-0.3683,-0.2706,-0.2507,-0.1761,-0.0753,0.0527,0.098,0.1659,0.264,0.249,0.249,0.2715,0.249,0.2431,0.2461,0.2461,0.2247,0.1887,0.1887,0.166,0.1279,0.1295,0.131,0.1325,0.1341,0.1355,0.1369,0.1384,0.1399,0.1324,0.0714,0.0717,0.0896,-0.009,-0.0537,-0.0806,-0.1701,-0.2327,-0.2867,-0.3406,-0.3588,-0.3571,-0.349,-0.3408,-0.3266,-0.3019,-0.2768,-0.2932,-0.3922,-0.4466,-0.4999,-0.5853,-0.5629,-0.5235,-0.5184,-0.5123,-0.498,-0.4855,-0.479,-0.4713,-0.4588,-0.4469,-0.4306,-0.405,-0.4278,0.0,-0.4295,-0.4387,-0.4485,-0.4539,-0.4436,-0.4333,-0.4268,0.0,0.0,-0.455,-0.4953,-0.5219,-0.5284,-0.5648,-0.5926,-0.61,-0.6214,-0.6268,-0.6268,-0.6437,-0.6556,-0.6622,-0.6676,-0.6741,-0.6801,-0.6741,-0.6714,-0.6719,-0.691,-0.7517,-0.8258,-0.7673,-0.806,-0.8647,-0.7817,-0.7402,-0.7398,-1.3964,-1.4356,-1.4489,-1.397,-1.397,-1.3288,-1.1225,-1.1242,-1.1009,-0.9637,-0.7961,-0.6751,-0.622,-0.4375,-0.2979,-0.251,-0.1881,-0.1096,-0.0235,0.047,0.1333,0.2275,0.2353,0.2353,0.251,0.251,0.251,0.251,0.251,0.228,0.1895,0.1895,0.168,0.131,0.1314,0.1331,0.1355,0.1274,0.1374,0.1397,0.1397,0.1412,0.1436,0.1441,0.1532,0.1623,0.0904,0.0632,0.045,-0.1173,-0.1889,-0.224,-0.297,-0.3326,-0.3499,-0.3499,-0.3276,-0.3054,-0.2883,-0.2877,-0.3228,-0.4594,-0.4802,-0.5082,-0.641,-0.6073,-0.5504,-0.5655,-0.5403,-0.5061,-0.4936,-0.48,-0.4731,-0.4523,-0.4431,-0.4311,-0.4115,0.0,-0.4507,-0.4452,-0.4637,-0.4692,-0.4795,-0.473,-0.4686,-0.4781,-0.4817,0.0,0.0,-0.5121,-0.5241,-0.5241,-0.5442,-0.5676,-0.5926,-0.6154,-0.6279,-0.6295,-0.6497,-0.66,-0.6622,-0.6725,-0.6774,-0.6768,-0.6681,-0.6709,-0.6817,-0.6975,-0.7154,-0.735,-0.7491,-0.76,-0.7676,-0.7714,-0.7622,-0.7577,-1.4757,-1.4816,-1.4705,-1.4314,-1.4099,-1.3433,-1.1784,-1.1749,-1.1465,-1.0237,-0.9336,-0.8201,-0.6374,-0.53,-0.4064,-0.2588,-0.2353,-0.1959,-0.1176,-0.094,-0.0157,0.1411,0.1489,0.1803,0.251,0.251,0.251,0.251,0.251,0.2299,0.194,0.194,0.1719,0.1341,0.1366,0.138,0.1385,0.1411,0.1425,0.1429,0.1429,0.1431,0.1438,0.1464,0.1474,0.1569,0.1596,0.1309,0.0738,0.0656,-0.0277,-0.1528,-0.1646,-0.2272,-0.3051,-0.3051,-0.2956,-0.2948,-0.3123,-0.326,-0.3549,-0.4342,-0.4646,-0.5058,-0.5832,-0.5883,-0.5725,-0.5798,-0.5661,-0.5431,-0.5306,-0.5105,-0.4887,-0.4731,-0.4697,-0.4567,-0.4039,0.0,-0.4664,-0.436,-0.4518,-0.4731,-0.4681,-0.4757,-0.4849,-0.4953,-0.5067,-0.5175,-0.5279,-0.542,-0.5496,-0.5496,-0.5443,-0.5714,-0.6051,-0.6198,-0.6317,-0.641,-0.6448,-0.6518,-0.6622,-0.6638,-0.6649,-0.6654,-0.6736,-0.6785,-0.6828,-0.7149,-0.7301,-0.7355,-0.7584,-0.7622,-0.7573,-0.7769,-0.7932,-0.7958,-1.4525,-1.479,-1.5062,-1.4974,-1.4991,-1.4489,-1.2879,-1.2732,-1.2291,-1.0732,-0.9744,-0.8438,-0.6605,-0.5455,-0.4219,-0.2666,-0.251,-0.2353,-0.1959,-0.1568,-0.0705,0.0548,0.1018,0.1646,0.251,0.251,0.251,0.251,0.2542,0.2331,0.1869,0.1975,0.176,0.1371,0.1384,0.1399,0.1416,0.1446,0.146,0.1461,0.1478,0.1485,0.1486,0.15,0.1505,0.1506,0.1807,0.1802,0.1601,0.1329,0.0752,0.0093,-0.0374,-0.1213,-0.2132,-0.2132,-0.2484,-0.3004,-0.3147,-0.3409,-0.3757,-0.4372,-0.4908,-0.5468,-0.6075,-0.6069,-0.6069,-0.6162,-0.5849,-0.5513,-0.5393,-0.5224,-0.5029,-0.479,-0.4686,0.0,0.0,-0.4507,-0.4626,-0.4594,-0.4741,-0.4871,-0.4931,-0.505,-0.5143,-0.5203,-0.5257,-0.5339,-0.5458,-0.5518,-0.561,-0.5735,-0.5806,-0.5953,-0.6181,-0.6366,-0.6453,-0.6437,-0.6567,-0.6627,-0.6622,-0.6622,-0.6654,-0.6719,-0.6779,-0.6872,-0.7013,-0.7312,-0.7432,-0.7453,-0.7633,-0.7665,-0.7644,-0.7883,-0.8046,-0.8187,-1.4368,-1.4746,-1.5275,-1.5505,-1.5647,-1.5204,-1.3608,-1.339,-1.2718,-1.0956,-0.9895,-0.8666,-0.6988,-0.5912,-0.4603,-0.2976,-0.2666,-0.2588,-0.251,-0.1959,-0.1176,-0.0313,0.0705,0.1646,0.251,0.251,0.2518,0.2531,0.2578,0.2371,0.1981,0.2018,0.18,0.14,0.14,0.1418,0.1448,0.1471,0.1485,0.1493,0.1516,0.1525,0.1527,0.1534,0.1536,0.1538,0.1738,0.2025,0.2114,0.1638,0.1535,0.1429,0.0765,-0.0191,-0.1046,-0.1142,-0.1795,-0.2609,-0.3182,-0.3562,-0.3956,-0.4504,-0.5121,-0.5573,-0.5725,-0.6028,-0.618,-0.5968,-0.5736,-0.5561,-0.5469,-0.5355,-0.5186,-0.492,0.0,0.0,0.0,-0.472,-0.473,-0.486,-0.5007,-0.5132,-0.5219,-0.5339,-0.5409,-0.5409,-0.5436,-0.5496,-0.5502,-0.5616,-0.5741,-0.598,-0.6078,-0.6187,-0.6306,-0.6486,-0.6545,-0.648,-0.6638,-0.6681,-0.6622,-0.6622,-0.6687,-0.6806,-0.6861,-0.7002,-0.7214,-0.7459,-0.7562,-0.7573,-0.7693,-0.7741,-0.7769,-0.8008,-0.8171,-0.8301,-1.4781,-1.4957,-1.5346,-1.5718,-1.5647,-1.4919,-1.323,-1.2938,-1.2352,-1.0732,-1.0443,-0.9669,-0.7914,-0.7218,-0.6066,-0.3908,-0.3292,-0.2904,-0.251,-0.2431,-0.204,-0.1254,0.0392,0.1646,0.251,0.251,0.254,0.2594,0.26,0.241,0.2075,0.2079,0.1841,0.1431,0.1431,0.1449,0.1478,0.1479,0.1497,0.1523,0.1525,0.1525,0.153,0.1557,0.1568,0.1572,0.16,0.1791,0.1966,0.2198,0.1863,0.1241,0.1555,0.0869,0.0,-0.019,-0.0578,-0.1258,-0.317,-0.3878,-0.4135,-0.432,-0.4723,-0.4945,-0.4043,-0.5079,-0.585,-0.4665,-0.5265,-0.598,-0.5708,-0.5605,-0.5409,-0.5061,0.0,0.0,-0.4561,-0.4958,-0.523,-0.5029,-0.5203,-0.5344,-0.5355,-0.5464,-0.5448,-0.5448,-0.5643,-0.5708,-0.5719,-0.5817,-0.5991,-0.6236,-0.6252,-0.6312,-0.642,-0.6442,-0.6502,-0.6605,-0.6507,-0.6518,-0.6622,-0.6622,-0.6687,-0.6817,-0.7035,-0.7203,-0.7339,-0.7589,-0.7687,-0.7698,-0.7812,-0.7856,-0.7888,-0.8133,-0.8301,-0.8405,-1.463,-1.5016,-1.5576,-1.5576,-1.5434,-1.4919,-1.3825,-1.323,-1.2425,-1.1254,-1.0594,-0.9755,-0.8143,-0.7371,-0.6297,-0.4681,-0.3679,-0.3061,-0.2904,-0.2669,-0.2118,-0.1333,-0.0079,0.0961,0.1764,0.2359,0.2635,0.2657,0.2695,0.248,0.2087,0.2114,0.187,0.1436,0.1455,0.147,0.1483,0.1521,0.1543,0.1555,0.1575,0.1583,0.1584,0.1595,0.1599,0.16,0.1613,0.1711,0.2002,0.2316,0.2298,0.2174,0.239,0.1687,0.0592,-0.0296,-0.0794,-0.1193,-0.1961,-0.2709,-0.3426,-0.4143,-0.4314,-0.4131,-0.3685,-0.4184,-0.4606,-0.4108,-0.5069,-0.6029,-0.586,-0.5806,-0.5676,-0.5393,0.0,-0.529,-0.5061,-0.5159,-0.5252,-0.5235,-0.5382,-0.548,-0.548,-0.5594,-0.5665,-0.5665,-0.5708,-0.5763,-0.5833,-0.6024,-0.6203,-0.6366,-0.6372,-0.6393,-0.6437,-0.6589,-0.6611,-0.6507,-0.6611,-0.6649,-0.6622,-0.6698,-0.6801,-0.6931,-0.7165,-0.7334,-0.747,-0.7709,-0.7763,-0.772,-0.791,-0.7986,-0.8013,-0.8258,-0.8378,-0.8416,-1.4478,-1.4863,-1.5434,-1.5505,-1.5275,-1.4848,-1.4057,-1.3244,-1.2352,-1.1403,-1.0594,-0.9679,-0.8523,-0.7532,-0.6535,-0.5223,-0.399,-0.3228,-0.2936,-0.2715,-0.2237,-0.1428,-0.0486,0.041,0.1149,0.2168,0.27,0.2722,0.2763,0.2532,0.2108,0.2155,0.1904,0.1451,0.1482,0.15,0.1512,0.1554,0.1577,0.1587,0.1609,0.1617,0.1617,0.1617,0.1617,0.1617,0.1617,0.1718,0.192,0.2322,0.2423,0.2624,0.2725,0.2219,0.1211,-0.0101,-0.0403,-0.0504,-0.1109,-0.1598,-0.2159,-0.3228,-0.3293,-0.2989,-0.2547,-0.2924,-0.323,-0.2954,-0.4293,-0.5634,-0.5931,-0.5909,-0.5828,-0.5502,-0.548,-0.5415,-0.5377,-0.5328,-0.5333,-0.5415,-0.5534,-0.5523,-0.5523,-0.5687,-0.5735,-0.5735,-0.5768,-0.5871,-0.6062,-0.6236,-0.6393,-0.6545,-0.6551,-0.6535,-0.6491,-0.6622,-0.6643,-0.6551,-0.6681,-0.6741,-0.6736,-0.6823,-0.6926,-0.7051,-0.729,-0.7442,-0.7535,-0.7774,-0.785,-0.7834,-0.803,-0.8133,-0.8187,-0.8356,-0.8416,-0.841,-1.4446,-1.4502,-1.4776,-1.5363,-1.515,-1.4561,-1.3608,-1.2806,-1.2009,-1.118,-1.0368,-0.969,-0.9074,-0.8075,-0.6927,-0.5461,-0.4384,-0.3486,-0.2678,-0.2659,-0.2415,-0.1709,-0.0581,0.0252,0.084,0.2104,0.2722,0.2785,0.2785,0.2639,0.2155,0.2202,0.1945,0.1482,0.1513,0.1543,0.1572,0.1572,0.159,0.1617,0.1617,0.1617,0.1617,0.1617,0.1617,0.1617,0.1617,0.1617,0.1718,0.2221,0.2221,0.2122,0.2624,0.2425,0.1819,0.0706,0.1009,0.1111,-0.1009,-0.0806,-0.0301,-0.1379,-0.1666,-0.1456,-0.0373,-0.1201,-0.203,-0.12,-0.2859,-0.4798,-0.5823,-0.5909,-0.5828,-0.5502,-0.5464,-0.5513,-0.5388,-0.5474,-0.5464,-0.5464,-0.5659,-0.5735,-0.5735,-0.5735,-0.5735,-0.5735,-0.5844,-0.6062,-0.6415,-0.6448,-0.6562,-0.6796,-0.6801,-0.6741,-0.6622,-0.6502,-0.6562,-0.6801,-0.6681,-0.6752,-0.6986,-0.6986,-0.7046,-0.7171,-0.741,-0.7519,-0.7535,-0.7774,-0.7943,-0.8068,-0.8187,-0.8312,-0.8416,-0.8416,-0.8416,-0.8399,-1.4375,-1.4751,-1.5221,-1.5078,-1.4864,-1.4418,-1.3608,-1.2806,-1.2009,-1.118,-1.0368,-0.9841,-0.9614,-0.838,-0.731,-0.6842,-0.4999,-0.3491,-0.2745,-0.2722,-0.2747,-0.2725,-0.0942,0.0172,0.0344,0.201,0.2828,0.2847,0.2847,0.2608,0.2202,0.2216,0.1959,0.1513,0.1545,0.1564,0.1573,0.1594,0.1609,0.1617,0.1617,0.1617,0.1617,0.1617,0.1617,0.1617,0.1617,0.1617,0.1617,0.2021,0.2021,0.2021,0.2223,0.2021,0.1617,0.1313,0.1414,0.1415,0.0808,0.0909,0.0703,-0.1084,-0.1078,-0.0389,-0.0,0.0191,0.048,0.0947,-0.0477,-0.2298,-0.3685,-0.4238,-0.4758,-0.5642,-0.5795,-0.5757,-0.5643,-0.5654,-0.5681,-0.5681,-0.5708,-0.5735,-0.5735,-0.5735,-0.5768,-0.5844,-0.6116,-0.6323,-0.6431,-0.66,-0.673,-0.6801,-0.6719,-0.6698,-0.6747,-0.6709,-0.6687,-0.6676,-0.6812,-0.6915,-0.6986,-0.7067,-0.7122,-0.7171,-0.741,-0.7519,-0.7546,-0.7867,-0.8024,-0.8073,-0.828,-0.8334,-0.8301,-0.8383,-0.8312,-0.8171,-1.4909,-1.517,-1.5527,-1.5235,-1.5113,-1.4778,-1.3903,-1.3061,-1.2241,-1.1489,-1.05,-0.9884,-0.9969,-0.8499,-0.7516,-0.7352,-0.517,-0.3524,-0.2895,-0.2872,-0.2905,-0.3166,-0.1055,0.0,-0.0088,0.1871,0.2875,0.2875,0.2897,0.2653,0.2222,0.2257,0.2002,0.1545,0.1576,0.159,0.1591,0.1609,0.1617,0.1617,0.1617,0.1617,0.1617,0.1617,0.1617,0.1617,0.1617,0.1617,0.1617,0.192,0.2021,0.2021,0.192,0.1718,0.1617,0.1617,0.1617,0.1617,0.1617,0.1617,0.1309,0.0199,0.0296,0.0682,0.0663,0.1046,0.1627,0.189,0.0665,-0.0763,-0.1695,-0.2815,-0.3824,-0.484,-0.5285,-0.5536,-0.5652,-0.5735,-0.5735,-0.5735,-0.5735,-0.5752,-0.5795,-0.5844,-0.5958,-0.617,-0.6388,-0.6551,-0.6649,-0.6747,-0.6823,-0.6872,-0.6757,-0.6725,-0.6801,-0.685,-0.6839,-0.6763,-0.6915,-0.7008,-0.7056,-0.7122,-0.7182,-0.7236,-0.7432,-0.7546,-0.7616,-0.7926,-0.8084,-0.8138,-0.8285,-0.8329,-0.8301,-0.828,-0.8182,-0.8073,-1.5716,-1.5686,-1.5723,-1.5716,-1.5686,-1.5265,-1.429,-1.3355,-1.2503,-1.1849,-1.0701,-0.9969,-0.9969,-0.855,-0.75,-0.708,-0.4954,-0.3476,-0.3132,-0.3019,-0.2962,-0.3138,-0.1165,-0.009,-0.0358,0.1792,0.2877,0.2883,0.2932,0.2687,0.2237,0.2316,0.2063,0.1577,0.1605,0.1617,0.1617,0.1617,0.1617,0.1617,0.1617,0.1617,0.1617,0.1617,0.1617,0.1617,0.1617,0.1617,0.1617,0.192,0.192,0.192,0.1718,0.1617,0.1617,0.1617,0.1617,0.1617,0.1617,0.1617,0.1617,0.192,0.1796,0.1561,0.1599,0.1586,0.1678,0.1955,0.0928,0.0,0.0,-0.1474,-0.2924,-0.3492,-0.4376,-0.5196,-0.5568,-0.5657,-0.5757,-0.5779,-0.5779,-0.5828,-0.5937,-0.6062,-0.6268,-0.6594,-0.6638,-0.6747,-0.6959,-0.6883,-0.6877,-0.6964,-0.6872,-0.6817,-0.6817,-0.6931,-0.6986,-0.6986,-0.6997,-0.7056,-0.7154,-0.7165,-0.723,-0.7345,-0.7475,-0.7606,-0.7736,-0.797,-0.8133,-0.8236,-0.8247,-0.8307,-0.8361,-0.8138,-0.8051,-0.8073,-1.5526,-1.571,-1.5896,-1.5967,-1.5388,-1.4709,-1.4016,-1.2789,-1.1887,-1.1488,-1.0819,-1.0283,-0.9717,-0.8747,-0.7788,-0.6757,-0.5214,-0.3936,-0.3028,-0.3042,-0.3051,-0.2962,-0.1076,-0.0,-0.009,0.1884,0.2897,0.294,0.2951,0.2724,0.2324,0.2247,0.2077,0.1607,0.1614,0.1617,0.1617,0.1617,0.1617,0.1617,0.1617,0.1617,0.1617,0.1617,0.1617,0.1617,0.1617,0.1617,0.1617,0.1617,0.1718,0.1718,0.1617,0.1617,0.1617,0.1617,0.1617,0.1617,0.1617,0.1617,0.1617,0.1718,0.1611,0.1703,0.2084,0.2082,0.1975,0.2236,0.1915,0.1414,0.0463,-0.0546,-0.1618,-0.2861,-0.4113,-0.5041,-0.5309,-0.5593,-0.5937,-0.6127,-0.6154,-0.6198,-0.6312,-0.6431,-0.6535,-0.6616,-0.6796,-0.6888,-0.6844,-0.6991,-0.7008,-0.6844,-0.691,-0.6948,-0.6948,-0.6975,-0.6986,-0.6986,-0.7073,-0.7133,-0.716,-0.7252,-0.7312,-0.735,-0.7568,-0.7725,-0.785,-0.8095,-0.8209,-0.8247,-0.8339,-0.828,-0.8127,-0.8073,-0.8051,-0.8084,-1.6111,-1.6348,-1.6458,-1.5717,-1.551,-1.4918,-1.3721,-1.2842,-1.2178,-1.1677,-1.1238,-1.061,-0.9853,-0.8953,-0.7651,-0.5866,-0.4986,-0.4162,-0.3138,-0.3138,-0.3153,-0.3095,-0.1091,-0.0,-0.0184,0.1939,0.2959,0.2959,0.2986,0.2761,0.2255,0.2376,0.21,0.1617,0.1617,0.1617,0.1617,0.1617,0.1617,0.1617,0.1617,0.1617,0.1617,0.1617,0.1617,0.1617,0.1617,0.1617,0.1617,0.1617,0.1617,0.1617,0.1617,0.1617,0.1617,0.1617,0.1626,0.1636,0.1621,0.1628,0.1635,0.1722,0.1831,0.1833,0.2,0.1894,0.1884,0.2041,0.221,0.2092,0.1502,0.0836,-0.0092,-0.1564,-0.2851,-0.3988,-0.5209,-0.5511,-0.5857,-0.6328,-0.635,-0.6415,-0.6594,-0.6719,-0.6796,-0.6796,-0.6964,-0.7013,-0.6899,-0.7008,-0.7018,-0.6893,-0.6953,-0.6986,-0.6986,-0.7095,-0.7154,-0.7154,-0.7214,-0.7274,-0.7328,-0.7394,-0.7453,-0.7519,-0.7644,-0.7801,-0.797,-0.8095,-0.8182,-0.8236,-0.8242,-0.8166,-0.8046,-0.7986,-0.804,-0.8166,-1.673,-1.7057,-1.696,-1.5529,-1.5628,-1.5292,-1.3569,-1.2997,-1.2643,-1.2206,-1.1665,-1.0942,-0.9902,-0.8734,-0.7159,-0.4919,-0.475,-0.4389,-0.3317,-0.3236,-0.327,-0.3325,-0.1111,-0.0093,-0.0285,0.1903,0.303,0.2989,0.3041,0.2806,0.2365,0.2304,0.212,0.1617,0.1617,0.1617,0.1617,0.1819,0.1819,0.1617,0.1819,0.1718,0.1617,0.1617,0.1617,0.1617,0.1617,0.1621,0.1625,0.163,0.1632,0.1632,0.1632,0.1632,0.1632,0.1632,0.165,0.1665,0.1639,0.165,0.1767,0.1946,0.1959,0.1964,0.1706,0.1693,0.1686,0.1855,0.2129,0.2411,0.2514,0.2018,0.1147,-0.0286,-0.1431,-0.2786,-0.4886,-0.5405,-0.5753,-0.6279,-0.6433,-0.6638,-0.6844,-0.6953,-0.7013,-0.7013,-0.71,-0.7105,-0.6991,-0.7002,-0.7008,-0.6986,-0.7002,-0.7024,-0.7046,-0.7241,-0.7355,-0.7399,-0.7399,-0.7437,-0.7519,-0.754,-0.7606,-0.7703,-0.7741,-0.7872,-0.8057,-0.8079,-0.8133,-0.8193,-0.8095,-0.804,-0.8013,-0.7954,-0.8073,-0.8285,-1.673,-1.7057,-1.7041,-1.5816,-1.5253,-1.4601,-1.3736,-1.2612,-1.2063,-1.2541,-1.2087,-1.1015,-0.9502,-0.7534,-0.5974,-0.4835,-0.5107,-0.4746,-0.3317,-0.3464,-0.3503,-0.3049,-0.1127,-0.0,-0.0095,0.1998,0.3071,0.3115,0.283,0.2663,0.2412,0.2118,0.192,0.1617,0.1617,0.1617,0.1617,0.2622,0.2421,0.1718,0.2622,0.2421,0.1617,0.1617,0.1617,0.1617,0.1617,0.1633,0.166,0.1684,0.1692,0.1692,0.1692,0.1692,0.1692,0.1692,0.1696,0.1697,0.1693,0.1696,0.1697,0.1693,0.1695,0.1696,0.1688,0.1897,0.2001,0.2101,0.2253,0.2416,0.2455,0.2097,0.1268,0.0195,-0.117,-0.2536,-0.3919,-0.4967,-0.5689,-0.5993,-0.6716,-0.7067,-0.7105,-0.7122,-0.7133,-0.7133,-0.7143,-0.7105,-0.6991,-0.7078,-0.7089,-0.6986,-0.7078,-0.7182,-0.7285,-0.7317,-0.7442,-0.7655,-0.7655,-0.7606,-0.7524,-0.7627,-0.7687,-0.7714,-0.7915,-0.8024,-0.8062,-0.8166,-0.816,-0.8079,-0.8062,-0.7992,-0.7921,-0.8117,-0.8274,-0.8426,-1.6894,-1.6632,-1.6206,-1.5282,-1.4448,-1.3704,-1.2869,-1.236,-1.224,-1.2516,-1.1923,-1.0857,-0.9374,-0.7305,-0.5725,-0.4924,-0.5191,-0.4947,-0.3734,-0.368,-0.3645,-0.3531,-0.1251,-0.0,-0.0197,0.1966,0.3164,0.3191,0.286,0.2576,0.2421,0.2122,0.1819,0.1617,0.1617,0.1918,0.2521,0.3022,0.3224,0.3425,0.3224,0.2924,0.2425,0.1839,0.1643,0.1644,0.166,0.1674,0.1688,0.17,0.1704,0.1704,0.1704,0.1704,0.1704,0.1704,0.1716,0.1726,0.1708,0.1716,0.1726,0.1708,0.1718,0.173,0.173,0.1851,0.1963,0.1925,0.2104,0.2294,0.2525,0.2494,0.2158,0.1233,-0.0,-0.1526,-0.3422,-0.4679,-0.5684,-0.6536,-0.6979,-0.7154,-0.7154,-0.7154,-0.7127,-0.7062,-0.7122,-0.7105,-0.6991,-0.7095,-0.7133,-0.7084,-0.7192,-0.7279,-0.7334,-0.747,-0.7595,-0.7703,-0.7769,-0.7769,-0.772,-0.7769,-0.7796,-0.7801,-0.7905,-0.7992,-0.8051,-0.804,-0.804,-0.8046,-0.7975,-0.7959,-0.7997,-0.8171,-0.8312,-0.8454]}]]